<?xml version="1.0" encoding="UTF-8" standalone="no" ?>
<gpx xmlns="http://www.topografix.com/GPX/1/1" xmlns:xsi="http://www.w3.org/2001/XMLSchema-instance" xsi:schemaLocation="http://www.topografix.com/GPX/1/1 http://www.topografix.com/GPX/1/1/gpx.xsd" version="1.1" creator="VisuGPX - https://www.visugpx.com">
  <metadata>
    <name>De Maxou à Brouelles, variante</name>
    <desc><![CDATA[Variation sur un parcours agréable.
]]></desc>
  </metadata>
  <trk>
    <name><![CDATA[De Maxou à Brouelles, variante_1]]></name>
    <trkseg>
      <trkpt lat="44.53552" lon="1.44303">
        <ele>220.4</ele>
        <time>2022-09-25T12:04:55Z</time>
      </trkpt>
      <trkpt lat="44.53557" lon="1.44301">
        <ele>219.8</ele>
        <time>2022-09-25T12:05:01Z</time>
      </trkpt>
      <trkpt lat="44.53561" lon="1.44299">
        <ele>219.4</ele>
        <time>2022-09-25T12:05:06Z</time>
      </trkpt>
      <trkpt lat="44.53566" lon="1.44297">
        <ele>218.5</ele>
        <time>2022-09-25T12:05:11Z</time>
      </trkpt>
      <trkpt lat="44.53572" lon="1.44296">
        <ele>217.3</ele>
        <time>2022-09-25T12:05:16Z</time>
      </trkpt>
      <trkpt lat="44.53576" lon="1.44296">
        <ele>216.5</ele>
        <time>2022-09-25T12:05:20Z</time>
      </trkpt>
      <trkpt lat="44.53581" lon="1.44297">
        <ele>215.6</ele>
        <time>2022-09-25T12:05:24Z</time>
      </trkpt>
      <trkpt lat="44.53586" lon="1.44297">
        <ele>215.1</ele>
        <time>2022-09-25T12:05:28Z</time>
      </trkpt>
      <trkpt lat="44.53591" lon="1.44298">
        <ele>214.9</ele>
        <time>2022-09-25T12:05:32Z</time>
      </trkpt>
      <trkpt lat="44.53595" lon="1.44298">
        <ele>215</ele>
        <time>2022-09-25T12:05:36Z</time>
      </trkpt>
      <trkpt lat="44.536" lon="1.443">
        <ele>214.7</ele>
        <time>2022-09-25T12:05:40Z</time>
      </trkpt>
      <trkpt lat="44.53604" lon="1.44302">
        <ele>214.1</ele>
        <time>2022-09-25T12:05:44Z</time>
      </trkpt>
      <trkpt lat="44.53609" lon="1.44303">
        <ele>214</ele>
        <time>2022-09-25T12:05:48Z</time>
      </trkpt>
      <trkpt lat="44.53614" lon="1.44303">
        <ele>214.3</ele>
        <time>2022-09-25T12:05:52Z</time>
      </trkpt>
      <trkpt lat="44.53619" lon="1.44304">
        <ele>214.7</ele>
        <time>2022-09-25T12:05:56Z</time>
      </trkpt>
      <trkpt lat="44.53623" lon="1.44306">
        <ele>214.5</ele>
        <time>2022-09-25T12:06:00Z</time>
      </trkpt>
      <trkpt lat="44.53627" lon="1.4431">
        <ele>213.6</ele>
        <time>2022-09-25T12:06:04Z</time>
      </trkpt>
      <trkpt lat="44.53629" lon="1.44317">
        <ele>213.5</ele>
        <time>2022-09-25T12:06:08Z</time>
      </trkpt>
      <trkpt lat="44.53627" lon="1.44323">
        <ele>213</ele>
        <time>2022-09-25T12:06:12Z</time>
      </trkpt>
      <trkpt lat="44.53624" lon="1.4433">
        <ele>212.2</ele>
        <time>2022-09-25T12:06:16Z</time>
      </trkpt>
      <trkpt lat="44.53621" lon="1.44336">
        <ele>211.3</ele>
        <time>2022-09-25T12:06:20Z</time>
      </trkpt>
      <trkpt lat="44.53618" lon="1.44342">
        <ele>210.6</ele>
        <time>2022-09-25T12:06:24Z</time>
      </trkpt>
      <trkpt lat="44.53615" lon="1.44347">
        <ele>209.9</ele>
        <time>2022-09-25T12:06:28Z</time>
      </trkpt>
      <trkpt lat="44.53613" lon="1.44354">
        <ele>209</ele>
        <time>2022-09-25T12:06:33Z</time>
      </trkpt>
      <trkpt lat="44.53616" lon="1.4436">
        <ele>207.9</ele>
        <time>2022-09-25T12:06:38Z</time>
      </trkpt>
      <trkpt lat="44.53619" lon="1.44364">
        <ele>207.4</ele>
        <time>2022-09-25T12:06:43Z</time>
      </trkpt>
      <trkpt lat="44.53622" lon="1.4437">
        <ele>206.8</ele>
        <time>2022-09-25T12:06:48Z</time>
      </trkpt>
      <trkpt lat="44.53623" lon="1.44377">
        <ele>206</ele>
        <time>2022-09-25T12:06:52Z</time>
      </trkpt>
      <trkpt lat="44.53624" lon="1.44383">
        <ele>205.4</ele>
        <time>2022-09-25T12:06:56Z</time>
      </trkpt>
      <trkpt lat="44.53627" lon="1.44389">
        <ele>204.9</ele>
        <time>2022-09-25T12:07:00Z</time>
      </trkpt>
      <trkpt lat="44.53631" lon="1.44391">
        <ele>204.5</ele>
        <time>2022-09-25T12:07:04Z</time>
      </trkpt>
      <trkpt lat="44.53636" lon="1.44394">
        <ele>204.4</ele>
        <time>2022-09-25T12:07:09Z</time>
      </trkpt>
      <trkpt lat="44.53641" lon="1.44396">
        <ele>204.8</ele>
        <time>2022-09-25T12:07:14Z</time>
      </trkpt>
      <trkpt lat="44.53645" lon="1.44399">
        <ele>205.3</ele>
        <time>2022-09-25T12:07:19Z</time>
      </trkpt>
      <trkpt lat="44.53649" lon="1.44404">
        <ele>205.4</ele>
        <time>2022-09-25T12:07:24Z</time>
      </trkpt>
      <trkpt lat="44.53652" lon="1.44409">
        <ele>206.2</ele>
        <time>2022-09-25T12:07:29Z</time>
      </trkpt>
      <trkpt lat="44.53656" lon="1.44413">
        <ele>206.6</ele>
        <time>2022-09-25T12:07:33Z</time>
      </trkpt>
      <trkpt lat="44.53662" lon="1.44414">
        <ele>207</ele>
        <time>2022-09-25T12:07:38Z</time>
      </trkpt>
      <trkpt lat="44.53667" lon="1.44415">
        <ele>206.6</ele>
        <time>2022-09-25T12:07:43Z</time>
      </trkpt>
      <trkpt lat="44.53672" lon="1.44415">
        <ele>206.4</ele>
        <time>2022-09-25T12:07:48Z</time>
      </trkpt>
      <trkpt lat="44.53678" lon="1.44415">
        <ele>205.9</ele>
        <time>2022-09-25T12:07:53Z</time>
      </trkpt>
      <trkpt lat="44.53683" lon="1.44415">
        <ele>205.8</ele>
        <time>2022-09-25T12:07:58Z</time>
      </trkpt>
      <trkpt lat="44.53688" lon="1.44417">
        <ele>205.6</ele>
        <time>2022-09-25T12:08:03Z</time>
      </trkpt>
      <trkpt lat="44.53693" lon="1.44419">
        <ele>204.9</ele>
        <time>2022-09-25T12:08:08Z</time>
      </trkpt>
      <trkpt lat="44.53698" lon="1.44421">
        <ele>205.1</ele>
        <time>2022-09-25T12:08:13Z</time>
      </trkpt>
      <trkpt lat="44.53703" lon="1.44422">
        <ele>205.9</ele>
        <time>2022-09-25T12:08:19Z</time>
      </trkpt>
      <trkpt lat="44.53707" lon="1.44424">
        <ele>205.9</ele>
        <time>2022-09-25T12:08:24Z</time>
      </trkpt>
      <trkpt lat="44.53712" lon="1.44426">
        <ele>205.4</ele>
        <time>2022-09-25T12:08:30Z</time>
      </trkpt>
      <trkpt lat="44.53717" lon="1.44427">
        <ele>204.5</ele>
        <time>2022-09-25T12:08:36Z</time>
      </trkpt>
      <trkpt lat="44.53722" lon="1.44426">
        <ele>204.2</ele>
        <time>2022-09-25T12:08:41Z</time>
      </trkpt>
      <trkpt lat="44.53727" lon="1.44424">
        <ele>204.5</ele>
        <time>2022-09-25T12:08:46Z</time>
      </trkpt>
      <trkpt lat="44.53732" lon="1.44425">
        <ele>204.4</ele>
        <time>2022-09-25T12:08:51Z</time>
      </trkpt>
      <trkpt lat="44.53736" lon="1.44426">
        <ele>203.6</ele>
        <time>2022-09-25T12:08:57Z</time>
      </trkpt>
      <trkpt lat="44.53741" lon="1.44426">
        <ele>203.7</ele>
        <time>2022-09-25T12:09:15Z</time>
      </trkpt>
      <trkpt lat="44.53745" lon="1.44421">
        <ele>204.8</ele>
        <time>2022-09-25T12:09:34Z</time>
      </trkpt>
      <trkpt lat="44.53749" lon="1.44418">
        <ele>205.7</ele>
        <time>2022-09-25T12:09:40Z</time>
      </trkpt>
      <trkpt lat="44.53753" lon="1.44415">
        <ele>206.3</ele>
        <time>2022-09-25T12:09:45Z</time>
      </trkpt>
      <trkpt lat="44.53758" lon="1.44413">
        <ele>206.6</ele>
        <time>2022-09-25T12:09:50Z</time>
      </trkpt>
      <trkpt lat="44.53763" lon="1.4441">
        <ele>207.2</ele>
        <time>2022-09-25T12:09:55Z</time>
      </trkpt>
      <trkpt lat="44.53768" lon="1.44408">
        <ele>207.2</ele>
        <time>2022-09-25T12:10:00Z</time>
      </trkpt>
      <trkpt lat="44.53772" lon="1.44405">
        <ele>206.7</ele>
        <time>2022-09-25T12:10:06Z</time>
      </trkpt>
      <trkpt lat="44.53775" lon="1.444">
        <ele>207.5</ele>
        <time>2022-09-25T12:10:12Z</time>
      </trkpt>
      <trkpt lat="44.5378" lon="1.444">
        <ele>208.3</ele>
        <time>2022-09-25T12:10:18Z</time>
      </trkpt>
      <trkpt lat="44.53784" lon="1.44403">
        <ele>208.5</ele>
        <time>2022-09-25T12:10:22Z</time>
      </trkpt>
      <trkpt lat="44.53788" lon="1.44409">
        <ele>208.1</ele>
        <time>2022-09-25T12:10:27Z</time>
      </trkpt>
      <trkpt lat="44.5379" lon="1.44415">
        <ele>208.2</ele>
        <time>2022-09-25T12:10:32Z</time>
      </trkpt>
      <trkpt lat="44.53792" lon="1.44421">
        <ele>209.4</ele>
        <time>2022-09-25T12:10:37Z</time>
      </trkpt>
      <trkpt lat="44.53793" lon="1.44428">
        <ele>210.1</ele>
        <time>2022-09-25T12:10:43Z</time>
      </trkpt>
      <trkpt lat="44.53794" lon="1.44435">
        <ele>210.2</ele>
        <time>2022-09-25T12:10:49Z</time>
      </trkpt>
      <trkpt lat="44.53796" lon="1.44441">
        <ele>210</ele>
        <time>2022-09-25T12:10:55Z</time>
      </trkpt>
      <trkpt lat="44.53797" lon="1.44448">
        <ele>210.1</ele>
        <time>2022-09-25T12:11:00Z</time>
      </trkpt>
      <trkpt lat="44.53799" lon="1.44454">
        <ele>210</ele>
        <time>2022-09-25T12:11:05Z</time>
      </trkpt>
      <trkpt lat="44.538" lon="1.44462">
        <ele>209.7</ele>
        <time>2022-09-25T12:11:10Z</time>
      </trkpt>
      <trkpt lat="44.53801" lon="1.4447">
        <ele>210.3</ele>
        <time>2022-09-25T12:11:15Z</time>
      </trkpt>
      <trkpt lat="44.53801" lon="1.44477">
        <ele>210.9</ele>
        <time>2022-09-25T12:11:20Z</time>
      </trkpt>
      <trkpt lat="44.53802" lon="1.44484">
        <ele>210.8</ele>
        <time>2022-09-25T12:11:25Z</time>
      </trkpt>
      <trkpt lat="44.53803" lon="1.44491">
        <ele>210.6</ele>
        <time>2022-09-25T12:11:30Z</time>
      </trkpt>
      <trkpt lat="44.53804" lon="1.44498">
        <ele>210.2</ele>
        <time>2022-09-25T12:11:35Z</time>
      </trkpt>
      <trkpt lat="44.53806" lon="1.44505">
        <ele>209.7</ele>
        <time>2022-09-25T12:11:40Z</time>
      </trkpt>
      <trkpt lat="44.53807" lon="1.44512">
        <ele>209.1</ele>
        <time>2022-09-25T12:11:45Z</time>
      </trkpt>
      <trkpt lat="44.53809" lon="1.44519">
        <ele>209.3</ele>
        <time>2022-09-25T12:11:50Z</time>
      </trkpt>
      <trkpt lat="44.53811" lon="1.44525">
        <ele>209.9</ele>
        <time>2022-09-25T12:11:55Z</time>
      </trkpt>
      <trkpt lat="44.53815" lon="1.44528">
        <ele>210.1</ele>
        <time>2022-09-25T12:12:01Z</time>
      </trkpt>
      <trkpt lat="44.5382" lon="1.44528">
        <ele>210.2</ele>
        <time>2022-09-25T12:12:07Z</time>
      </trkpt>
      <trkpt lat="44.53825" lon="1.44526">
        <ele>210.5</ele>
        <time>2022-09-25T12:12:13Z</time>
      </trkpt>
      <trkpt lat="44.5383" lon="1.44527">
        <ele>210.3</ele>
        <time>2022-09-25T12:12:19Z</time>
      </trkpt>
      <trkpt lat="44.53834" lon="1.44528">
        <ele>210.5</ele>
        <time>2022-09-25T12:12:25Z</time>
      </trkpt>
      <trkpt lat="44.53839" lon="1.44529">
        <ele>211.2</ele>
        <time>2022-09-25T12:12:31Z</time>
      </trkpt>
      <trkpt lat="44.53844" lon="1.44529">
        <ele>211.8</ele>
        <time>2022-09-25T12:12:37Z</time>
      </trkpt>
      <trkpt lat="44.53849" lon="1.44529">
        <ele>212.3</ele>
        <time>2022-09-25T12:12:43Z</time>
      </trkpt>
      <trkpt lat="44.53853" lon="1.4453">
        <ele>212.7</ele>
        <time>2022-09-25T12:12:49Z</time>
      </trkpt>
      <trkpt lat="44.53858" lon="1.4453">
        <ele>213.7</ele>
        <time>2022-09-25T12:12:56Z</time>
      </trkpt>
      <trkpt lat="44.53863" lon="1.44531">
        <ele>214</ele>
        <time>2022-09-25T12:13:02Z</time>
      </trkpt>
      <trkpt lat="44.53868" lon="1.44532">
        <ele>214.2</ele>
        <time>2022-09-25T12:13:07Z</time>
      </trkpt>
      <trkpt lat="44.53873" lon="1.44533">
        <ele>213.9</ele>
        <time>2022-09-25T12:13:12Z</time>
      </trkpt>
      <trkpt lat="44.53878" lon="1.44532">
        <ele>213.7</ele>
        <time>2022-09-25T12:13:18Z</time>
      </trkpt>
      <trkpt lat="44.53882" lon="1.44532">
        <ele>213.6</ele>
        <time>2022-09-25T12:13:24Z</time>
      </trkpt>
      <trkpt lat="44.53887" lon="1.44531">
        <ele>213.5</ele>
        <time>2022-09-25T12:13:31Z</time>
      </trkpt>
      <trkpt lat="44.53892" lon="1.44529">
        <ele>214.1</ele>
        <time>2022-09-25T12:13:39Z</time>
      </trkpt>
      <trkpt lat="44.53897" lon="1.44529">
        <ele>214.6</ele>
        <time>2022-09-25T12:13:46Z</time>
      </trkpt>
      <trkpt lat="44.53902" lon="1.44529">
        <ele>214.8</ele>
        <time>2022-09-25T12:13:53Z</time>
      </trkpt>
      <trkpt lat="44.53907" lon="1.44528">
        <ele>215.7</ele>
        <time>2022-09-25T12:14:00Z</time>
      </trkpt>
      <trkpt lat="44.53912" lon="1.44527">
        <ele>216.3</ele>
        <time>2022-09-25T12:14:08Z</time>
      </trkpt>
      <trkpt lat="44.53917" lon="1.44527">
        <ele>216</ele>
        <time>2022-09-25T12:14:15Z</time>
      </trkpt>
      <trkpt lat="44.53922" lon="1.44526">
        <ele>217.2</ele>
        <time>2022-09-25T12:14:22Z</time>
      </trkpt>
      <trkpt lat="44.53927" lon="1.44525">
        <ele>217.7</ele>
        <time>2022-09-25T12:14:30Z</time>
      </trkpt>
      <trkpt lat="44.53932" lon="1.44525">
        <ele>218</ele>
        <time>2022-09-25T12:14:36Z</time>
      </trkpt>
      <trkpt lat="44.53937" lon="1.44522">
        <ele>218.5</ele>
        <time>2022-09-25T12:14:41Z</time>
      </trkpt>
      <trkpt lat="44.53942" lon="1.44522">
        <ele>219.1</ele>
        <time>2022-09-25T12:14:47Z</time>
      </trkpt>
      <trkpt lat="44.53946" lon="1.44523">
        <ele>218.7</ele>
        <time>2022-09-25T12:14:54Z</time>
      </trkpt>
      <trkpt lat="44.53952" lon="1.44523">
        <ele>219.6</ele>
        <time>2022-09-25T12:15:01Z</time>
      </trkpt>
      <trkpt lat="44.53956" lon="1.44524">
        <ele>220.1</ele>
        <time>2022-09-25T12:15:07Z</time>
      </trkpt>
      <trkpt lat="44.53961" lon="1.44524">
        <ele>220.7</ele>
        <time>2022-09-25T12:15:13Z</time>
      </trkpt>
      <trkpt lat="44.53967" lon="1.44525">
        <ele>221.1</ele>
        <time>2022-09-25T12:15:19Z</time>
      </trkpt>
      <trkpt lat="44.53971" lon="1.44526">
        <ele>221.8</ele>
        <time>2022-09-25T12:15:25Z</time>
      </trkpt>
      <trkpt lat="44.53976" lon="1.44524">
        <ele>222.1</ele>
        <time>2022-09-25T12:15:31Z</time>
      </trkpt>
      <trkpt lat="44.53981" lon="1.44523">
        <ele>222.4</ele>
        <time>2022-09-25T12:15:38Z</time>
      </trkpt>
      <trkpt lat="44.53986" lon="1.44523">
        <ele>223.6</ele>
        <time>2022-09-25T12:15:46Z</time>
      </trkpt>
      <trkpt lat="44.53991" lon="1.44524">
        <ele>225.9</ele>
        <time>2022-09-25T12:15:54Z</time>
      </trkpt>
      <trkpt lat="44.53996" lon="1.44524">
        <ele>227.3</ele>
        <time>2022-09-25T12:16:01Z</time>
      </trkpt>
      <trkpt lat="44.54001" lon="1.44523">
        <ele>227.4</ele>
        <time>2022-09-25T12:16:09Z</time>
      </trkpt>
      <trkpt lat="44.54006" lon="1.44522">
        <ele>228.3</ele>
        <time>2022-09-25T12:16:17Z</time>
      </trkpt>
      <trkpt lat="44.5401" lon="1.44521">
        <ele>230.7</ele>
        <time>2022-09-25T12:16:24Z</time>
      </trkpt>
      <trkpt lat="44.54015" lon="1.44522">
        <ele>231.8</ele>
        <time>2022-09-25T12:16:31Z</time>
      </trkpt>
      <trkpt lat="44.54019" lon="1.44523">
        <ele>232.1</ele>
        <time>2022-09-25T12:16:39Z</time>
      </trkpt>
      <trkpt lat="44.54024" lon="1.4452">
        <ele>231.9</ele>
        <time>2022-09-25T12:16:50Z</time>
      </trkpt>
      <trkpt lat="44.54027" lon="1.44516">
        <ele>232.6</ele>
        <time>2022-09-25T12:17:00Z</time>
      </trkpt>
      <trkpt lat="44.54031" lon="1.44512">
        <ele>233.2</ele>
        <time>2022-09-25T12:17:09Z</time>
      </trkpt>
      <trkpt lat="44.54036" lon="1.44507">
        <ele>234.9</ele>
        <time>2022-09-25T12:17:16Z</time>
      </trkpt>
      <trkpt lat="44.5404" lon="1.44503">
        <ele>235.8</ele>
        <time>2022-09-25T12:17:22Z</time>
      </trkpt>
      <trkpt lat="44.54044" lon="1.44501">
        <ele>235.6</ele>
        <time>2022-09-25T12:17:27Z</time>
      </trkpt>
      <trkpt lat="44.54049" lon="1.44499">
        <ele>235.3</ele>
        <time>2022-09-25T12:17:33Z</time>
      </trkpt>
      <trkpt lat="44.54053" lon="1.44499">
        <ele>236.9</ele>
        <time>2022-09-25T12:17:45Z</time>
      </trkpt>
      <trkpt lat="44.54058" lon="1.445">
        <ele>236.9</ele>
        <time>2022-09-25T12:18:13Z</time>
      </trkpt>
      <trkpt lat="44.54061" lon="1.44495">
        <ele>237.9</ele>
        <time>2022-09-25T12:18:23Z</time>
      </trkpt>
      <trkpt lat="44.54063" lon="1.445">
        <ele>240.1</ele>
        <time>2022-09-25T12:18:37Z</time>
      </trkpt>
      <trkpt lat="44.54061" lon="1.44506">
        <ele>241.5</ele>
        <time>2022-09-25T12:18:45Z</time>
      </trkpt>
      <trkpt lat="44.54062" lon="1.44513">
        <ele>242.7</ele>
        <time>2022-09-25T12:18:58Z</time>
      </trkpt>
      <trkpt lat="44.5406" lon="1.44519">
        <ele>245.2</ele>
        <time>2022-09-25T12:19:06Z</time>
      </trkpt>
      <trkpt lat="44.54058" lon="1.44525">
        <ele>246.3</ele>
        <time>2022-09-25T12:19:16Z</time>
      </trkpt>
      <trkpt lat="44.5406" lon="1.44532">
        <ele>247.1</ele>
        <time>2022-09-25T12:19:24Z</time>
      </trkpt>
      <trkpt lat="44.5406" lon="1.44538">
        <ele>249.4</ele>
        <time>2022-09-25T12:19:36Z</time>
      </trkpt>
      <trkpt lat="44.54061" lon="1.44545">
        <ele>251.4</ele>
        <time>2022-09-25T12:19:45Z</time>
      </trkpt>
      <trkpt lat="44.54059" lon="1.4455">
        <ele>254.6</ele>
        <time>2022-09-25T12:19:57Z</time>
      </trkpt>
      <trkpt lat="44.54059" lon="1.44556">
        <ele>255.5</ele>
        <time>2022-09-25T12:20:08Z</time>
      </trkpt>
      <trkpt lat="44.54059" lon="1.44563">
        <ele>255.7</ele>
        <time>2022-09-25T12:20:16Z</time>
      </trkpt>
      <trkpt lat="44.54059" lon="1.4457">
        <ele>257.5</ele>
        <time>2022-09-25T12:20:23Z</time>
      </trkpt>
      <trkpt lat="44.54059" lon="1.44578">
        <ele>259.6</ele>
        <time>2022-09-25T12:20:30Z</time>
      </trkpt>
      <trkpt lat="44.54057" lon="1.44584">
        <ele>262</ele>
        <time>2022-09-25T12:21:04Z</time>
      </trkpt>
      <trkpt lat="44.54057" lon="1.4459">
        <ele>263.1</ele>
        <time>2022-09-25T12:21:11Z</time>
      </trkpt>
      <trkpt lat="44.54053" lon="1.44593">
        <ele>263.7</ele>
        <time>2022-09-25T12:21:18Z</time>
      </trkpt>
      <trkpt lat="44.54052" lon="1.44599">
        <ele>265.5</ele>
        <time>2022-09-25T12:21:31Z</time>
      </trkpt>
      <trkpt lat="44.54053" lon="1.44606">
        <ele>266.3</ele>
        <time>2022-09-25T12:21:45Z</time>
      </trkpt>
      <trkpt lat="44.54057" lon="1.44611">
        <ele>267</ele>
        <time>2022-09-25T12:21:51Z</time>
      </trkpt>
      <trkpt lat="44.54059" lon="1.44616">
        <ele>268</ele>
        <time>2022-09-25T12:21:57Z</time>
      </trkpt>
      <trkpt lat="44.5406" lon="1.44623">
        <ele>270.2</ele>
        <time>2022-09-25T12:22:16Z</time>
      </trkpt>
      <trkpt lat="44.54061" lon="1.4463">
        <ele>270.2</ele>
        <time>2022-09-25T12:22:27Z</time>
      </trkpt>
      <trkpt lat="44.54064" lon="1.44636">
        <ele>269.9</ele>
        <time>2022-09-25T12:22:35Z</time>
      </trkpt>
      <trkpt lat="44.54066" lon="1.44641">
        <ele>269.9</ele>
        <time>2022-09-25T12:22:42Z</time>
      </trkpt>
      <trkpt lat="44.54068" lon="1.44648">
        <ele>270.5</ele>
        <time>2022-09-25T12:22:49Z</time>
      </trkpt>
      <trkpt lat="44.54069" lon="1.44655">
        <ele>272.9</ele>
        <time>2022-09-25T12:23:08Z</time>
      </trkpt>
      <trkpt lat="44.54071" lon="1.44661">
        <ele>274</ele>
        <time>2022-09-25T12:23:14Z</time>
      </trkpt>
      <trkpt lat="44.54073" lon="1.44668">
        <ele>275.2</ele>
        <time>2022-09-25T12:23:22Z</time>
      </trkpt>
      <trkpt lat="44.54072" lon="1.44674">
        <ele>277.2</ele>
        <time>2022-09-25T12:23:30Z</time>
      </trkpt>
      <trkpt lat="44.54073" lon="1.4468">
        <ele>278.2</ele>
        <time>2022-09-25T12:23:38Z</time>
      </trkpt>
      <trkpt lat="44.54074" lon="1.44686">
        <ele>279.4</ele>
        <time>2022-09-25T12:23:44Z</time>
      </trkpt>
      <trkpt lat="44.54076" lon="1.44693">
        <ele>281.4</ele>
        <time>2022-09-25T12:23:51Z</time>
      </trkpt>
      <trkpt lat="44.54077" lon="1.44699">
        <ele>282.1</ele>
        <time>2022-09-25T12:23:59Z</time>
      </trkpt>
      <trkpt lat="44.54078" lon="1.44706">
        <ele>282.2</ele>
        <time>2022-09-25T12:24:07Z</time>
      </trkpt>
      <trkpt lat="44.54079" lon="1.44713">
        <ele>282.6</ele>
        <time>2022-09-25T12:24:22Z</time>
      </trkpt>
      <trkpt lat="44.5408" lon="1.44719">
        <ele>284.2</ele>
        <time>2022-09-25T12:24:30Z</time>
      </trkpt>
      <trkpt lat="44.5408" lon="1.44726">
        <ele>286.6</ele>
        <time>2022-09-25T12:24:43Z</time>
      </trkpt>
      <trkpt lat="44.54077" lon="1.4473">
        <ele>287.7</ele>
        <time>2022-09-25T12:24:54Z</time>
      </trkpt>
      <trkpt lat="44.54078" lon="1.44737">
        <ele>288.3</ele>
        <time>2022-09-25T12:25:10Z</time>
      </trkpt>
      <trkpt lat="44.54079" lon="1.44743">
        <ele>289.4</ele>
        <time>2022-09-25T12:25:18Z</time>
      </trkpt>
      <trkpt lat="44.5408" lon="1.4475">
        <ele>290</ele>
        <time>2022-09-25T12:25:26Z</time>
      </trkpt>
      <trkpt lat="44.54079" lon="1.44756">
        <ele>290.3</ele>
        <time>2022-09-25T12:25:38Z</time>
      </trkpt>
      <trkpt lat="44.54078" lon="1.44763">
        <ele>290.4</ele>
        <time>2022-09-25T12:25:48Z</time>
      </trkpt>
      <trkpt lat="44.54074" lon="1.44766">
        <ele>291</ele>
        <time>2022-09-25T12:25:51Z</time>
      </trkpt>
      <trkpt lat="44.54074" lon="1.44772">
        <ele>292</ele>
        <time>2022-09-25T12:25:58Z</time>
      </trkpt>
      <trkpt lat="44.54072" lon="1.44779">
        <ele>295</ele>
        <time>2022-09-25T12:26:17Z</time>
      </trkpt>
      <trkpt lat="44.54068" lon="1.44784">
        <ele>296</ele>
        <time>2022-09-25T12:26:28Z</time>
      </trkpt>
      <trkpt lat="44.54066" lon="1.4479">
        <ele>296.2</ele>
        <time>2022-09-25T12:26:33Z</time>
      </trkpt>
      <trkpt lat="44.54066" lon="1.44796">
        <ele>296.8</ele>
        <time>2022-09-25T12:26:38Z</time>
      </trkpt>
      <trkpt lat="44.54067" lon="1.44802">
        <ele>298.2</ele>
        <time>2022-09-25T12:26:44Z</time>
      </trkpt>
      <trkpt lat="44.54072" lon="1.44802">
        <ele>297.8</ele>
        <time>2022-09-25T12:26:54Z</time>
      </trkpt>
      <trkpt lat="44.54077" lon="1.44801">
        <ele>298.1</ele>
        <time>2022-09-25T12:27:03Z</time>
      </trkpt>
      <trkpt lat="44.5408" lon="1.44805">
        <ele>299.5</ele>
        <time>2022-09-25T12:27:11Z</time>
      </trkpt>
      <trkpt lat="44.54079" lon="1.44811">
        <ele>300</ele>
        <time>2022-09-25T12:27:17Z</time>
      </trkpt>
      <trkpt lat="44.54082" lon="1.44815">
        <ele>301.3</ele>
        <time>2022-09-25T12:27:23Z</time>
      </trkpt>
      <trkpt lat="44.54086" lon="1.44818">
        <ele>303.5</ele>
        <time>2022-09-25T12:27:29Z</time>
      </trkpt>
      <trkpt lat="44.54088" lon="1.44825">
        <ele>304.4</ele>
        <time>2022-09-25T12:27:37Z</time>
      </trkpt>
      <trkpt lat="44.54089" lon="1.44831">
        <ele>305</ele>
        <time>2022-09-25T12:27:46Z</time>
      </trkpt>
      <trkpt lat="44.5409" lon="1.44837">
        <ele>305.1</ele>
        <time>2022-09-25T12:27:52Z</time>
      </trkpt>
      <trkpt lat="44.54092" lon="1.44843">
        <ele>305.4</ele>
        <time>2022-09-25T12:27:58Z</time>
      </trkpt>
      <trkpt lat="44.54093" lon="1.4485">
        <ele>305.3</ele>
        <time>2022-09-25T12:28:09Z</time>
      </trkpt>
      <trkpt lat="44.54096" lon="1.44855">
        <ele>304.8</ele>
        <time>2022-09-25T12:31:08Z</time>
      </trkpt>
      <trkpt lat="44.54098" lon="1.4486">
        <ele>303.8</ele>
        <time>2022-09-25T12:31:15Z</time>
      </trkpt>
      <trkpt lat="44.54101" lon="1.44866">
        <ele>303.6</ele>
        <time>2022-09-25T12:31:22Z</time>
      </trkpt>
      <trkpt lat="44.54104" lon="1.44871">
        <ele>303.7</ele>
        <time>2022-09-25T12:31:29Z</time>
      </trkpt>
      <trkpt lat="44.54107" lon="1.44876">
        <ele>303.6</ele>
        <time>2022-09-25T12:31:35Z</time>
      </trkpt>
      <trkpt lat="44.54111" lon="1.4488">
        <ele>304.2</ele>
        <time>2022-09-25T12:31:40Z</time>
      </trkpt>
      <trkpt lat="44.54115" lon="1.44883">
        <ele>305</ele>
        <time>2022-09-25T12:31:46Z</time>
      </trkpt>
      <trkpt lat="44.54119" lon="1.44888">
        <ele>305.4</ele>
        <time>2022-09-25T12:31:52Z</time>
      </trkpt>
      <trkpt lat="44.54124" lon="1.44892">
        <ele>305.4</ele>
        <time>2022-09-25T12:31:57Z</time>
      </trkpt>
      <trkpt lat="44.54128" lon="1.44895">
        <ele>305.5</ele>
        <time>2022-09-25T12:32:02Z</time>
      </trkpt>
      <trkpt lat="44.5413" lon="1.44902">
        <ele>305.1</ele>
        <time>2022-09-25T12:32:07Z</time>
      </trkpt>
      <trkpt lat="44.54133" lon="1.44908">
        <ele>304.9</ele>
        <time>2022-09-25T12:32:12Z</time>
      </trkpt>
      <trkpt lat="44.54136" lon="1.44914">
        <ele>305.2</ele>
        <time>2022-09-25T12:32:17Z</time>
      </trkpt>
      <trkpt lat="44.5414" lon="1.44919">
        <ele>305.2</ele>
        <time>2022-09-25T12:32:23Z</time>
      </trkpt>
      <trkpt lat="44.54144" lon="1.44923">
        <ele>305.3</ele>
        <time>2022-09-25T12:32:28Z</time>
      </trkpt>
      <trkpt lat="44.54147" lon="1.44927">
        <ele>305.6</ele>
        <time>2022-09-25T12:32:33Z</time>
      </trkpt>
      <trkpt lat="44.54151" lon="1.44931">
        <ele>305.6</ele>
        <time>2022-09-25T12:32:38Z</time>
      </trkpt>
      <trkpt lat="44.54155" lon="1.44935">
        <ele>306.1</ele>
        <time>2022-09-25T12:32:43Z</time>
      </trkpt>
      <trkpt lat="44.54159" lon="1.44938">
        <ele>307</ele>
        <time>2022-09-25T12:32:49Z</time>
      </trkpt>
      <trkpt lat="44.54164" lon="1.44942">
        <ele>308.2</ele>
        <time>2022-09-25T12:32:55Z</time>
      </trkpt>
      <trkpt lat="44.54169" lon="1.44943">
        <ele>308.5</ele>
        <time>2022-09-25T12:32:59Z</time>
      </trkpt>
      <trkpt lat="44.54174" lon="1.44944">
        <ele>308.4</ele>
        <time>2022-09-25T12:33:04Z</time>
      </trkpt>
      <trkpt lat="44.54179" lon="1.44949">
        <ele>308.8</ele>
        <time>2022-09-25T12:33:09Z</time>
      </trkpt>
      <trkpt lat="44.54183" lon="1.44951">
        <ele>308.6</ele>
        <time>2022-09-25T12:33:14Z</time>
      </trkpt>
      <trkpt lat="44.54188" lon="1.4495">
        <ele>305.7</ele>
        <time>2022-09-25T12:33:22Z</time>
      </trkpt>
      <trkpt lat="44.54191" lon="1.44945">
        <ele>305.8</ele>
        <time>2022-09-25T12:35:24Z</time>
      </trkpt>
      <trkpt lat="44.54193" lon="1.44939">
        <ele>305.5</ele>
        <time>2022-09-25T12:35:32Z</time>
      </trkpt>
      <trkpt lat="44.54197" lon="1.44936">
        <ele>305.3</ele>
        <time>2022-09-25T12:35:40Z</time>
      </trkpt>
      <trkpt lat="44.542" lon="1.44931">
        <ele>306.6</ele>
        <time>2022-09-25T12:35:47Z</time>
      </trkpt>
      <trkpt lat="44.54201" lon="1.44925">
        <ele>308.5</ele>
        <time>2022-09-25T12:35:55Z</time>
      </trkpt>
      <trkpt lat="44.54202" lon="1.44917">
        <ele>310.1</ele>
        <time>2022-09-25T12:36:02Z</time>
      </trkpt>
      <trkpt lat="44.54205" lon="1.44913">
        <ele>310.6</ele>
        <time>2022-09-25T12:36:07Z</time>
      </trkpt>
      <trkpt lat="44.54209" lon="1.44909">
        <ele>311.2</ele>
        <time>2022-09-25T12:36:13Z</time>
      </trkpt>
      <trkpt lat="44.54212" lon="1.44904">
        <ele>311.3</ele>
        <time>2022-09-25T12:36:19Z</time>
      </trkpt>
      <trkpt lat="44.54216" lon="1.44899">
        <ele>311.8</ele>
        <time>2022-09-25T12:36:25Z</time>
      </trkpt>
      <trkpt lat="44.54219" lon="1.44894">
        <ele>312.5</ele>
        <time>2022-09-25T12:36:31Z</time>
      </trkpt>
      <trkpt lat="44.54222" lon="1.44889">
        <ele>312.6</ele>
        <time>2022-09-25T12:36:37Z</time>
      </trkpt>
      <trkpt lat="44.54225" lon="1.44883">
        <ele>312.1</ele>
        <time>2022-09-25T12:36:42Z</time>
      </trkpt>
      <trkpt lat="44.54228" lon="1.44878">
        <ele>311.9</ele>
        <time>2022-09-25T12:36:47Z</time>
      </trkpt>
      <trkpt lat="44.5423" lon="1.44872">
        <ele>311.6</ele>
        <time>2022-09-25T12:36:53Z</time>
      </trkpt>
      <trkpt lat="44.54234" lon="1.44867">
        <ele>311.1</ele>
        <time>2022-09-25T12:36:59Z</time>
      </trkpt>
      <trkpt lat="44.54236" lon="1.44861">
        <ele>311</ele>
        <time>2022-09-25T12:37:05Z</time>
      </trkpt>
      <trkpt lat="44.54239" lon="1.44856">
        <ele>311.4</ele>
        <time>2022-09-25T12:37:11Z</time>
      </trkpt>
      <trkpt lat="44.54242" lon="1.44851">
        <ele>311.4</ele>
        <time>2022-09-25T12:37:18Z</time>
      </trkpt>
      <trkpt lat="44.54246" lon="1.44846">
        <ele>311.2</ele>
        <time>2022-09-25T12:37:25Z</time>
      </trkpt>
      <trkpt lat="44.5425" lon="1.44844">
        <ele>311.3</ele>
        <time>2022-09-25T12:37:31Z</time>
      </trkpt>
      <trkpt lat="44.54255" lon="1.44844">
        <ele>310.8</ele>
        <time>2022-09-25T12:37:37Z</time>
      </trkpt>
      <trkpt lat="44.5426" lon="1.44845">
        <ele>310</ele>
        <time>2022-09-25T12:37:43Z</time>
      </trkpt>
      <trkpt lat="44.54265" lon="1.44845">
        <ele>309.6</ele>
        <time>2022-09-25T12:37:49Z</time>
      </trkpt>
      <trkpt lat="44.5427" lon="1.44844">
        <ele>309.2</ele>
        <time>2022-09-25T12:37:55Z</time>
      </trkpt>
      <trkpt lat="44.54275" lon="1.44843">
        <ele>308.8</ele>
        <time>2022-09-25T12:38:01Z</time>
      </trkpt>
      <trkpt lat="44.5428" lon="1.44841">
        <ele>308.4</ele>
        <time>2022-09-25T12:38:07Z</time>
      </trkpt>
      <trkpt lat="44.54285" lon="1.4484">
        <ele>307.3</ele>
        <time>2022-09-25T12:38:13Z</time>
      </trkpt>
      <trkpt lat="44.54289" lon="1.44838">
        <ele>306.4</ele>
        <time>2022-09-25T12:38:19Z</time>
      </trkpt>
      <trkpt lat="44.54293" lon="1.44834">
        <ele>307</ele>
        <time>2022-09-25T12:38:25Z</time>
      </trkpt>
      <trkpt lat="44.54298" lon="1.44833">
        <ele>307</ele>
        <time>2022-09-25T12:38:31Z</time>
      </trkpt>
      <trkpt lat="44.54302" lon="1.44837">
        <ele>307.3</ele>
        <time>2022-09-25T12:38:37Z</time>
      </trkpt>
      <trkpt lat="44.54307" lon="1.44842">
        <ele>307.6</ele>
        <time>2022-09-25T12:38:43Z</time>
      </trkpt>
      <trkpt lat="44.54311" lon="1.44841">
        <ele>306.5</ele>
        <time>2022-09-25T12:38:50Z</time>
      </trkpt>
      <trkpt lat="44.54314" lon="1.44835">
        <ele>306.1</ele>
        <time>2022-09-25T12:38:57Z</time>
      </trkpt>
      <trkpt lat="44.54316" lon="1.44829">
        <ele>305.6</ele>
        <time>2022-09-25T12:39:04Z</time>
      </trkpt>
      <trkpt lat="44.54317" lon="1.44822">
        <ele>305.4</ele>
        <time>2022-09-25T12:39:10Z</time>
      </trkpt>
      <trkpt lat="44.54316" lon="1.44815">
        <ele>305.5</ele>
        <time>2022-09-25T12:39:17Z</time>
      </trkpt>
      <trkpt lat="44.54317" lon="1.44808">
        <ele>305.5</ele>
        <time>2022-09-25T12:39:23Z</time>
      </trkpt>
      <trkpt lat="44.54318" lon="1.44801">
        <ele>305.5</ele>
        <time>2022-09-25T12:39:28Z</time>
      </trkpt>
      <trkpt lat="44.54319" lon="1.44794">
        <ele>306.1</ele>
        <time>2022-09-25T12:39:33Z</time>
      </trkpt>
      <trkpt lat="44.54319" lon="1.44788">
        <ele>306.3</ele>
        <time>2022-09-25T12:39:38Z</time>
      </trkpt>
      <trkpt lat="44.54319" lon="1.4478">
        <ele>306.1</ele>
        <time>2022-09-25T12:39:45Z</time>
      </trkpt>
      <trkpt lat="44.54318" lon="1.44774">
        <ele>306.2</ele>
        <time>2022-09-25T12:39:51Z</time>
      </trkpt>
      <trkpt lat="44.54315" lon="1.44769">
        <ele>305.7</ele>
        <time>2022-09-25T12:39:57Z</time>
      </trkpt>
      <trkpt lat="44.5431" lon="1.44768">
        <ele>306.1</ele>
        <time>2022-09-25T12:40:03Z</time>
      </trkpt>
      <trkpt lat="44.54305" lon="1.44768">
        <ele>307.8</ele>
        <time>2022-09-25T12:40:11Z</time>
      </trkpt>
      <trkpt lat="44.543" lon="1.44769">
        <ele>308.4</ele>
        <time>2022-09-25T12:40:16Z</time>
      </trkpt>
      <trkpt lat="44.54295" lon="1.44768">
        <ele>308.3</ele>
        <time>2022-09-25T12:40:22Z</time>
      </trkpt>
      <trkpt lat="44.54291" lon="1.44766">
        <ele>308.2</ele>
        <time>2022-09-25T12:40:27Z</time>
      </trkpt>
      <trkpt lat="44.54286" lon="1.44765">
        <ele>308.5</ele>
        <time>2022-09-25T12:40:33Z</time>
      </trkpt>
      <trkpt lat="44.54281" lon="1.44765">
        <ele>309.5</ele>
        <time>2022-09-25T12:40:39Z</time>
      </trkpt>
      <trkpt lat="44.54276" lon="1.44763">
        <ele>309.5</ele>
        <time>2022-09-25T12:40:45Z</time>
      </trkpt>
      <trkpt lat="44.54274" lon="1.44757">
        <ele>308.8</ele>
        <time>2022-09-25T12:40:49Z</time>
      </trkpt>
      <trkpt lat="44.54276" lon="1.44749">
        <ele>307.8</ele>
        <time>2022-09-25T12:40:55Z</time>
      </trkpt>
      <trkpt lat="44.54274" lon="1.44742">
        <ele>307.3</ele>
        <time>2022-09-25T12:41:00Z</time>
      </trkpt>
      <trkpt lat="44.54275" lon="1.44735">
        <ele>307</ele>
        <time>2022-09-25T12:41:06Z</time>
      </trkpt>
      <trkpt lat="44.54277" lon="1.44729">
        <ele>307.1</ele>
        <time>2022-09-25T12:41:11Z</time>
      </trkpt>
      <trkpt lat="44.5428" lon="1.44724">
        <ele>307.1</ele>
        <time>2022-09-25T12:41:17Z</time>
      </trkpt>
      <trkpt lat="44.54283" lon="1.44719">
        <ele>306.6</ele>
        <time>2022-09-25T12:41:22Z</time>
      </trkpt>
      <trkpt lat="44.54284" lon="1.44712">
        <ele>305.8</ele>
        <time>2022-09-25T12:41:28Z</time>
      </trkpt>
      <trkpt lat="44.54283" lon="1.44705">
        <ele>305.4</ele>
        <time>2022-09-25T12:41:37Z</time>
      </trkpt>
      <trkpt lat="44.54283" lon="1.44699">
        <ele>305</ele>
        <time>2022-09-25T12:41:44Z</time>
      </trkpt>
      <trkpt lat="44.54286" lon="1.44693">
        <ele>303.7</ele>
        <time>2022-09-25T12:41:50Z</time>
      </trkpt>
      <trkpt lat="44.5429" lon="1.44688">
        <ele>301.2</ele>
        <time>2022-09-25T12:41:57Z</time>
      </trkpt>
      <trkpt lat="44.54293" lon="1.44684">
        <ele>300.4</ele>
        <time>2022-09-25T12:42:02Z</time>
      </trkpt>
      <trkpt lat="44.54298" lon="1.4468">
        <ele>299.3</ele>
        <time>2022-09-25T12:42:07Z</time>
      </trkpt>
      <trkpt lat="44.54302" lon="1.44676">
        <ele>298.2</ele>
        <time>2022-09-25T12:42:13Z</time>
      </trkpt>
      <trkpt lat="44.54306" lon="1.44672">
        <ele>297.2</ele>
        <time>2022-09-25T12:42:19Z</time>
      </trkpt>
      <trkpt lat="44.54309" lon="1.44667">
        <ele>296.2</ele>
        <time>2022-09-25T12:42:26Z</time>
      </trkpt>
      <trkpt lat="44.54312" lon="1.44662">
        <ele>294.7</ele>
        <time>2022-09-25T12:42:33Z</time>
      </trkpt>
      <trkpt lat="44.54314" lon="1.44656">
        <ele>293.6</ele>
        <time>2022-09-25T12:42:39Z</time>
      </trkpt>
      <trkpt lat="44.54316" lon="1.4465">
        <ele>290.8</ele>
        <time>2022-09-25T12:42:47Z</time>
      </trkpt>
      <trkpt lat="44.54319" lon="1.44644">
        <ele>289</ele>
        <time>2022-09-25T12:42:54Z</time>
      </trkpt>
      <trkpt lat="44.54321" lon="1.44639">
        <ele>287.7</ele>
        <time>2022-09-25T12:43:00Z</time>
      </trkpt>
      <trkpt lat="44.54324" lon="1.44634">
        <ele>286</ele>
        <time>2022-09-25T12:43:08Z</time>
      </trkpt>
      <trkpt lat="44.54326" lon="1.44628">
        <ele>283.5</ele>
        <time>2022-09-25T12:43:16Z</time>
      </trkpt>
      <trkpt lat="44.54329" lon="1.44622">
        <ele>281.3</ele>
        <time>2022-09-25T12:43:24Z</time>
      </trkpt>
      <trkpt lat="44.54332" lon="1.44616">
        <ele>280.3</ele>
        <time>2022-09-25T12:43:31Z</time>
      </trkpt>
      <trkpt lat="44.54336" lon="1.4461">
        <ele>279.4</ele>
        <time>2022-09-25T12:43:37Z</time>
      </trkpt>
      <trkpt lat="44.54339" lon="1.44605">
        <ele>279.7</ele>
        <time>2022-09-25T12:43:43Z</time>
      </trkpt>
      <trkpt lat="44.54342" lon="1.446">
        <ele>279.7</ele>
        <time>2022-09-25T12:43:50Z</time>
      </trkpt>
      <trkpt lat="44.54345" lon="1.44594">
        <ele>279.7</ele>
        <time>2022-09-25T12:43:56Z</time>
      </trkpt>
      <trkpt lat="44.54348" lon="1.44588">
        <ele>279.5</ele>
        <time>2022-09-25T12:44:03Z</time>
      </trkpt>
      <trkpt lat="44.54349" lon="1.44582">
        <ele>279.6</ele>
        <time>2022-09-25T12:44:09Z</time>
      </trkpt>
      <trkpt lat="44.54352" lon="1.44576">
        <ele>279.2</ele>
        <time>2022-09-25T12:44:15Z</time>
      </trkpt>
      <trkpt lat="44.54354" lon="1.44569">
        <ele>278.8</ele>
        <time>2022-09-25T12:44:21Z</time>
      </trkpt>
      <trkpt lat="44.54356" lon="1.44564">
        <ele>277.5</ele>
        <time>2022-09-25T12:44:27Z</time>
      </trkpt>
      <trkpt lat="44.54359" lon="1.44558">
        <ele>276.1</ele>
        <time>2022-09-25T12:44:33Z</time>
      </trkpt>
      <trkpt lat="44.54362" lon="1.44553">
        <ele>275.1</ele>
        <time>2022-09-25T12:44:39Z</time>
      </trkpt>
      <trkpt lat="44.54365" lon="1.44547">
        <ele>274.3</ele>
        <time>2022-09-25T12:44:45Z</time>
      </trkpt>
      <trkpt lat="44.54368" lon="1.44541">
        <ele>272.8</ele>
        <time>2022-09-25T12:44:52Z</time>
      </trkpt>
      <trkpt lat="44.5437" lon="1.44535">
        <ele>271.2</ele>
        <time>2022-09-25T12:44:58Z</time>
      </trkpt>
      <trkpt lat="44.54373" lon="1.4453">
        <ele>269.7</ele>
        <time>2022-09-25T12:45:04Z</time>
      </trkpt>
      <trkpt lat="44.54375" lon="1.44524">
        <ele>269.3</ele>
        <time>2022-09-25T12:45:10Z</time>
      </trkpt>
      <trkpt lat="44.54378" lon="1.44519">
        <ele>268.3</ele>
        <time>2022-09-25T12:45:17Z</time>
      </trkpt>
      <trkpt lat="44.54381" lon="1.44513">
        <ele>266.7</ele>
        <time>2022-09-25T12:45:24Z</time>
      </trkpt>
      <trkpt lat="44.54384" lon="1.44507">
        <ele>264.9</ele>
        <time>2022-09-25T12:45:31Z</time>
      </trkpt>
      <trkpt lat="44.54387" lon="1.44502">
        <ele>263.2</ele>
        <time>2022-09-25T12:45:37Z</time>
      </trkpt>
      <trkpt lat="44.54391" lon="1.44497">
        <ele>261.8</ele>
        <time>2022-09-25T12:45:44Z</time>
      </trkpt>
      <trkpt lat="44.54393" lon="1.44491">
        <ele>261.3</ele>
        <time>2022-09-25T12:45:50Z</time>
      </trkpt>
      <trkpt lat="44.54396" lon="1.44485">
        <ele>260.2</ele>
        <time>2022-09-25T12:45:57Z</time>
      </trkpt>
      <trkpt lat="44.54398" lon="1.4448">
        <ele>259.5</ele>
        <time>2022-09-25T12:46:03Z</time>
      </trkpt>
      <trkpt lat="44.54401" lon="1.44474">
        <ele>258.5</ele>
        <time>2022-09-25T12:46:08Z</time>
      </trkpt>
      <trkpt lat="44.54404" lon="1.4447">
        <ele>257</ele>
        <time>2022-09-25T12:46:14Z</time>
      </trkpt>
      <trkpt lat="44.54409" lon="1.44466">
        <ele>255.9</ele>
        <time>2022-09-25T12:46:20Z</time>
      </trkpt>
      <trkpt lat="44.54413" lon="1.44463">
        <ele>255.1</ele>
        <time>2022-09-25T12:46:26Z</time>
      </trkpt>
      <trkpt lat="44.54418" lon="1.44462">
        <ele>254.3</ele>
        <time>2022-09-25T12:46:32Z</time>
      </trkpt>
      <trkpt lat="44.54423" lon="1.4446">
        <ele>253.3</ele>
        <time>2022-09-25T12:46:39Z</time>
      </trkpt>
      <trkpt lat="44.54427" lon="1.44457">
        <ele>251.8</ele>
        <time>2022-09-25T12:46:46Z</time>
      </trkpt>
      <trkpt lat="44.54431" lon="1.44453">
        <ele>250.5</ele>
        <time>2022-09-25T12:46:53Z</time>
      </trkpt>
      <trkpt lat="44.54434" lon="1.44448">
        <ele>249.6</ele>
        <time>2022-09-25T12:47:00Z</time>
      </trkpt>
      <trkpt lat="44.54438" lon="1.44445">
        <ele>248.8</ele>
        <time>2022-09-25T12:47:07Z</time>
      </trkpt>
      <trkpt lat="44.54442" lon="1.4444">
        <ele>247.3</ele>
        <time>2022-09-25T12:47:14Z</time>
      </trkpt>
      <trkpt lat="44.54446" lon="1.44435">
        <ele>246.3</ele>
        <time>2022-09-25T12:47:21Z</time>
      </trkpt>
      <trkpt lat="44.5445" lon="1.44433">
        <ele>245.4</ele>
        <time>2022-09-25T12:47:27Z</time>
      </trkpt>
      <trkpt lat="44.54455" lon="1.44432">
        <ele>244.6</ele>
        <time>2022-09-25T12:47:33Z</time>
      </trkpt>
      <trkpt lat="44.5446" lon="1.44431">
        <ele>243.3</ele>
        <time>2022-09-25T12:47:40Z</time>
      </trkpt>
      <trkpt lat="44.54465" lon="1.44429">
        <ele>242.7</ele>
        <time>2022-09-25T12:47:46Z</time>
      </trkpt>
      <trkpt lat="44.5447" lon="1.44427">
        <ele>241.9</ele>
        <time>2022-09-25T12:47:52Z</time>
      </trkpt>
      <trkpt lat="44.54475" lon="1.44425">
        <ele>241</ele>
        <time>2022-09-25T12:47:58Z</time>
      </trkpt>
      <trkpt lat="44.5448" lon="1.44422">
        <ele>239.9</ele>
        <time>2022-09-25T12:48:04Z</time>
      </trkpt>
      <trkpt lat="44.54485" lon="1.4442">
        <ele>238.7</ele>
        <time>2022-09-25T12:48:11Z</time>
      </trkpt>
      <trkpt lat="44.54489" lon="1.44418">
        <ele>237.5</ele>
        <time>2022-09-25T12:48:17Z</time>
      </trkpt>
      <trkpt lat="44.54494" lon="1.44415">
        <ele>236.6</ele>
        <time>2022-09-25T12:48:23Z</time>
      </trkpt>
      <trkpt lat="44.54499" lon="1.44413">
        <ele>235.5</ele>
        <time>2022-09-25T12:48:29Z</time>
      </trkpt>
      <trkpt lat="44.54504" lon="1.44412">
        <ele>234.7</ele>
        <time>2022-09-25T12:48:35Z</time>
      </trkpt>
      <trkpt lat="44.54509" lon="1.44409">
        <ele>234.2</ele>
        <time>2022-09-25T12:48:41Z</time>
      </trkpt>
      <trkpt lat="44.54514" lon="1.44408">
        <ele>233.4</ele>
        <time>2022-09-25T12:48:47Z</time>
      </trkpt>
      <trkpt lat="44.54518" lon="1.44405">
        <ele>232.3</ele>
        <time>2022-09-25T12:48:53Z</time>
      </trkpt>
      <trkpt lat="44.54523" lon="1.44402">
        <ele>230.9</ele>
        <time>2022-09-25T12:48:59Z</time>
      </trkpt>
      <trkpt lat="44.54528" lon="1.44399">
        <ele>229.7</ele>
        <time>2022-09-25T12:49:05Z</time>
      </trkpt>
      <trkpt lat="44.54532" lon="1.44396">
        <ele>228.3</ele>
        <time>2022-09-25T12:49:11Z</time>
      </trkpt>
      <trkpt lat="44.54537" lon="1.44392">
        <ele>227.3</ele>
        <time>2022-09-25T12:49:17Z</time>
      </trkpt>
      <trkpt lat="44.54541" lon="1.44388">
        <ele>226.4</ele>
        <time>2022-09-25T12:49:23Z</time>
      </trkpt>
      <trkpt lat="44.54545" lon="1.44384">
        <ele>225.4</ele>
        <time>2022-09-25T12:49:29Z</time>
      </trkpt>
      <trkpt lat="44.54549" lon="1.44381">
        <ele>224.9</ele>
        <time>2022-09-25T12:49:34Z</time>
      </trkpt>
      <trkpt lat="44.54554" lon="1.44378">
        <ele>224.5</ele>
        <time>2022-09-25T12:49:40Z</time>
      </trkpt>
      <trkpt lat="44.54558" lon="1.44374">
        <ele>224.5</ele>
        <time>2022-09-25T12:49:45Z</time>
      </trkpt>
      <trkpt lat="44.54562" lon="1.4437">
        <ele>224.2</ele>
        <time>2022-09-25T12:49:51Z</time>
      </trkpt>
      <trkpt lat="44.54566" lon="1.44365">
        <ele>223.5</ele>
        <time>2022-09-25T12:49:57Z</time>
      </trkpt>
      <trkpt lat="44.5457" lon="1.44361">
        <ele>222</ele>
        <time>2022-09-25T12:50:03Z</time>
      </trkpt>
      <trkpt lat="44.54574" lon="1.44356">
        <ele>221.6</ele>
        <time>2022-09-25T12:50:09Z</time>
      </trkpt>
      <trkpt lat="44.54577" lon="1.44352">
        <ele>221</ele>
        <time>2022-09-25T12:50:14Z</time>
      </trkpt>
      <trkpt lat="44.54581" lon="1.44347">
        <ele>220.6</ele>
        <time>2022-09-25T12:50:20Z</time>
      </trkpt>
      <trkpt lat="44.54584" lon="1.44342">
        <ele>220.4</ele>
        <time>2022-09-25T12:50:25Z</time>
      </trkpt>
      <trkpt lat="44.54588" lon="1.44338">
        <ele>220.4</ele>
        <time>2022-09-25T12:50:30Z</time>
      </trkpt>
      <trkpt lat="44.54592" lon="1.44335">
        <ele>220.1</ele>
        <time>2022-09-25T12:50:36Z</time>
      </trkpt>
      <trkpt lat="44.54597" lon="1.44331">
        <ele>219.3</ele>
        <time>2022-09-25T12:50:42Z</time>
      </trkpt>
      <trkpt lat="44.54601" lon="1.44327">
        <ele>218.1</ele>
        <time>2022-09-25T12:50:48Z</time>
      </trkpt>
      <trkpt lat="44.54605" lon="1.44323">
        <ele>216.6</ele>
        <time>2022-09-25T12:50:54Z</time>
      </trkpt>
      <trkpt lat="44.54609" lon="1.44321">
        <ele>216</ele>
        <time>2022-09-25T12:51:00Z</time>
      </trkpt>
      <trkpt lat="44.54614" lon="1.44319">
        <ele>215.7</ele>
        <time>2022-09-25T12:51:06Z</time>
      </trkpt>
      <trkpt lat="44.54618" lon="1.44319">
        <ele>215.7</ele>
        <time>2022-09-25T12:51:12Z</time>
      </trkpt>
      <trkpt lat="44.54617" lon="1.44313">
        <ele>213.4</ele>
        <time>2022-09-25T12:53:26Z</time>
      </trkpt>
      <trkpt lat="44.54617" lon="1.44305">
        <ele>211.7</ele>
        <time>2022-09-25T12:53:32Z</time>
      </trkpt>
      <trkpt lat="44.54619" lon="1.44298">
        <ele>209.8</ele>
        <time>2022-09-25T12:53:39Z</time>
      </trkpt>
      <trkpt lat="44.5462" lon="1.44291">
        <ele>208.5</ele>
        <time>2022-09-25T12:53:46Z</time>
      </trkpt>
      <trkpt lat="44.54621" lon="1.44285">
        <ele>208.3</ele>
        <time>2022-09-25T12:53:52Z</time>
      </trkpt>
      <trkpt lat="44.54622" lon="1.44278">
        <ele>208.6</ele>
        <time>2022-09-25T12:53:58Z</time>
      </trkpt>
      <trkpt lat="44.54623" lon="1.44272">
        <ele>208.5</ele>
        <time>2022-09-25T12:54:04Z</time>
      </trkpt>
      <trkpt lat="44.54625" lon="1.44266">
        <ele>208.7</ele>
        <time>2022-09-25T12:54:09Z</time>
      </trkpt>
      <trkpt lat="44.54626" lon="1.44259">
        <ele>208.6</ele>
        <time>2022-09-25T12:54:14Z</time>
      </trkpt>
      <trkpt lat="44.54628" lon="1.44253">
        <ele>208.3</ele>
        <time>2022-09-25T12:54:19Z</time>
      </trkpt>
      <trkpt lat="44.5463" lon="1.44248">
        <ele>208.2</ele>
        <time>2022-09-25T12:54:24Z</time>
      </trkpt>
      <trkpt lat="44.54632" lon="1.44241">
        <ele>208.2</ele>
        <time>2022-09-25T12:54:30Z</time>
      </trkpt>
      <trkpt lat="44.54633" lon="1.44234">
        <ele>208.4</ele>
        <time>2022-09-25T12:54:35Z</time>
      </trkpt>
      <trkpt lat="44.54632" lon="1.44227">
        <ele>209.4</ele>
        <time>2022-09-25T12:54:40Z</time>
      </trkpt>
      <trkpt lat="44.54632" lon="1.44221">
        <ele>209.9</ele>
        <time>2022-09-25T12:54:45Z</time>
      </trkpt>
      <trkpt lat="44.54632" lon="1.44213">
        <ele>210</ele>
        <time>2022-09-25T12:54:50Z</time>
      </trkpt>
      <trkpt lat="44.54635" lon="1.44207">
        <ele>209</ele>
        <time>2022-09-25T12:54:55Z</time>
      </trkpt>
      <trkpt lat="44.54639" lon="1.44203">
        <ele>208.3</ele>
        <time>2022-09-25T12:55:00Z</time>
      </trkpt>
      <trkpt lat="44.54644" lon="1.44199">
        <ele>209.2</ele>
        <time>2022-09-25T12:55:05Z</time>
      </trkpt>
      <trkpt lat="44.54649" lon="1.44198">
        <ele>209.8</ele>
        <time>2022-09-25T12:55:10Z</time>
      </trkpt>
      <trkpt lat="44.54654" lon="1.44197">
        <ele>210</ele>
        <time>2022-09-25T12:55:15Z</time>
      </trkpt>
      <trkpt lat="44.54659" lon="1.44196">
        <ele>209.9</ele>
        <time>2022-09-25T12:55:20Z</time>
      </trkpt>
      <trkpt lat="44.54664" lon="1.44194">
        <ele>210.1</ele>
        <time>2022-09-25T12:55:25Z</time>
      </trkpt>
      <trkpt lat="44.54669" lon="1.44193">
        <ele>210.4</ele>
        <time>2022-09-25T12:55:30Z</time>
      </trkpt>
      <trkpt lat="44.54674" lon="1.44192">
        <ele>210.8</ele>
        <time>2022-09-25T12:55:35Z</time>
      </trkpt>
      <trkpt lat="44.54679" lon="1.4419">
        <ele>210.8</ele>
        <time>2022-09-25T12:55:40Z</time>
      </trkpt>
      <trkpt lat="44.54683" lon="1.44188">
        <ele>210.8</ele>
        <time>2022-09-25T12:55:45Z</time>
      </trkpt>
      <trkpt lat="44.54688" lon="1.44185">
        <ele>211</ele>
        <time>2022-09-25T12:55:50Z</time>
      </trkpt>
      <trkpt lat="44.54693" lon="1.44187">
        <ele>211.8</ele>
        <time>2022-09-25T12:55:56Z</time>
      </trkpt>
      <trkpt lat="44.54693" lon="1.44194">
        <ele>212.2</ele>
        <time>2022-09-25T12:56:01Z</time>
      </trkpt>
      <trkpt lat="44.54693" lon="1.44201">
        <ele>212.8</ele>
        <time>2022-09-25T12:56:06Z</time>
      </trkpt>
      <trkpt lat="44.54693" lon="1.44207">
        <ele>212.7</ele>
        <time>2022-09-25T12:56:11Z</time>
      </trkpt>
      <trkpt lat="44.54692" lon="1.44214">
        <ele>212.5</ele>
        <time>2022-09-25T12:56:17Z</time>
      </trkpt>
      <trkpt lat="44.54692" lon="1.44221">
        <ele>212.5</ele>
        <time>2022-09-25T12:56:22Z</time>
      </trkpt>
      <trkpt lat="44.54692" lon="1.44228">
        <ele>213.9</ele>
        <time>2022-09-25T12:56:28Z</time>
      </trkpt>
      <trkpt lat="44.54692" lon="1.44234">
        <ele>214.9</ele>
        <time>2022-09-25T12:56:33Z</time>
      </trkpt>
      <trkpt lat="44.54693" lon="1.44241">
        <ele>215.4</ele>
        <time>2022-09-25T12:56:38Z</time>
      </trkpt>
      <trkpt lat="44.54693" lon="1.44248">
        <ele>215.7</ele>
        <time>2022-09-25T12:56:43Z</time>
      </trkpt>
      <trkpt lat="44.54692" lon="1.44254">
        <ele>216.2</ele>
        <time>2022-09-25T12:56:48Z</time>
      </trkpt>
      <trkpt lat="44.54693" lon="1.44262">
        <ele>216.2</ele>
        <time>2022-09-25T12:56:53Z</time>
      </trkpt>
      <trkpt lat="44.54694" lon="1.44268">
        <ele>215.9</ele>
        <time>2022-09-25T12:56:58Z</time>
      </trkpt>
      <trkpt lat="44.54695" lon="1.44276">
        <ele>216.1</ele>
        <time>2022-09-25T12:57:04Z</time>
      </trkpt>
      <trkpt lat="44.54696" lon="1.44282">
        <ele>216.2</ele>
        <time>2022-09-25T12:57:09Z</time>
      </trkpt>
      <trkpt lat="44.54698" lon="1.44289">
        <ele>215.7</ele>
        <time>2022-09-25T12:57:15Z</time>
      </trkpt>
      <trkpt lat="44.54696" lon="1.44297">
        <ele>216.9</ele>
        <time>2022-09-25T12:58:29Z</time>
      </trkpt>
      <trkpt lat="44.54699" lon="1.44302">
        <ele>216.4</ele>
        <time>2022-09-25T12:58:37Z</time>
      </trkpt>
      <trkpt lat="44.54701" lon="1.44309">
        <ele>216.2</ele>
        <time>2022-09-25T12:58:43Z</time>
      </trkpt>
      <trkpt lat="44.54702" lon="1.44316">
        <ele>215.8</ele>
        <time>2022-09-25T12:58:49Z</time>
      </trkpt>
      <trkpt lat="44.54704" lon="1.44322">
        <ele>216</ele>
        <time>2022-09-25T12:58:55Z</time>
      </trkpt>
      <trkpt lat="44.54706" lon="1.44329">
        <ele>215.4</ele>
        <time>2022-09-25T12:59:01Z</time>
      </trkpt>
      <trkpt lat="44.54707" lon="1.44336">
        <ele>214.6</ele>
        <time>2022-09-25T12:59:06Z</time>
      </trkpt>
      <trkpt lat="44.54709" lon="1.44342">
        <ele>214.3</ele>
        <time>2022-09-25T12:59:11Z</time>
      </trkpt>
      <trkpt lat="44.54712" lon="1.44347">
        <ele>214.6</ele>
        <time>2022-09-25T12:59:16Z</time>
      </trkpt>
      <trkpt lat="44.54714" lon="1.44354">
        <ele>215.5</ele>
        <time>2022-09-25T12:59:22Z</time>
      </trkpt>
      <trkpt lat="44.54716" lon="1.4436">
        <ele>215.8</ele>
        <time>2022-09-25T12:59:28Z</time>
      </trkpt>
      <trkpt lat="44.54718" lon="1.44367">
        <ele>216.8</ele>
        <time>2022-09-25T12:59:34Z</time>
      </trkpt>
      <trkpt lat="44.54721" lon="1.44373">
        <ele>217.5</ele>
        <time>2022-09-25T12:59:40Z</time>
      </trkpt>
      <trkpt lat="44.54723" lon="1.4438">
        <ele>218.4</ele>
        <time>2022-09-25T12:59:46Z</time>
      </trkpt>
      <trkpt lat="44.54725" lon="1.44386">
        <ele>218.4</ele>
        <time>2022-09-25T12:59:51Z</time>
      </trkpt>
      <trkpt lat="44.54727" lon="1.44392">
        <ele>218.8</ele>
        <time>2022-09-25T12:59:56Z</time>
      </trkpt>
      <trkpt lat="44.54728" lon="1.44398">
        <ele>219.1</ele>
        <time>2022-09-25T13:00:02Z</time>
      </trkpt>
      <trkpt lat="44.5473" lon="1.44405">
        <ele>219.5</ele>
        <time>2022-09-25T13:00:08Z</time>
      </trkpt>
      <trkpt lat="44.54733" lon="1.44411">
        <ele>220.8</ele>
        <time>2022-09-25T13:00:14Z</time>
      </trkpt>
      <trkpt lat="44.54736" lon="1.44417">
        <ele>221.3</ele>
        <time>2022-09-25T13:00:20Z</time>
      </trkpt>
      <trkpt lat="44.54739" lon="1.44423">
        <ele>221.8</ele>
        <time>2022-09-25T13:00:26Z</time>
      </trkpt>
      <trkpt lat="44.54742" lon="1.4443">
        <ele>221.6</ele>
        <time>2022-09-25T13:00:32Z</time>
      </trkpt>
      <trkpt lat="44.54744" lon="1.44435">
        <ele>221.6</ele>
        <time>2022-09-25T13:00:37Z</time>
      </trkpt>
      <trkpt lat="44.54747" lon="1.44441">
        <ele>222.3</ele>
        <time>2022-09-25T13:00:42Z</time>
      </trkpt>
      <trkpt lat="44.54749" lon="1.44447">
        <ele>222.6</ele>
        <time>2022-09-25T13:00:48Z</time>
      </trkpt>
      <trkpt lat="44.5475" lon="1.44454">
        <ele>223.4</ele>
        <time>2022-09-25T13:00:54Z</time>
      </trkpt>
      <trkpt lat="44.54752" lon="1.44461">
        <ele>224.2</ele>
        <time>2022-09-25T13:01:00Z</time>
      </trkpt>
      <trkpt lat="44.54754" lon="1.44468">
        <ele>223.6</ele>
        <time>2022-09-25T13:01:05Z</time>
      </trkpt>
      <trkpt lat="44.54756" lon="1.44475">
        <ele>223.1</ele>
        <time>2022-09-25T13:01:10Z</time>
      </trkpt>
      <trkpt lat="44.54756" lon="1.44481">
        <ele>223</ele>
        <time>2022-09-25T13:01:15Z</time>
      </trkpt>
      <trkpt lat="44.54758" lon="1.44488">
        <ele>222.6</ele>
        <time>2022-09-25T13:01:20Z</time>
      </trkpt>
      <trkpt lat="44.5476" lon="1.44494">
        <ele>222.5</ele>
        <time>2022-09-25T13:01:25Z</time>
      </trkpt>
      <trkpt lat="44.5476" lon="1.44501">
        <ele>222.4</ele>
        <time>2022-09-25T13:01:30Z</time>
      </trkpt>
      <trkpt lat="44.54761" lon="1.44508">
        <ele>222.5</ele>
        <time>2022-09-25T13:01:35Z</time>
      </trkpt>
      <trkpt lat="44.54761" lon="1.44515">
        <ele>222.4</ele>
        <time>2022-09-25T13:01:40Z</time>
      </trkpt>
      <trkpt lat="44.54762" lon="1.44522">
        <ele>223.1</ele>
        <time>2022-09-25T13:01:45Z</time>
      </trkpt>
      <trkpt lat="44.54762" lon="1.44529">
        <ele>223.2</ele>
        <time>2022-09-25T13:01:50Z</time>
      </trkpt>
      <trkpt lat="44.54763" lon="1.44536">
        <ele>222.7</ele>
        <time>2022-09-25T13:01:55Z</time>
      </trkpt>
      <trkpt lat="44.54763" lon="1.44543">
        <ele>223.3</ele>
        <time>2022-09-25T13:02:00Z</time>
      </trkpt>
      <trkpt lat="44.54763" lon="1.44549">
        <ele>223</ele>
        <time>2022-09-25T13:02:05Z</time>
      </trkpt>
      <trkpt lat="44.54764" lon="1.44556">
        <ele>223.1</ele>
        <time>2022-09-25T13:02:10Z</time>
      </trkpt>
      <trkpt lat="44.54763" lon="1.44563">
        <ele>223.3</ele>
        <time>2022-09-25T13:02:15Z</time>
      </trkpt>
      <trkpt lat="44.54764" lon="1.4457">
        <ele>223.4</ele>
        <time>2022-09-25T13:02:20Z</time>
      </trkpt>
      <trkpt lat="44.54764" lon="1.44577">
        <ele>223.3</ele>
        <time>2022-09-25T13:02:25Z</time>
      </trkpt>
      <trkpt lat="44.54763" lon="1.44585">
        <ele>223.1</ele>
        <time>2022-09-25T13:02:30Z</time>
      </trkpt>
      <trkpt lat="44.54763" lon="1.44592">
        <ele>223</ele>
        <time>2022-09-25T13:02:35Z</time>
      </trkpt>
      <trkpt lat="44.54763" lon="1.446">
        <ele>223</ele>
        <time>2022-09-25T13:02:40Z</time>
      </trkpt>
      <trkpt lat="44.54762" lon="1.44607">
        <ele>224.1</ele>
        <time>2022-09-25T13:02:45Z</time>
      </trkpt>
      <trkpt lat="44.54762" lon="1.44614">
        <ele>224.1</ele>
        <time>2022-09-25T13:02:50Z</time>
      </trkpt>
      <trkpt lat="44.54761" lon="1.44622">
        <ele>224.5</ele>
        <time>2022-09-25T13:02:56Z</time>
      </trkpt>
      <trkpt lat="44.54761" lon="1.44628">
        <ele>224.8</ele>
        <time>2022-09-25T13:03:01Z</time>
      </trkpt>
      <trkpt lat="44.5476" lon="1.44635">
        <ele>225.2</ele>
        <time>2022-09-25T13:03:06Z</time>
      </trkpt>
      <trkpt lat="44.54759" lon="1.44642">
        <ele>224.9</ele>
        <time>2022-09-25T13:03:11Z</time>
      </trkpt>
      <trkpt lat="44.5476" lon="1.44649">
        <ele>225.2</ele>
        <time>2022-09-25T13:03:16Z</time>
      </trkpt>
      <trkpt lat="44.5476" lon="1.44657">
        <ele>225.7</ele>
        <time>2022-09-25T13:03:21Z</time>
      </trkpt>
      <trkpt lat="44.5476" lon="1.44664">
        <ele>225.2</ele>
        <time>2022-09-25T13:03:26Z</time>
      </trkpt>
      <trkpt lat="44.5476" lon="1.44671">
        <ele>224.9</ele>
        <time>2022-09-25T13:03:31Z</time>
      </trkpt>
      <trkpt lat="44.5476" lon="1.44678">
        <ele>224.9</ele>
        <time>2022-09-25T13:03:36Z</time>
      </trkpt>
      <trkpt lat="44.5476" lon="1.44685">
        <ele>224.5</ele>
        <time>2022-09-25T13:03:41Z</time>
      </trkpt>
      <trkpt lat="44.5476" lon="1.44692">
        <ele>225.3</ele>
        <time>2022-09-25T13:03:46Z</time>
      </trkpt>
      <trkpt lat="44.5476" lon="1.44699">
        <ele>225.6</ele>
        <time>2022-09-25T13:03:51Z</time>
      </trkpt>
      <trkpt lat="44.54759" lon="1.44705">
        <ele>226.1</ele>
        <time>2022-09-25T13:03:56Z</time>
      </trkpt>
      <trkpt lat="44.54759" lon="1.44712">
        <ele>226.6</ele>
        <time>2022-09-25T13:04:01Z</time>
      </trkpt>
      <trkpt lat="44.5476" lon="1.44719">
        <ele>226.3</ele>
        <time>2022-09-25T13:04:06Z</time>
      </trkpt>
      <trkpt lat="44.5476" lon="1.44726">
        <ele>226.3</ele>
        <time>2022-09-25T13:04:11Z</time>
      </trkpt>
      <trkpt lat="44.5476" lon="1.44733">
        <ele>226.6</ele>
        <time>2022-09-25T13:04:16Z</time>
      </trkpt>
      <trkpt lat="44.5476" lon="1.4474">
        <ele>227</ele>
        <time>2022-09-25T13:04:21Z</time>
      </trkpt>
      <trkpt lat="44.5476" lon="1.44746">
        <ele>227</ele>
        <time>2022-09-25T13:04:25Z</time>
      </trkpt>
      <trkpt lat="44.5476" lon="1.44753">
        <ele>227.2</ele>
        <time>2022-09-25T13:04:30Z</time>
      </trkpt>
      <trkpt lat="44.5476" lon="1.44761">
        <ele>226.8</ele>
        <time>2022-09-25T13:04:35Z</time>
      </trkpt>
      <trkpt lat="44.5476" lon="1.44768">
        <ele>227.1</ele>
        <time>2022-09-25T13:04:40Z</time>
      </trkpt>
      <trkpt lat="44.54761" lon="1.44775">
        <ele>227.3</ele>
        <time>2022-09-25T13:04:45Z</time>
      </trkpt>
      <trkpt lat="44.54761" lon="1.44782">
        <ele>226.9</ele>
        <time>2022-09-25T13:04:49Z</time>
      </trkpt>
      <trkpt lat="44.54761" lon="1.44789">
        <ele>226.9</ele>
        <time>2022-09-25T13:04:54Z</time>
      </trkpt>
      <trkpt lat="44.54762" lon="1.44796">
        <ele>227.7</ele>
        <time>2022-09-25T13:04:59Z</time>
      </trkpt>
      <trkpt lat="44.54763" lon="1.44803">
        <ele>228.3</ele>
        <time>2022-09-25T13:05:04Z</time>
      </trkpt>
      <trkpt lat="44.54765" lon="1.4481">
        <ele>228.3</ele>
        <time>2022-09-25T13:05:09Z</time>
      </trkpt>
      <trkpt lat="44.54767" lon="1.44816">
        <ele>228</ele>
        <time>2022-09-25T13:05:14Z</time>
      </trkpt>
      <trkpt lat="44.54768" lon="1.44823">
        <ele>228.1</ele>
        <time>2022-09-25T13:05:19Z</time>
      </trkpt>
      <trkpt lat="44.5477" lon="1.4483">
        <ele>228.3</ele>
        <time>2022-09-25T13:05:24Z</time>
      </trkpt>
      <trkpt lat="44.54772" lon="1.44836">
        <ele>228.7</ele>
        <time>2022-09-25T13:05:29Z</time>
      </trkpt>
      <trkpt lat="44.54775" lon="1.44843">
        <ele>228.3</ele>
        <time>2022-09-25T13:05:34Z</time>
      </trkpt>
      <trkpt lat="44.54778" lon="1.44849">
        <ele>227.6</ele>
        <time>2022-09-25T13:05:39Z</time>
      </trkpt>
      <trkpt lat="44.54781" lon="1.44854">
        <ele>228.5</ele>
        <time>2022-09-25T13:05:44Z</time>
      </trkpt>
      <trkpt lat="44.54784" lon="1.44858">
        <ele>229.4</ele>
        <time>2022-09-25T13:05:49Z</time>
      </trkpt>
      <trkpt lat="44.54788" lon="1.44862">
        <ele>230.4</ele>
        <time>2022-09-25T13:05:54Z</time>
      </trkpt>
      <trkpt lat="44.54792" lon="1.44867">
        <ele>230.8</ele>
        <time>2022-09-25T13:05:59Z</time>
      </trkpt>
      <trkpt lat="44.54796" lon="1.44871">
        <ele>231.2</ele>
        <time>2022-09-25T13:06:04Z</time>
      </trkpt>
      <trkpt lat="44.548" lon="1.44877">
        <ele>231.6</ele>
        <time>2022-09-25T13:06:09Z</time>
      </trkpt>
      <trkpt lat="44.54802" lon="1.44883">
        <ele>231.8</ele>
        <time>2022-09-25T13:06:13Z</time>
      </trkpt>
      <trkpt lat="44.54804" lon="1.4489">
        <ele>231.5</ele>
        <time>2022-09-25T13:06:18Z</time>
      </trkpt>
      <trkpt lat="44.54803" lon="1.44897">
        <ele>230</ele>
        <time>2022-09-25T13:06:23Z</time>
      </trkpt>
      <trkpt lat="44.54802" lon="1.44903">
        <ele>229.3</ele>
        <time>2022-09-25T13:06:27Z</time>
      </trkpt>
      <trkpt lat="44.54799" lon="1.44909">
        <ele>228.4</ele>
        <time>2022-09-25T13:06:31Z</time>
      </trkpt>
      <trkpt lat="44.54797" lon="1.44916">
        <ele>228.1</ele>
        <time>2022-09-25T13:06:36Z</time>
      </trkpt>
      <trkpt lat="44.54794" lon="1.44922">
        <ele>228.4</ele>
        <time>2022-09-25T13:06:41Z</time>
      </trkpt>
      <trkpt lat="44.54793" lon="1.44929">
        <ele>228.9</ele>
        <time>2022-09-25T13:06:46Z</time>
      </trkpt>
      <trkpt lat="44.54796" lon="1.44935">
        <ele>229.6</ele>
        <time>2022-09-25T13:06:52Z</time>
      </trkpt>
      <trkpt lat="44.548" lon="1.4494">
        <ele>230.6</ele>
        <time>2022-09-25T13:06:58Z</time>
      </trkpt>
      <trkpt lat="44.54804" lon="1.44944">
        <ele>231.9</ele>
        <time>2022-09-25T13:07:04Z</time>
      </trkpt>
      <trkpt lat="44.54808" lon="1.44948">
        <ele>232.5</ele>
        <time>2022-09-25T13:07:10Z</time>
      </trkpt>
      <trkpt lat="44.54812" lon="1.44952">
        <ele>232.5</ele>
        <time>2022-09-25T13:07:15Z</time>
      </trkpt>
      <trkpt lat="44.54816" lon="1.44955">
        <ele>232.5</ele>
        <time>2022-09-25T13:07:20Z</time>
      </trkpt>
      <trkpt lat="44.5482" lon="1.44959">
        <ele>232.9</ele>
        <time>2022-09-25T13:07:25Z</time>
      </trkpt>
      <trkpt lat="44.54825" lon="1.44962">
        <ele>233.4</ele>
        <time>2022-09-25T13:07:30Z</time>
      </trkpt>
      <trkpt lat="44.54829" lon="1.44966">
        <ele>233.6</ele>
        <time>2022-09-25T13:07:35Z</time>
      </trkpt>
      <trkpt lat="44.54833" lon="1.44969">
        <ele>233.2</ele>
        <time>2022-09-25T13:07:40Z</time>
      </trkpt>
      <trkpt lat="44.54837" lon="1.44974">
        <ele>233.1</ele>
        <time>2022-09-25T13:07:45Z</time>
      </trkpt>
      <trkpt lat="44.5484" lon="1.44979">
        <ele>232.9</ele>
        <time>2022-09-25T13:07:49Z</time>
      </trkpt>
      <trkpt lat="44.54844" lon="1.44984">
        <ele>233.2</ele>
        <time>2022-09-25T13:07:54Z</time>
      </trkpt>
      <trkpt lat="44.54847" lon="1.4499">
        <ele>233.8</ele>
        <time>2022-09-25T13:07:59Z</time>
      </trkpt>
      <trkpt lat="44.5485" lon="1.44996">
        <ele>234.8</ele>
        <time>2022-09-25T13:08:04Z</time>
      </trkpt>
      <trkpt lat="44.54853" lon="1.45002">
        <ele>235.2</ele>
        <time>2022-09-25T13:08:09Z</time>
      </trkpt>
      <trkpt lat="44.54855" lon="1.45009">
        <ele>236.2</ele>
        <time>2022-09-25T13:08:14Z</time>
      </trkpt>
      <trkpt lat="44.54858" lon="1.45015">
        <ele>237.2</ele>
        <time>2022-09-25T13:08:19Z</time>
      </trkpt>
      <trkpt lat="44.54859" lon="1.45021">
        <ele>236.5</ele>
        <time>2022-09-25T13:08:23Z</time>
      </trkpt>
      <trkpt lat="44.54862" lon="1.45028">
        <ele>236.4</ele>
        <time>2022-09-25T13:08:28Z</time>
      </trkpt>
      <trkpt lat="44.54864" lon="1.45035">
        <ele>237.7</ele>
        <time>2022-09-25T13:08:33Z</time>
      </trkpt>
      <trkpt lat="44.54866" lon="1.45041">
        <ele>239.1</ele>
        <time>2022-09-25T13:08:38Z</time>
      </trkpt>
      <trkpt lat="44.54867" lon="1.45048">
        <ele>238.6</ele>
        <time>2022-09-25T13:08:43Z</time>
      </trkpt>
      <trkpt lat="44.54869" lon="1.45055">
        <ele>238.4</ele>
        <time>2022-09-25T13:08:48Z</time>
      </trkpt>
      <trkpt lat="44.5487" lon="1.45061">
        <ele>238.4</ele>
        <time>2022-09-25T13:08:53Z</time>
      </trkpt>
      <trkpt lat="44.54872" lon="1.45068">
        <ele>238.5</ele>
        <time>2022-09-25T13:08:58Z</time>
      </trkpt>
      <trkpt lat="44.54874" lon="1.45074">
        <ele>239.8</ele>
        <time>2022-09-25T13:09:04Z</time>
      </trkpt>
      <trkpt lat="44.54876" lon="1.45081">
        <ele>240.1</ele>
        <time>2022-09-25T13:09:09Z</time>
      </trkpt>
      <trkpt lat="44.54878" lon="1.45087">
        <ele>239.1</ele>
        <time>2022-09-25T13:09:14Z</time>
      </trkpt>
      <trkpt lat="44.54881" lon="1.45093">
        <ele>238.5</ele>
        <time>2022-09-25T13:09:19Z</time>
      </trkpt>
      <trkpt lat="44.54882" lon="1.451">
        <ele>239</ele>
        <time>2022-09-25T13:09:24Z</time>
      </trkpt>
      <trkpt lat="44.54885" lon="1.45106">
        <ele>240.1</ele>
        <time>2022-09-25T13:09:29Z</time>
      </trkpt>
      <trkpt lat="44.54887" lon="1.45112">
        <ele>240.8</ele>
        <time>2022-09-25T13:09:34Z</time>
      </trkpt>
      <trkpt lat="44.54889" lon="1.45118">
        <ele>241.3</ele>
        <time>2022-09-25T13:09:39Z</time>
      </trkpt>
      <trkpt lat="44.54892" lon="1.45124">
        <ele>242.3</ele>
        <time>2022-09-25T13:09:44Z</time>
      </trkpt>
      <trkpt lat="44.54894" lon="1.4513">
        <ele>242.5</ele>
        <time>2022-09-25T13:09:49Z</time>
      </trkpt>
      <trkpt lat="44.54896" lon="1.45136">
        <ele>242.2</ele>
        <time>2022-09-25T13:09:54Z</time>
      </trkpt>
      <trkpt lat="44.54898" lon="1.45142">
        <ele>240.9</ele>
        <time>2022-09-25T13:09:59Z</time>
      </trkpt>
      <trkpt lat="44.549" lon="1.45149">
        <ele>239.7</ele>
        <time>2022-09-25T13:10:04Z</time>
      </trkpt>
      <trkpt lat="44.54902" lon="1.45154">
        <ele>239.4</ele>
        <time>2022-09-25T13:10:08Z</time>
      </trkpt>
      <trkpt lat="44.54905" lon="1.45161">
        <ele>238.9</ele>
        <time>2022-09-25T13:10:13Z</time>
      </trkpt>
      <trkpt lat="44.54907" lon="1.45167">
        <ele>238.7</ele>
        <time>2022-09-25T13:10:18Z</time>
      </trkpt>
      <trkpt lat="44.54909" lon="1.45173">
        <ele>238.9</ele>
        <time>2022-09-25T13:10:23Z</time>
      </trkpt>
      <trkpt lat="44.54911" lon="1.45179">
        <ele>239.8</ele>
        <time>2022-09-25T13:10:28Z</time>
      </trkpt>
      <trkpt lat="44.54914" lon="1.45184">
        <ele>240.4</ele>
        <time>2022-09-25T13:10:33Z</time>
      </trkpt>
      <trkpt lat="44.54916" lon="1.4519">
        <ele>241.5</ele>
        <time>2022-09-25T13:10:38Z</time>
      </trkpt>
      <trkpt lat="44.54918" lon="1.45196">
        <ele>242.5</ele>
        <time>2022-09-25T13:10:43Z</time>
      </trkpt>
      <trkpt lat="44.54921" lon="1.45202">
        <ele>242.9</ele>
        <time>2022-09-25T13:10:48Z</time>
      </trkpt>
      <trkpt lat="44.54923" lon="1.45209">
        <ele>243</ele>
        <time>2022-09-25T13:10:54Z</time>
      </trkpt>
      <trkpt lat="44.54924" lon="1.45215">
        <ele>243.1</ele>
        <time>2022-09-25T13:10:59Z</time>
      </trkpt>
      <trkpt lat="44.54927" lon="1.45221">
        <ele>242.6</ele>
        <time>2022-09-25T13:11:04Z</time>
      </trkpt>
      <trkpt lat="44.54929" lon="1.45227">
        <ele>242.6</ele>
        <time>2022-09-25T13:11:09Z</time>
      </trkpt>
      <trkpt lat="44.54931" lon="1.45234">
        <ele>242.9</ele>
        <time>2022-09-25T13:11:15Z</time>
      </trkpt>
      <trkpt lat="44.54933" lon="1.4524">
        <ele>242.8</ele>
        <time>2022-09-25T13:11:20Z</time>
      </trkpt>
      <trkpt lat="44.54936" lon="1.45246">
        <ele>243</ele>
        <time>2022-09-25T13:11:25Z</time>
      </trkpt>
      <trkpt lat="44.54939" lon="1.45252">
        <ele>242.5</ele>
        <time>2022-09-25T13:11:30Z</time>
      </trkpt>
      <trkpt lat="44.54942" lon="1.45257">
        <ele>242.7</ele>
        <time>2022-09-25T13:11:35Z</time>
      </trkpt>
      <trkpt lat="44.54945" lon="1.45263">
        <ele>242.7</ele>
        <time>2022-09-25T13:11:40Z</time>
      </trkpt>
      <trkpt lat="44.54948" lon="1.45269">
        <ele>243.1</ele>
        <time>2022-09-25T13:11:45Z</time>
      </trkpt>
      <trkpt lat="44.5495" lon="1.45275">
        <ele>243.7</ele>
        <time>2022-09-25T13:11:50Z</time>
      </trkpt>
      <trkpt lat="44.54953" lon="1.4528">
        <ele>244.5</ele>
        <time>2022-09-25T13:11:55Z</time>
      </trkpt>
      <trkpt lat="44.54955" lon="1.45286">
        <ele>245.4</ele>
        <time>2022-09-25T13:12:00Z</time>
      </trkpt>
      <trkpt lat="44.54958" lon="1.45292">
        <ele>246.3</ele>
        <time>2022-09-25T13:12:05Z</time>
      </trkpt>
      <trkpt lat="44.54961" lon="1.45297">
        <ele>247.2</ele>
        <time>2022-09-25T13:12:11Z</time>
      </trkpt>
      <trkpt lat="44.54965" lon="1.45303">
        <ele>248</ele>
        <time>2022-09-25T13:12:17Z</time>
      </trkpt>
      <trkpt lat="44.54968" lon="1.45308">
        <ele>248.2</ele>
        <time>2022-09-25T13:12:22Z</time>
      </trkpt>
      <trkpt lat="44.54971" lon="1.45313">
        <ele>248.5</ele>
        <time>2022-09-25T13:12:27Z</time>
      </trkpt>
      <trkpt lat="44.54973" lon="1.45319">
        <ele>248.4</ele>
        <time>2022-09-25T13:12:32Z</time>
      </trkpt>
      <trkpt lat="44.54975" lon="1.45325">
        <ele>249.1</ele>
        <time>2022-09-25T13:12:37Z</time>
      </trkpt>
      <trkpt lat="44.54977" lon="1.45332">
        <ele>249.5</ele>
        <time>2022-09-25T13:12:42Z</time>
      </trkpt>
      <trkpt lat="44.54979" lon="1.45338">
        <ele>249.8</ele>
        <time>2022-09-25T13:12:47Z</time>
      </trkpt>
      <trkpt lat="44.54981" lon="1.45344">
        <ele>249.9</ele>
        <time>2022-09-25T13:12:52Z</time>
      </trkpt>
      <trkpt lat="44.54982" lon="1.45351">
        <ele>250.4</ele>
        <time>2022-09-25T13:12:58Z</time>
      </trkpt>
      <trkpt lat="44.54983" lon="1.45357">
        <ele>250.4</ele>
        <time>2022-09-25T13:13:03Z</time>
      </trkpt>
      <trkpt lat="44.54984" lon="1.45364">
        <ele>250.5</ele>
        <time>2022-09-25T13:13:08Z</time>
      </trkpt>
      <trkpt lat="44.54986" lon="1.4537">
        <ele>251.6</ele>
        <time>2022-09-25T13:13:14Z</time>
      </trkpt>
      <trkpt lat="44.54986" lon="1.45377">
        <ele>252.3</ele>
        <time>2022-09-25T13:13:19Z</time>
      </trkpt>
      <trkpt lat="44.54987" lon="1.45383">
        <ele>252.6</ele>
        <time>2022-09-25T13:13:24Z</time>
      </trkpt>
      <trkpt lat="44.54988" lon="1.4539">
        <ele>252.6</ele>
        <time>2022-09-25T13:13:29Z</time>
      </trkpt>
      <trkpt lat="44.54989" lon="1.45397">
        <ele>253.1</ele>
        <time>2022-09-25T13:13:34Z</time>
      </trkpt>
      <trkpt lat="44.54989" lon="1.45404">
        <ele>253</ele>
        <time>2022-09-25T13:13:39Z</time>
      </trkpt>
      <trkpt lat="44.5499" lon="1.45411">
        <ele>253.1</ele>
        <time>2022-09-25T13:13:45Z</time>
      </trkpt>
      <trkpt lat="44.54991" lon="1.45418">
        <ele>254.2</ele>
        <time>2022-09-25T13:13:51Z</time>
      </trkpt>
      <trkpt lat="44.54992" lon="1.45424">
        <ele>254.6</ele>
        <time>2022-09-25T13:13:56Z</time>
      </trkpt>
      <trkpt lat="44.54993" lon="1.45431">
        <ele>254.6</ele>
        <time>2022-09-25T13:14:01Z</time>
      </trkpt>
      <trkpt lat="44.54994" lon="1.45437">
        <ele>254.6</ele>
        <time>2022-09-25T13:14:06Z</time>
      </trkpt>
      <trkpt lat="44.54995" lon="1.45444">
        <ele>254.7</ele>
        <time>2022-09-25T13:14:11Z</time>
      </trkpt>
      <trkpt lat="44.54996" lon="1.4545">
        <ele>254.5</ele>
        <time>2022-09-25T13:14:16Z</time>
      </trkpt>
      <trkpt lat="44.54997" lon="1.45457">
        <ele>254.9</ele>
        <time>2022-09-25T13:14:21Z</time>
      </trkpt>
      <trkpt lat="44.54998" lon="1.45463">
        <ele>254.8</ele>
        <time>2022-09-25T13:14:26Z</time>
      </trkpt>
      <trkpt lat="44.54998" lon="1.4547">
        <ele>254.8</ele>
        <time>2022-09-25T13:14:31Z</time>
      </trkpt>
      <trkpt lat="44.54999" lon="1.45476">
        <ele>255.1</ele>
        <time>2022-09-25T13:14:36Z</time>
      </trkpt>
      <trkpt lat="44.54999" lon="1.45483">
        <ele>256.6</ele>
        <time>2022-09-25T13:14:42Z</time>
      </trkpt>
      <trkpt lat="44.55" lon="1.4549">
        <ele>257.4</ele>
        <time>2022-09-25T13:14:48Z</time>
      </trkpt>
      <trkpt lat="44.55001" lon="1.45498">
        <ele>257.8</ele>
        <time>2022-09-25T13:14:54Z</time>
      </trkpt>
      <trkpt lat="44.55001" lon="1.45504">
        <ele>258</ele>
        <time>2022-09-25T13:14:59Z</time>
      </trkpt>
      <trkpt lat="44.55002" lon="1.45511">
        <ele>257.9</ele>
        <time>2022-09-25T13:15:04Z</time>
      </trkpt>
      <trkpt lat="44.55003" lon="1.45517">
        <ele>258.6</ele>
        <time>2022-09-25T13:15:09Z</time>
      </trkpt>
      <trkpt lat="44.55004" lon="1.45524">
        <ele>259.5</ele>
        <time>2022-09-25T13:15:16Z</time>
      </trkpt>
      <trkpt lat="44.55005" lon="1.45531">
        <ele>258.8</ele>
        <time>2022-09-25T13:15:22Z</time>
      </trkpt>
      <trkpt lat="44.55006" lon="1.45538">
        <ele>258.4</ele>
        <time>2022-09-25T13:15:27Z</time>
      </trkpt>
      <trkpt lat="44.55007" lon="1.45544">
        <ele>258.4</ele>
        <time>2022-09-25T13:15:32Z</time>
      </trkpt>
      <trkpt lat="44.55009" lon="1.45551">
        <ele>258.5</ele>
        <time>2022-09-25T13:15:37Z</time>
      </trkpt>
      <trkpt lat="44.5501" lon="1.45557">
        <ele>259.1</ele>
        <time>2022-09-25T13:15:42Z</time>
      </trkpt>
      <trkpt lat="44.55011" lon="1.45563">
        <ele>259.6</ele>
        <time>2022-09-25T13:15:47Z</time>
      </trkpt>
      <trkpt lat="44.55013" lon="1.4557">
        <ele>260.2</ele>
        <time>2022-09-25T13:15:52Z</time>
      </trkpt>
      <trkpt lat="44.55015" lon="1.45576">
        <ele>260.7</ele>
        <time>2022-09-25T13:15:57Z</time>
      </trkpt>
      <trkpt lat="44.55017" lon="1.45583">
        <ele>260.4</ele>
        <time>2022-09-25T13:16:02Z</time>
      </trkpt>
      <trkpt lat="44.55019" lon="1.4559">
        <ele>259.3</ele>
        <time>2022-09-25T13:16:08Z</time>
      </trkpt>
      <trkpt lat="44.55021" lon="1.45597">
        <ele>258.7</ele>
        <time>2022-09-25T13:16:14Z</time>
      </trkpt>
      <trkpt lat="44.55022" lon="1.45603">
        <ele>259</ele>
        <time>2022-09-25T13:16:19Z</time>
      </trkpt>
      <trkpt lat="44.55024" lon="1.45609">
        <ele>259.2</ele>
        <time>2022-09-25T13:16:24Z</time>
      </trkpt>
      <trkpt lat="44.55026" lon="1.45616">
        <ele>259.1</ele>
        <time>2022-09-25T13:16:30Z</time>
      </trkpt>
      <trkpt lat="44.55027" lon="1.45622">
        <ele>259.3</ele>
        <time>2022-09-25T13:16:35Z</time>
      </trkpt>
      <trkpt lat="44.55028" lon="1.4563">
        <ele>259.2</ele>
        <time>2022-09-25T13:16:41Z</time>
      </trkpt>
      <trkpt lat="44.55028" lon="1.45637">
        <ele>259.3</ele>
        <time>2022-09-25T13:16:46Z</time>
      </trkpt>
      <trkpt lat="44.55028" lon="1.45644">
        <ele>260.2</ele>
        <time>2022-09-25T13:16:50Z</time>
      </trkpt>
      <trkpt lat="44.55027" lon="1.45651">
        <ele>260.4</ele>
        <time>2022-09-25T13:16:55Z</time>
      </trkpt>
      <trkpt lat="44.55025" lon="1.45658">
        <ele>259.3</ele>
        <time>2022-09-25T13:17:00Z</time>
      </trkpt>
      <trkpt lat="44.55023" lon="1.45664">
        <ele>258.9</ele>
        <time>2022-09-25T13:17:05Z</time>
      </trkpt>
      <trkpt lat="44.5502" lon="1.4567">
        <ele>257.3</ele>
        <time>2022-09-25T13:17:10Z</time>
      </trkpt>
      <trkpt lat="44.55017" lon="1.45675">
        <ele>255.9</ele>
        <time>2022-09-25T13:17:15Z</time>
      </trkpt>
      <trkpt lat="44.55014" lon="1.4568">
        <ele>255.8</ele>
        <time>2022-09-25T13:17:20Z</time>
      </trkpt>
      <trkpt lat="44.55011" lon="1.45685">
        <ele>255.7</ele>
        <time>2022-09-25T13:17:25Z</time>
      </trkpt>
      <trkpt lat="44.55011" lon="1.45692">
        <ele>255.3</ele>
        <time>2022-09-25T13:17:29Z</time>
      </trkpt>
      <trkpt lat="44.55011" lon="1.45699">
        <ele>256.8</ele>
        <time>2022-09-25T13:17:37Z</time>
      </trkpt>
      <trkpt lat="44.55011" lon="1.45705">
        <ele>258.2</ele>
        <time>2022-09-25T13:17:43Z</time>
      </trkpt>
      <trkpt lat="44.55014" lon="1.45711">
        <ele>260</ele>
        <time>2022-09-25T13:17:49Z</time>
      </trkpt>
      <trkpt lat="44.55016" lon="1.45718">
        <ele>261.9</ele>
        <time>2022-09-25T13:17:55Z</time>
      </trkpt>
      <trkpt lat="44.55017" lon="1.45724">
        <ele>262.3</ele>
        <time>2022-09-25T13:18:00Z</time>
      </trkpt>
      <trkpt lat="44.55017" lon="1.45731">
        <ele>261.7</ele>
        <time>2022-09-25T13:18:05Z</time>
      </trkpt>
      <trkpt lat="44.55016" lon="1.45738">
        <ele>261.2</ele>
        <time>2022-09-25T13:18:10Z</time>
      </trkpt>
      <trkpt lat="44.55014" lon="1.45744">
        <ele>261.4</ele>
        <time>2022-09-25T13:18:15Z</time>
      </trkpt>
      <trkpt lat="44.55011" lon="1.45749">
        <ele>262.8</ele>
        <time>2022-09-25T13:18:20Z</time>
      </trkpt>
      <trkpt lat="44.55008" lon="1.45754">
        <ele>263.9</ele>
        <time>2022-09-25T13:18:26Z</time>
      </trkpt>
      <trkpt lat="44.55004" lon="1.45759">
        <ele>265.6</ele>
        <time>2022-09-25T13:18:31Z</time>
      </trkpt>
      <trkpt lat="44.55" lon="1.45762">
        <ele>266.3</ele>
        <time>2022-09-25T13:18:36Z</time>
      </trkpt>
      <trkpt lat="44.54997" lon="1.45768">
        <ele>267.4</ele>
        <time>2022-09-25T13:24:57Z</time>
      </trkpt>
      <trkpt lat="44.54993" lon="1.45772">
        <ele>268.2</ele>
        <time>2022-09-25T13:25:02Z</time>
      </trkpt>
      <trkpt lat="44.54989" lon="1.45777">
        <ele>267.8</ele>
        <time>2022-09-25T13:25:07Z</time>
      </trkpt>
      <trkpt lat="44.54985" lon="1.45781">
        <ele>269.2</ele>
        <time>2022-09-25T13:25:13Z</time>
      </trkpt>
      <trkpt lat="44.54982" lon="1.45786">
        <ele>271.1</ele>
        <time>2022-09-25T13:25:20Z</time>
      </trkpt>
      <trkpt lat="44.54979" lon="1.45792">
        <ele>271.8</ele>
        <time>2022-09-25T13:25:27Z</time>
      </trkpt>
      <trkpt lat="44.54976" lon="1.45796">
        <ele>273</ele>
        <time>2022-09-25T13:25:32Z</time>
      </trkpt>
      <trkpt lat="44.54972" lon="1.45801">
        <ele>274.8</ele>
        <time>2022-09-25T13:25:37Z</time>
      </trkpt>
      <trkpt lat="44.54969" lon="1.45806">
        <ele>276.8</ele>
        <time>2022-09-25T13:25:43Z</time>
      </trkpt>
      <trkpt lat="44.54966" lon="1.45811">
        <ele>276.3</ele>
        <time>2022-09-25T13:25:51Z</time>
      </trkpt>
      <trkpt lat="44.54963" lon="1.45816">
        <ele>275.1</ele>
        <time>2022-09-25T13:25:59Z</time>
      </trkpt>
      <trkpt lat="44.5496" lon="1.45822">
        <ele>274.3</ele>
        <time>2022-09-25T13:26:06Z</time>
      </trkpt>
      <trkpt lat="44.54957" lon="1.45827">
        <ele>274.5</ele>
        <time>2022-09-25T13:26:12Z</time>
      </trkpt>
      <trkpt lat="44.54954" lon="1.45832">
        <ele>274.4</ele>
        <time>2022-09-25T13:26:18Z</time>
      </trkpt>
      <trkpt lat="44.5495" lon="1.45837">
        <ele>274.4</ele>
        <time>2022-09-25T13:26:24Z</time>
      </trkpt>
      <trkpt lat="44.54947" lon="1.45841">
        <ele>273.2</ele>
        <time>2022-09-25T13:26:29Z</time>
      </trkpt>
      <trkpt lat="44.54944" lon="1.45846">
        <ele>272.4</ele>
        <time>2022-09-25T13:26:34Z</time>
      </trkpt>
      <trkpt lat="44.5494" lon="1.4585">
        <ele>271.4</ele>
        <time>2022-09-25T13:26:39Z</time>
      </trkpt>
      <trkpt lat="44.54936" lon="1.45853">
        <ele>270.6</ele>
        <time>2022-09-25T13:26:44Z</time>
      </trkpt>
      <trkpt lat="44.54932" lon="1.45857">
        <ele>270.7</ele>
        <time>2022-09-25T13:26:50Z</time>
      </trkpt>
      <trkpt lat="44.54928" lon="1.45861">
        <ele>271</ele>
        <time>2022-09-25T13:26:56Z</time>
      </trkpt>
      <trkpt lat="44.54924" lon="1.45866">
        <ele>269.5</ele>
        <time>2022-09-25T13:27:02Z</time>
      </trkpt>
      <trkpt lat="44.5492" lon="1.45871">
        <ele>268.1</ele>
        <time>2022-09-25T13:27:08Z</time>
      </trkpt>
      <trkpt lat="44.54917" lon="1.45875">
        <ele>266.8</ele>
        <time>2022-09-25T13:27:13Z</time>
      </trkpt>
      <trkpt lat="44.54913" lon="1.4588">
        <ele>264.3</ele>
        <time>2022-09-25T13:27:19Z</time>
      </trkpt>
      <trkpt lat="44.5491" lon="1.45886">
        <ele>262.3</ele>
        <time>2022-09-25T13:27:24Z</time>
      </trkpt>
      <trkpt lat="44.54907" lon="1.45891">
        <ele>261.9</ele>
        <time>2022-09-25T13:27:29Z</time>
      </trkpt>
      <trkpt lat="44.54904" lon="1.45897">
        <ele>262.7</ele>
        <time>2022-09-25T13:27:34Z</time>
      </trkpt>
      <trkpt lat="44.54902" lon="1.45902">
        <ele>263.6</ele>
        <time>2022-09-25T13:27:39Z</time>
      </trkpt>
      <trkpt lat="44.549" lon="1.45909">
        <ele>264.8</ele>
        <time>2022-09-25T13:27:45Z</time>
      </trkpt>
      <trkpt lat="44.54898" lon="1.45916">
        <ele>265.9</ele>
        <time>2022-09-25T13:27:51Z</time>
      </trkpt>
      <trkpt lat="44.54896" lon="1.45922">
        <ele>267.3</ele>
        <time>2022-09-25T13:27:56Z</time>
      </trkpt>
      <trkpt lat="44.54895" lon="1.45929">
        <ele>268.7</ele>
        <time>2022-09-25T13:28:01Z</time>
      </trkpt>
      <trkpt lat="44.54894" lon="1.45936">
        <ele>270.5</ele>
        <time>2022-09-25T13:28:07Z</time>
      </trkpt>
      <trkpt lat="44.54894" lon="1.45943">
        <ele>271.9</ele>
        <time>2022-09-25T13:28:13Z</time>
      </trkpt>
      <trkpt lat="44.54894" lon="1.45951">
        <ele>272.8</ele>
        <time>2022-09-25T13:28:19Z</time>
      </trkpt>
      <trkpt lat="44.54895" lon="1.45957">
        <ele>272.6</ele>
        <time>2022-09-25T13:28:24Z</time>
      </trkpt>
      <trkpt lat="44.54896" lon="1.45964">
        <ele>272</ele>
        <time>2022-09-25T13:28:29Z</time>
      </trkpt>
      <trkpt lat="44.54898" lon="1.4597">
        <ele>271.9</ele>
        <time>2022-09-25T13:28:34Z</time>
      </trkpt>
      <trkpt lat="44.54899" lon="1.45976">
        <ele>271.5</ele>
        <time>2022-09-25T13:28:39Z</time>
      </trkpt>
      <trkpt lat="44.54901" lon="1.45982">
        <ele>271.8</ele>
        <time>2022-09-25T13:28:45Z</time>
      </trkpt>
      <trkpt lat="44.54903" lon="1.45988">
        <ele>272.4</ele>
        <time>2022-09-25T13:28:50Z</time>
      </trkpt>
      <trkpt lat="44.54905" lon="1.45995">
        <ele>272.7</ele>
        <time>2022-09-25T13:28:55Z</time>
      </trkpt>
      <trkpt lat="44.54907" lon="1.46001">
        <ele>272.6</ele>
        <time>2022-09-25T13:29:00Z</time>
      </trkpt>
      <trkpt lat="44.5491" lon="1.46007">
        <ele>273.2</ele>
        <time>2022-09-25T13:29:06Z</time>
      </trkpt>
      <trkpt lat="44.54912" lon="1.46013">
        <ele>273.3</ele>
        <time>2022-09-25T13:29:12Z</time>
      </trkpt>
      <trkpt lat="44.54915" lon="1.46018">
        <ele>273.7</ele>
        <time>2022-09-25T13:29:18Z</time>
      </trkpt>
      <trkpt lat="44.54918" lon="1.46024">
        <ele>274.6</ele>
        <time>2022-09-25T13:29:23Z</time>
      </trkpt>
      <trkpt lat="44.54921" lon="1.46028">
        <ele>275.4</ele>
        <time>2022-09-25T13:29:28Z</time>
      </trkpt>
      <trkpt lat="44.54925" lon="1.46033">
        <ele>276</ele>
        <time>2022-09-25T13:29:33Z</time>
      </trkpt>
      <trkpt lat="44.54928" lon="1.46038">
        <ele>275.9</ele>
        <time>2022-09-25T13:29:38Z</time>
      </trkpt>
      <trkpt lat="44.54932" lon="1.46043">
        <ele>275.8</ele>
        <time>2022-09-25T13:29:43Z</time>
      </trkpt>
      <trkpt lat="44.54935" lon="1.46048">
        <ele>275.3</ele>
        <time>2022-09-25T13:29:48Z</time>
      </trkpt>
      <trkpt lat="44.54938" lon="1.46053">
        <ele>275.5</ele>
        <time>2022-09-25T13:29:53Z</time>
      </trkpt>
      <trkpt lat="44.54942" lon="1.46057">
        <ele>275.7</ele>
        <time>2022-09-25T13:29:59Z</time>
      </trkpt>
      <trkpt lat="44.54945" lon="1.46062">
        <ele>276</ele>
        <time>2022-09-25T13:30:05Z</time>
      </trkpt>
      <trkpt lat="44.54948" lon="1.46067">
        <ele>276.6</ele>
        <time>2022-09-25T13:30:12Z</time>
      </trkpt>
      <trkpt lat="44.54953" lon="1.46067">
        <ele>274.8</ele>
        <time>2022-09-25T13:30:22Z</time>
      </trkpt>
      <trkpt lat="44.54949" lon="1.46062">
        <ele>273.5</ele>
        <time>2022-09-25T13:30:32Z</time>
      </trkpt>
      <trkpt lat="44.54946" lon="1.46056">
        <ele>273.9</ele>
        <time>2022-09-25T13:30:39Z</time>
      </trkpt>
      <trkpt lat="44.54944" lon="1.4605">
        <ele>274.4</ele>
        <time>2022-09-25T13:30:45Z</time>
      </trkpt>
      <trkpt lat="44.54942" lon="1.46044">
        <ele>275</ele>
        <time>2022-09-25T13:30:51Z</time>
      </trkpt>
      <trkpt lat="44.5494" lon="1.46038">
        <ele>277.6</ele>
        <time>2022-09-25T13:31:04Z</time>
      </trkpt>
      <trkpt lat="44.54939" lon="1.46031">
        <ele>277.2</ele>
        <time>2022-09-25T13:31:14Z</time>
      </trkpt>
      <trkpt lat="44.54937" lon="1.46025">
        <ele>277.1</ele>
        <time>2022-09-25T13:31:22Z</time>
      </trkpt>
      <trkpt lat="44.54936" lon="1.46019">
        <ele>277.6</ele>
        <time>2022-09-25T13:31:30Z</time>
      </trkpt>
      <trkpt lat="44.54934" lon="1.46013">
        <ele>277.8</ele>
        <time>2022-09-25T13:31:37Z</time>
      </trkpt>
      <trkpt lat="44.54933" lon="1.46006">
        <ele>277.9</ele>
        <time>2022-09-25T13:31:43Z</time>
      </trkpt>
      <trkpt lat="44.54933" lon="1.45998">
        <ele>277.4</ele>
        <time>2022-09-25T13:31:50Z</time>
      </trkpt>
      <trkpt lat="44.54933" lon="1.45992">
        <ele>276.9</ele>
        <time>2022-09-25T13:31:56Z</time>
      </trkpt>
      <trkpt lat="44.54934" lon="1.45985">
        <ele>276.4</ele>
        <time>2022-09-25T13:32:03Z</time>
      </trkpt>
      <trkpt lat="44.54934" lon="1.45978">
        <ele>276.5</ele>
        <time>2022-09-25T13:32:09Z</time>
      </trkpt>
      <trkpt lat="44.54934" lon="1.45971">
        <ele>276.8</ele>
        <time>2022-09-25T13:32:15Z</time>
      </trkpt>
      <trkpt lat="44.54934" lon="1.45965">
        <ele>277.9</ele>
        <time>2022-09-25T13:32:20Z</time>
      </trkpt>
      <trkpt lat="44.54934" lon="1.45958">
        <ele>280.4</ele>
        <time>2022-09-25T13:32:25Z</time>
      </trkpt>
      <trkpt lat="44.54933" lon="1.45952">
        <ele>284</ele>
        <time>2022-09-25T13:32:30Z</time>
      </trkpt>
      <trkpt lat="44.54934" lon="1.45944">
        <ele>287.6</ele>
        <time>2022-09-25T13:32:35Z</time>
      </trkpt>
      <trkpt lat="44.54937" lon="1.45939">
        <ele>287.8</ele>
        <time>2022-09-25T13:32:41Z</time>
      </trkpt>
      <trkpt lat="44.5494" lon="1.45933">
        <ele>288.1</ele>
        <time>2022-09-25T13:32:49Z</time>
      </trkpt>
      <trkpt lat="44.54943" lon="1.45928">
        <ele>288.8</ele>
        <time>2022-09-25T13:32:55Z</time>
      </trkpt>
      <trkpt lat="44.54947" lon="1.45923">
        <ele>289.6</ele>
        <time>2022-09-25T13:33:01Z</time>
      </trkpt>
      <trkpt lat="44.54951" lon="1.45918">
        <ele>290.2</ele>
        <time>2022-09-25T13:33:06Z</time>
      </trkpt>
      <trkpt lat="44.54955" lon="1.45914">
        <ele>290.6</ele>
        <time>2022-09-25T13:33:12Z</time>
      </trkpt>
      <trkpt lat="44.54959" lon="1.45911">
        <ele>291.2</ele>
        <time>2022-09-25T13:33:17Z</time>
      </trkpt>
      <trkpt lat="44.54963" lon="1.45908">
        <ele>291.8</ele>
        <time>2022-09-25T13:33:23Z</time>
      </trkpt>
      <trkpt lat="44.54968" lon="1.45904">
        <ele>292.4</ele>
        <time>2022-09-25T13:33:29Z</time>
      </trkpt>
      <trkpt lat="44.54972" lon="1.45899">
        <ele>293.2</ele>
        <time>2022-09-25T13:33:35Z</time>
      </trkpt>
      <trkpt lat="44.54976" lon="1.45895">
        <ele>293.6</ele>
        <time>2022-09-25T13:33:40Z</time>
      </trkpt>
      <trkpt lat="44.5498" lon="1.45891">
        <ele>294.1</ele>
        <time>2022-09-25T13:33:45Z</time>
      </trkpt>
      <trkpt lat="44.54984" lon="1.45888">
        <ele>294.4</ele>
        <time>2022-09-25T13:33:51Z</time>
      </trkpt>
      <trkpt lat="44.54989" lon="1.45884">
        <ele>295.2</ele>
        <time>2022-09-25T13:33:57Z</time>
      </trkpt>
      <trkpt lat="44.54993" lon="1.45881">
        <ele>295.6</ele>
        <time>2022-09-25T13:34:03Z</time>
      </trkpt>
      <trkpt lat="44.54997" lon="1.45877">
        <ele>296.1</ele>
        <time>2022-09-25T13:34:09Z</time>
      </trkpt>
      <trkpt lat="44.55002" lon="1.45873">
        <ele>297</ele>
        <time>2022-09-25T13:34:15Z</time>
      </trkpt>
      <trkpt lat="44.55006" lon="1.45869">
        <ele>297.2</ele>
        <time>2022-09-25T13:34:20Z</time>
      </trkpt>
      <trkpt lat="44.5501" lon="1.45865">
        <ele>297.5</ele>
        <time>2022-09-25T13:34:26Z</time>
      </trkpt>
      <trkpt lat="44.55014" lon="1.45862">
        <ele>297.3</ele>
        <time>2022-09-25T13:34:32Z</time>
      </trkpt>
      <trkpt lat="44.55019" lon="1.45858">
        <ele>298</ele>
        <time>2022-09-25T13:34:38Z</time>
      </trkpt>
      <trkpt lat="44.55023" lon="1.45856">
        <ele>298.6</ele>
        <time>2022-09-25T13:34:43Z</time>
      </trkpt>
      <trkpt lat="44.55027" lon="1.45853">
        <ele>299.2</ele>
        <time>2022-09-25T13:34:48Z</time>
      </trkpt>
      <trkpt lat="44.55032" lon="1.45851">
        <ele>299.3</ele>
        <time>2022-09-25T13:34:54Z</time>
      </trkpt>
      <trkpt lat="44.55037" lon="1.45849">
        <ele>300.2</ele>
        <time>2022-09-25T13:35:00Z</time>
      </trkpt>
      <trkpt lat="44.55042" lon="1.45848">
        <ele>301.2</ele>
        <time>2022-09-25T13:35:06Z</time>
      </trkpt>
      <trkpt lat="44.55046" lon="1.45848">
        <ele>301.6</ele>
        <time>2022-09-25T13:35:11Z</time>
      </trkpt>
      <trkpt lat="44.55051" lon="1.45848">
        <ele>302</ele>
        <time>2022-09-25T13:35:16Z</time>
      </trkpt>
      <trkpt lat="44.55056" lon="1.45848">
        <ele>303.2</ele>
        <time>2022-09-25T13:35:21Z</time>
      </trkpt>
      <trkpt lat="44.5506" lon="1.45848">
        <ele>304.1</ele>
        <time>2022-09-25T13:35:26Z</time>
      </trkpt>
      <trkpt lat="44.55065" lon="1.45848">
        <ele>305</ele>
        <time>2022-09-25T13:35:32Z</time>
      </trkpt>
      <trkpt lat="44.55071" lon="1.45849">
        <ele>305.5</ele>
        <time>2022-09-25T13:35:38Z</time>
      </trkpt>
      <trkpt lat="44.55076" lon="1.45849">
        <ele>305.9</ele>
        <time>2022-09-25T13:35:43Z</time>
      </trkpt>
      <trkpt lat="44.5508" lon="1.45849">
        <ele>306.1</ele>
        <time>2022-09-25T13:35:49Z</time>
      </trkpt>
      <trkpt lat="44.55086" lon="1.45849">
        <ele>306.2</ele>
        <time>2022-09-25T13:35:55Z</time>
      </trkpt>
      <trkpt lat="44.55091" lon="1.45848">
        <ele>307.1</ele>
        <time>2022-09-25T13:36:01Z</time>
      </trkpt>
      <trkpt lat="44.55096" lon="1.45846">
        <ele>308.5</ele>
        <time>2022-09-25T13:36:07Z</time>
      </trkpt>
      <trkpt lat="44.55101" lon="1.45844">
        <ele>310.1</ele>
        <time>2022-09-25T13:36:13Z</time>
      </trkpt>
      <trkpt lat="44.55105" lon="1.45844">
        <ele>310.6</ele>
        <time>2022-09-25T13:36:19Z</time>
      </trkpt>
      <trkpt lat="44.5511" lon="1.45844">
        <ele>310.6</ele>
        <time>2022-09-25T13:36:25Z</time>
      </trkpt>
      <trkpt lat="44.55115" lon="1.45843">
        <ele>310.8</ele>
        <time>2022-09-25T13:36:31Z</time>
      </trkpt>
      <trkpt lat="44.55117" lon="1.45836">
        <ele>310.4</ele>
        <time>2022-09-25T13:36:37Z</time>
      </trkpt>
      <trkpt lat="44.55118" lon="1.4583">
        <ele>309.5</ele>
        <time>2022-09-25T13:36:44Z</time>
      </trkpt>
      <trkpt lat="44.55122" lon="1.45824">
        <ele>309.2</ele>
        <time>2022-09-25T13:36:51Z</time>
      </trkpt>
      <trkpt lat="44.55126" lon="1.45819">
        <ele>309.5</ele>
        <time>2022-09-25T13:36:57Z</time>
      </trkpt>
      <trkpt lat="44.55129" lon="1.45815">
        <ele>309.7</ele>
        <time>2022-09-25T13:37:02Z</time>
      </trkpt>
      <trkpt lat="44.55133" lon="1.4581">
        <ele>310.3</ele>
        <time>2022-09-25T13:37:08Z</time>
      </trkpt>
      <trkpt lat="44.55137" lon="1.45806">
        <ele>311</ele>
        <time>2022-09-25T13:37:13Z</time>
      </trkpt>
      <trkpt lat="44.55141" lon="1.45802">
        <ele>310.9</ele>
        <time>2022-09-25T13:37:18Z</time>
      </trkpt>
      <trkpt lat="44.55145" lon="1.45798">
        <ele>311.1</ele>
        <time>2022-09-25T13:37:24Z</time>
      </trkpt>
      <trkpt lat="44.55149" lon="1.45796">
        <ele>311.5</ele>
        <time>2022-09-25T13:37:29Z</time>
      </trkpt>
      <trkpt lat="44.55153" lon="1.45792">
        <ele>311.9</ele>
        <time>2022-09-25T13:37:34Z</time>
      </trkpt>
      <trkpt lat="44.55158" lon="1.45789">
        <ele>312.9</ele>
        <time>2022-09-25T13:37:39Z</time>
      </trkpt>
      <trkpt lat="44.55162" lon="1.45786">
        <ele>314.9</ele>
        <time>2022-09-25T13:37:45Z</time>
      </trkpt>
      <trkpt lat="44.55167" lon="1.45783">
        <ele>315.3</ele>
        <time>2022-09-25T13:37:51Z</time>
      </trkpt>
      <trkpt lat="44.55171" lon="1.4578">
        <ele>315.3</ele>
        <time>2022-09-25T13:37:57Z</time>
      </trkpt>
      <trkpt lat="44.55176" lon="1.45777">
        <ele>315.9</ele>
        <time>2022-09-25T13:38:03Z</time>
      </trkpt>
      <trkpt lat="44.5518" lon="1.45774">
        <ele>315.7</ele>
        <time>2022-09-25T13:38:09Z</time>
      </trkpt>
      <trkpt lat="44.55183" lon="1.45769">
        <ele>315.9</ele>
        <time>2022-09-25T13:38:15Z</time>
      </trkpt>
      <trkpt lat="44.55186" lon="1.45764">
        <ele>316.3</ele>
        <time>2022-09-25T13:38:21Z</time>
      </trkpt>
      <trkpt lat="44.55188" lon="1.45758">
        <ele>316.8</ele>
        <time>2022-09-25T13:38:26Z</time>
      </trkpt>
      <trkpt lat="44.5519" lon="1.45751">
        <ele>317.5</ele>
        <time>2022-09-25T13:38:33Z</time>
      </trkpt>
      <trkpt lat="44.5519" lon="1.45745">
        <ele>317.9</ele>
        <time>2022-09-25T13:38:40Z</time>
      </trkpt>
      <trkpt lat="44.55191" lon="1.45738">
        <ele>319</ele>
        <time>2022-09-25T13:38:46Z</time>
      </trkpt>
      <trkpt lat="44.55192" lon="1.45731">
        <ele>319.8</ele>
        <time>2022-09-25T13:38:51Z</time>
      </trkpt>
      <trkpt lat="44.55194" lon="1.45725">
        <ele>320.3</ele>
        <time>2022-09-25T13:38:57Z</time>
      </trkpt>
      <trkpt lat="44.55195" lon="1.45718">
        <ele>319.4</ele>
        <time>2022-09-25T13:39:03Z</time>
      </trkpt>
      <trkpt lat="44.55195" lon="1.45711">
        <ele>319.7</ele>
        <time>2022-09-25T13:39:09Z</time>
      </trkpt>
      <trkpt lat="44.55194" lon="1.45704">
        <ele>320.8</ele>
        <time>2022-09-25T13:39:14Z</time>
      </trkpt>
      <trkpt lat="44.55194" lon="1.45697">
        <ele>321.6</ele>
        <time>2022-09-25T13:39:19Z</time>
      </trkpt>
      <trkpt lat="44.55195" lon="1.45691">
        <ele>322.3</ele>
        <time>2022-09-25T13:39:24Z</time>
      </trkpt>
      <trkpt lat="44.55196" lon="1.45684">
        <ele>322.6</ele>
        <time>2022-09-25T13:39:31Z</time>
      </trkpt>
      <trkpt lat="44.55197" lon="1.45677">
        <ele>322.1</ele>
        <time>2022-09-25T13:39:37Z</time>
      </trkpt>
      <trkpt lat="44.55198" lon="1.4567">
        <ele>322</ele>
        <time>2022-09-25T13:39:43Z</time>
      </trkpt>
      <trkpt lat="44.55199" lon="1.45663">
        <ele>322.4</ele>
        <time>2022-09-25T13:39:49Z</time>
      </trkpt>
      <trkpt lat="44.55199" lon="1.45656">
        <ele>322.5</ele>
        <time>2022-09-25T13:39:55Z</time>
      </trkpt>
      <trkpt lat="44.552" lon="1.45649">
        <ele>322.5</ele>
        <time>2022-09-25T13:40:00Z</time>
      </trkpt>
      <trkpt lat="44.552" lon="1.45642">
        <ele>323.1</ele>
        <time>2022-09-25T13:40:06Z</time>
      </trkpt>
      <trkpt lat="44.55202" lon="1.45636">
        <ele>322.5</ele>
        <time>2022-09-25T13:40:11Z</time>
      </trkpt>
      <trkpt lat="44.55203" lon="1.45629">
        <ele>322.1</ele>
        <time>2022-09-25T13:40:16Z</time>
      </trkpt>
      <trkpt lat="44.55204" lon="1.45622">
        <ele>321.8</ele>
        <time>2022-09-25T13:40:21Z</time>
      </trkpt>
      <trkpt lat="44.55205" lon="1.45616">
        <ele>321.3</ele>
        <time>2022-09-25T13:40:26Z</time>
      </trkpt>
      <trkpt lat="44.55206" lon="1.45608">
        <ele>320.6</ele>
        <time>2022-09-25T13:40:31Z</time>
      </trkpt>
      <trkpt lat="44.55208" lon="1.45601">
        <ele>319.9</ele>
        <time>2022-09-25T13:40:36Z</time>
      </trkpt>
      <trkpt lat="44.5521" lon="1.45593">
        <ele>319.4</ele>
        <time>2022-09-25T13:40:41Z</time>
      </trkpt>
      <trkpt lat="44.55212" lon="1.45587">
        <ele>319.5</ele>
        <time>2022-09-25T13:40:46Z</time>
      </trkpt>
      <trkpt lat="44.55214" lon="1.45581">
        <ele>319.8</ele>
        <time>2022-09-25T13:40:51Z</time>
      </trkpt>
      <trkpt lat="44.55217" lon="1.45576">
        <ele>319.9</ele>
        <time>2022-09-25T13:40:56Z</time>
      </trkpt>
      <trkpt lat="44.55221" lon="1.4557">
        <ele>320.3</ele>
        <time>2022-09-25T13:41:01Z</time>
      </trkpt>
      <trkpt lat="44.55224" lon="1.45565">
        <ele>320.3</ele>
        <time>2022-09-25T13:41:06Z</time>
      </trkpt>
      <trkpt lat="44.55228" lon="1.45559">
        <ele>320.5</ele>
        <time>2022-09-25T13:41:11Z</time>
      </trkpt>
      <trkpt lat="44.55232" lon="1.45554">
        <ele>320.4</ele>
        <time>2022-09-25T13:41:16Z</time>
      </trkpt>
      <trkpt lat="44.55236" lon="1.4555">
        <ele>320.1</ele>
        <time>2022-09-25T13:41:21Z</time>
      </trkpt>
      <trkpt lat="44.5524" lon="1.45545">
        <ele>319.6</ele>
        <time>2022-09-25T13:41:26Z</time>
      </trkpt>
      <trkpt lat="44.55245" lon="1.45542">
        <ele>319.2</ele>
        <time>2022-09-25T13:41:31Z</time>
      </trkpt>
      <trkpt lat="44.55248" lon="1.45537">
        <ele>319</ele>
        <time>2022-09-25T13:41:36Z</time>
      </trkpt>
      <trkpt lat="44.55253" lon="1.45534">
        <ele>319</ele>
        <time>2022-09-25T13:41:42Z</time>
      </trkpt>
      <trkpt lat="44.55257" lon="1.4553">
        <ele>319.1</ele>
        <time>2022-09-25T13:41:47Z</time>
      </trkpt>
      <trkpt lat="44.55261" lon="1.45526">
        <ele>318.7</ele>
        <time>2022-09-25T13:41:52Z</time>
      </trkpt>
      <trkpt lat="44.55265" lon="1.45522">
        <ele>318.2</ele>
        <time>2022-09-25T13:41:57Z</time>
      </trkpt>
      <trkpt lat="44.55269" lon="1.45518">
        <ele>318</ele>
        <time>2022-09-25T13:42:02Z</time>
      </trkpt>
      <trkpt lat="44.55274" lon="1.45514">
        <ele>317.9</ele>
        <time>2022-09-25T13:42:07Z</time>
      </trkpt>
      <trkpt lat="44.55278" lon="1.4551">
        <ele>318</ele>
        <time>2022-09-25T13:42:12Z</time>
      </trkpt>
      <trkpt lat="44.55282" lon="1.45506">
        <ele>318.3</ele>
        <time>2022-09-25T13:42:17Z</time>
      </trkpt>
      <trkpt lat="44.55286" lon="1.45503">
        <ele>318.7</ele>
        <time>2022-09-25T13:42:22Z</time>
      </trkpt>
      <trkpt lat="44.55291" lon="1.455">
        <ele>318.9</ele>
        <time>2022-09-25T13:42:27Z</time>
      </trkpt>
      <trkpt lat="44.55296" lon="1.45498">
        <ele>318.8</ele>
        <time>2022-09-25T13:42:32Z</time>
      </trkpt>
      <trkpt lat="44.553" lon="1.45496">
        <ele>318.9</ele>
        <time>2022-09-25T13:42:37Z</time>
      </trkpt>
      <trkpt lat="44.55305" lon="1.45495">
        <ele>319.3</ele>
        <time>2022-09-25T13:42:42Z</time>
      </trkpt>
      <trkpt lat="44.5531" lon="1.45496">
        <ele>320.5</ele>
        <time>2022-09-25T13:42:47Z</time>
      </trkpt>
      <trkpt lat="44.55313" lon="1.45502">
        <ele>322</ele>
        <time>2022-09-25T13:44:15Z</time>
      </trkpt>
      <trkpt lat="44.55317" lon="1.45497">
        <ele>321.3</ele>
        <time>2022-09-25T13:48:01Z</time>
      </trkpt>
      <trkpt lat="44.55319" lon="1.4549">
        <ele>319.9</ele>
        <time>2022-09-25T13:48:07Z</time>
      </trkpt>
      <trkpt lat="44.55321" lon="1.45483">
        <ele>318.3</ele>
        <time>2022-09-25T13:48:14Z</time>
      </trkpt>
      <trkpt lat="44.55323" lon="1.45477">
        <ele>318</ele>
        <time>2022-09-25T13:48:21Z</time>
      </trkpt>
      <trkpt lat="44.55322" lon="1.4547">
        <ele>319.6</ele>
        <time>2022-09-25T13:48:31Z</time>
      </trkpt>
      <trkpt lat="44.55326" lon="1.45465">
        <ele>320.2</ele>
        <time>2022-09-25T13:48:38Z</time>
      </trkpt>
      <trkpt lat="44.55329" lon="1.4546">
        <ele>320</ele>
        <time>2022-09-25T13:48:44Z</time>
      </trkpt>
      <trkpt lat="44.55332" lon="1.45455">
        <ele>319.7</ele>
        <time>2022-09-25T13:48:51Z</time>
      </trkpt>
      <trkpt lat="44.55335" lon="1.45449">
        <ele>320.5</ele>
        <time>2022-09-25T13:49:30Z</time>
      </trkpt>
      <trkpt lat="44.55337" lon="1.45444">
        <ele>319.7</ele>
        <time>2022-09-25T13:49:36Z</time>
      </trkpt>
      <trkpt lat="44.5534" lon="1.45438">
        <ele>318.8</ele>
        <time>2022-09-25T13:49:43Z</time>
      </trkpt>
      <trkpt lat="44.55342" lon="1.45432">
        <ele>318.5</ele>
        <time>2022-09-25T13:49:49Z</time>
      </trkpt>
      <trkpt lat="44.55344" lon="1.45426">
        <ele>318.1</ele>
        <time>2022-09-25T13:49:55Z</time>
      </trkpt>
      <trkpt lat="44.55346" lon="1.45419">
        <ele>317.8</ele>
        <time>2022-09-25T13:50:01Z</time>
      </trkpt>
      <trkpt lat="44.55347" lon="1.45413">
        <ele>317.5</ele>
        <time>2022-09-25T13:50:06Z</time>
      </trkpt>
      <trkpt lat="44.55348" lon="1.45407">
        <ele>317.1</ele>
        <time>2022-09-25T13:50:11Z</time>
      </trkpt>
      <trkpt lat="44.5535" lon="1.45401">
        <ele>316</ele>
        <time>2022-09-25T13:50:16Z</time>
      </trkpt>
      <trkpt lat="44.5535" lon="1.45394">
        <ele>315.3</ele>
        <time>2022-09-25T13:50:21Z</time>
      </trkpt>
      <trkpt lat="44.55349" lon="1.45387">
        <ele>315.4</ele>
        <time>2022-09-25T13:50:26Z</time>
      </trkpt>
      <trkpt lat="44.55348" lon="1.45381">
        <ele>315.9</ele>
        <time>2022-09-25T13:50:31Z</time>
      </trkpt>
      <trkpt lat="44.55347" lon="1.45374">
        <ele>315.1</ele>
        <time>2022-09-25T13:50:36Z</time>
      </trkpt>
      <trkpt lat="44.55347" lon="1.45367">
        <ele>314.7</ele>
        <time>2022-09-25T13:50:41Z</time>
      </trkpt>
      <trkpt lat="44.55345" lon="1.45361">
        <ele>314.4</ele>
        <time>2022-09-25T13:50:46Z</time>
      </trkpt>
      <trkpt lat="44.55344" lon="1.45354">
        <ele>314.7</ele>
        <time>2022-09-25T13:50:51Z</time>
      </trkpt>
      <trkpt lat="44.55343" lon="1.45347">
        <ele>314.7</ele>
        <time>2022-09-25T13:50:56Z</time>
      </trkpt>
      <trkpt lat="44.55342" lon="1.4534">
        <ele>314.1</ele>
        <time>2022-09-25T13:51:01Z</time>
      </trkpt>
      <trkpt lat="44.55341" lon="1.45333">
        <ele>314</ele>
        <time>2022-09-25T13:51:06Z</time>
      </trkpt>
      <trkpt lat="44.55341" lon="1.45326">
        <ele>313.9</ele>
        <time>2022-09-25T13:51:11Z</time>
      </trkpt>
      <trkpt lat="44.5534" lon="1.45319">
        <ele>314.1</ele>
        <time>2022-09-25T13:51:16Z</time>
      </trkpt>
      <trkpt lat="44.55339" lon="1.45312">
        <ele>314.7</ele>
        <time>2022-09-25T13:51:21Z</time>
      </trkpt>
      <trkpt lat="44.55338" lon="1.45305">
        <ele>314.5</ele>
        <time>2022-09-25T13:51:26Z</time>
      </trkpt>
      <trkpt lat="44.55337" lon="1.45298">
        <ele>313.6</ele>
        <time>2022-09-25T13:51:31Z</time>
      </trkpt>
      <trkpt lat="44.55337" lon="1.4529">
        <ele>312.3</ele>
        <time>2022-09-25T13:51:36Z</time>
      </trkpt>
      <trkpt lat="44.55336" lon="1.45283">
        <ele>311.4</ele>
        <time>2022-09-25T13:51:41Z</time>
      </trkpt>
      <trkpt lat="44.55335" lon="1.45276">
        <ele>310.9</ele>
        <time>2022-09-25T13:51:46Z</time>
      </trkpt>
      <trkpt lat="44.55334" lon="1.45269">
        <ele>309.8</ele>
        <time>2022-09-25T13:51:51Z</time>
      </trkpt>
      <trkpt lat="44.55333" lon="1.45262">
        <ele>309.2</ele>
        <time>2022-09-25T13:51:56Z</time>
      </trkpt>
      <trkpt lat="44.55332" lon="1.45255">
        <ele>308.8</ele>
        <time>2022-09-25T13:52:01Z</time>
      </trkpt>
      <trkpt lat="44.55331" lon="1.45248">
        <ele>308.8</ele>
        <time>2022-09-25T13:52:06Z</time>
      </trkpt>
      <trkpt lat="44.55329" lon="1.45242">
        <ele>308.9</ele>
        <time>2022-09-25T13:52:11Z</time>
      </trkpt>
      <trkpt lat="44.55328" lon="1.45236">
        <ele>307.6</ele>
        <time>2022-09-25T13:52:16Z</time>
      </trkpt>
      <trkpt lat="44.55326" lon="1.45229">
        <ele>306.6</ele>
        <time>2022-09-25T13:52:21Z</time>
      </trkpt>
      <trkpt lat="44.55324" lon="1.45223">
        <ele>305.8</ele>
        <time>2022-09-25T13:52:26Z</time>
      </trkpt>
      <trkpt lat="44.55323" lon="1.45216">
        <ele>305.2</ele>
        <time>2022-09-25T13:52:31Z</time>
      </trkpt>
      <trkpt lat="44.55321" lon="1.4521">
        <ele>304.4</ele>
        <time>2022-09-25T13:52:36Z</time>
      </trkpt>
      <trkpt lat="44.55319" lon="1.45203">
        <ele>303.8</ele>
        <time>2022-09-25T13:52:41Z</time>
      </trkpt>
      <trkpt lat="44.55318" lon="1.45197">
        <ele>303.6</ele>
        <time>2022-09-25T13:52:46Z</time>
      </trkpt>
      <trkpt lat="44.55316" lon="1.4519">
        <ele>303.2</ele>
        <time>2022-09-25T13:52:51Z</time>
      </trkpt>
      <trkpt lat="44.55315" lon="1.45183">
        <ele>302.9</ele>
        <time>2022-09-25T13:52:56Z</time>
      </trkpt>
      <trkpt lat="44.55313" lon="1.45176">
        <ele>302</ele>
        <time>2022-09-25T13:53:01Z</time>
      </trkpt>
      <trkpt lat="44.55313" lon="1.4517">
        <ele>301.1</ele>
        <time>2022-09-25T13:53:06Z</time>
      </trkpt>
      <trkpt lat="44.55312" lon="1.45163">
        <ele>300.2</ele>
        <time>2022-09-25T13:53:11Z</time>
      </trkpt>
      <trkpt lat="44.55312" lon="1.45156">
        <ele>299.5</ele>
        <time>2022-09-25T13:53:16Z</time>
      </trkpt>
      <trkpt lat="44.55312" lon="1.45148">
        <ele>298.5</ele>
        <time>2022-09-25T13:53:21Z</time>
      </trkpt>
      <trkpt lat="44.55313" lon="1.45142">
        <ele>297.9</ele>
        <time>2022-09-25T13:53:25Z</time>
      </trkpt>
      <trkpt lat="44.55314" lon="1.45135">
        <ele>297.6</ele>
        <time>2022-09-25T13:53:30Z</time>
      </trkpt>
      <trkpt lat="44.55314" lon="1.45128">
        <ele>297.6</ele>
        <time>2022-09-25T13:53:35Z</time>
      </trkpt>
      <trkpt lat="44.55312" lon="1.45121">
        <ele>298.1</ele>
        <time>2022-09-25T13:53:40Z</time>
      </trkpt>
      <trkpt lat="44.55311" lon="1.45114">
        <ele>298</ele>
        <time>2022-09-25T13:53:46Z</time>
      </trkpt>
      <trkpt lat="44.5531" lon="1.45108">
        <ele>297.3</ele>
        <time>2022-09-25T13:53:51Z</time>
      </trkpt>
      <trkpt lat="44.55311" lon="1.45101">
        <ele>296.6</ele>
        <time>2022-09-25T13:53:56Z</time>
      </trkpt>
      <trkpt lat="44.55312" lon="1.45094">
        <ele>295.7</ele>
        <time>2022-09-25T13:54:01Z</time>
      </trkpt>
      <trkpt lat="44.55312" lon="1.45088">
        <ele>295.2</ele>
        <time>2022-09-25T13:54:06Z</time>
      </trkpt>
      <trkpt lat="44.55313" lon="1.45082">
        <ele>296</ele>
        <time>2022-09-25T13:54:11Z</time>
      </trkpt>
      <trkpt lat="44.55315" lon="1.45075">
        <ele>297.5</ele>
        <time>2022-09-25T13:54:17Z</time>
      </trkpt>
      <trkpt lat="44.55319" lon="1.45071">
        <ele>299.6</ele>
        <time>2022-09-25T13:54:22Z</time>
      </trkpt>
      <trkpt lat="44.5532" lon="1.45065">
        <ele>300.7</ele>
        <time>2022-09-25T13:54:28Z</time>
      </trkpt>
      <trkpt lat="44.55319" lon="1.45058">
        <ele>300.8</ele>
        <time>2022-09-25T13:54:34Z</time>
      </trkpt>
      <trkpt lat="44.55318" lon="1.45051">
        <ele>300.8</ele>
        <time>2022-09-25T13:54:40Z</time>
      </trkpt>
      <trkpt lat="44.55318" lon="1.45043">
        <ele>301.9</ele>
        <time>2022-09-25T13:54:46Z</time>
      </trkpt>
      <trkpt lat="44.55318" lon="1.45036">
        <ele>302</ele>
        <time>2022-09-25T13:54:51Z</time>
      </trkpt>
      <trkpt lat="44.55317" lon="1.45029">
        <ele>302.1</ele>
        <time>2022-09-25T13:54:56Z</time>
      </trkpt>
      <trkpt lat="44.55317" lon="1.45022">
        <ele>302.3</ele>
        <time>2022-09-25T13:55:01Z</time>
      </trkpt>
      <trkpt lat="44.55317" lon="1.45016">
        <ele>301.7</ele>
        <time>2022-09-25T13:55:06Z</time>
      </trkpt>
      <trkpt lat="44.55317" lon="1.45009">
        <ele>301.5</ele>
        <time>2022-09-25T13:55:11Z</time>
      </trkpt>
      <trkpt lat="44.55316" lon="1.45002">
        <ele>301.5</ele>
        <time>2022-09-25T13:55:16Z</time>
      </trkpt>
      <trkpt lat="44.55315" lon="1.44996">
        <ele>301.6</ele>
        <time>2022-09-25T13:55:21Z</time>
      </trkpt>
      <trkpt lat="44.55314" lon="1.44989">
        <ele>301</ele>
        <time>2022-09-25T13:55:26Z</time>
      </trkpt>
      <trkpt lat="44.55312" lon="1.44983">
        <ele>300.2</ele>
        <time>2022-09-25T13:55:32Z</time>
      </trkpt>
      <trkpt lat="44.55311" lon="1.44977">
        <ele>299.1</ele>
        <time>2022-09-25T13:55:39Z</time>
      </trkpt>
      <trkpt lat="44.55309" lon="1.44971">
        <ele>298.2</ele>
        <time>2022-09-25T13:55:46Z</time>
      </trkpt>
      <trkpt lat="44.55308" lon="1.44964">
        <ele>298.2</ele>
        <time>2022-09-25T13:55:54Z</time>
      </trkpt>
      <trkpt lat="44.55305" lon="1.44958">
        <ele>297.4</ele>
        <time>2022-09-25T13:56:01Z</time>
      </trkpt>
      <trkpt lat="44.55302" lon="1.44951">
        <ele>297.1</ele>
        <time>2022-09-25T13:56:08Z</time>
      </trkpt>
      <trkpt lat="44.55301" lon="1.44944">
        <ele>297.2</ele>
        <time>2022-09-25T13:56:16Z</time>
      </trkpt>
      <trkpt lat="44.55299" lon="1.44938">
        <ele>297.6</ele>
        <time>2022-09-25T13:56:23Z</time>
      </trkpt>
      <trkpt lat="44.55298" lon="1.44932">
        <ele>297.1</ele>
        <time>2022-09-25T13:56:31Z</time>
      </trkpt>
      <trkpt lat="44.55297" lon="1.44925">
        <ele>296.3</ele>
        <time>2022-09-25T13:56:39Z</time>
      </trkpt>
      <trkpt lat="44.55298" lon="1.44918">
        <ele>295</ele>
        <time>2022-09-25T13:56:46Z</time>
      </trkpt>
      <trkpt lat="44.55299" lon="1.44912">
        <ele>293.6</ele>
        <time>2022-09-25T13:56:53Z</time>
      </trkpt>
      <trkpt lat="44.553" lon="1.44905">
        <ele>292.4</ele>
        <time>2022-09-25T13:56:59Z</time>
      </trkpt>
      <trkpt lat="44.55301" lon="1.44899">
        <ele>291</ele>
        <time>2022-09-25T13:57:04Z</time>
      </trkpt>
      <trkpt lat="44.55301" lon="1.44892">
        <ele>290.7</ele>
        <time>2022-09-25T13:57:10Z</time>
      </trkpt>
      <trkpt lat="44.55301" lon="1.44885">
        <ele>290.3</ele>
        <time>2022-09-25T13:57:16Z</time>
      </trkpt>
      <trkpt lat="44.55302" lon="1.44878">
        <ele>289.4</ele>
        <time>2022-09-25T13:57:24Z</time>
      </trkpt>
      <trkpt lat="44.55307" lon="1.44879">
        <ele>288.6</ele>
        <time>2022-09-25T13:57:29Z</time>
      </trkpt>
      <trkpt lat="44.5531" lon="1.44883">
        <ele>287.8</ele>
        <time>2022-09-25T13:57:35Z</time>
      </trkpt>
      <trkpt lat="44.55309" lon="1.44889">
        <ele>287.7</ele>
        <time>2022-09-25T13:57:59Z</time>
      </trkpt>
      <trkpt lat="44.55305" lon="1.44885">
        <ele>287.8</ele>
        <time>2022-09-25T13:59:05Z</time>
      </trkpt>
      <trkpt lat="44.55305" lon="1.44877">
        <ele>287.8</ele>
        <time>2022-09-25T13:59:11Z</time>
      </trkpt>
      <trkpt lat="44.55306" lon="1.44871">
        <ele>286.4</ele>
        <time>2022-09-25T13:59:16Z</time>
      </trkpt>
      <trkpt lat="44.55306" lon="1.44863">
        <ele>285.2</ele>
        <time>2022-09-25T13:59:22Z</time>
      </trkpt>
      <trkpt lat="44.55308" lon="1.44856">
        <ele>283.2</ele>
        <time>2022-09-25T13:59:28Z</time>
      </trkpt>
      <trkpt lat="44.55309" lon="1.44849">
        <ele>281.7</ele>
        <time>2022-09-25T13:59:33Z</time>
      </trkpt>
      <trkpt lat="44.5531" lon="1.44842">
        <ele>280.7</ele>
        <time>2022-09-25T13:59:38Z</time>
      </trkpt>
      <trkpt lat="44.5531" lon="1.44836">
        <ele>280.3</ele>
        <time>2022-09-25T13:59:42Z</time>
      </trkpt>
      <trkpt lat="44.55312" lon="1.44829">
        <ele>279.7</ele>
        <time>2022-09-25T13:59:47Z</time>
      </trkpt>
      <trkpt lat="44.55312" lon="1.44822">
        <ele>278.6</ele>
        <time>2022-09-25T13:59:52Z</time>
      </trkpt>
      <trkpt lat="44.55313" lon="1.44815">
        <ele>277.1</ele>
        <time>2022-09-25T13:59:57Z</time>
      </trkpt>
      <trkpt lat="44.55313" lon="1.44809">
        <ele>276.4</ele>
        <time>2022-09-25T14:00:02Z</time>
      </trkpt>
      <trkpt lat="44.55313" lon="1.44802">
        <ele>275.8</ele>
        <time>2022-09-25T14:00:07Z</time>
      </trkpt>
      <trkpt lat="44.55313" lon="1.44794">
        <ele>274.8</ele>
        <time>2022-09-25T14:00:12Z</time>
      </trkpt>
      <trkpt lat="44.55314" lon="1.44787">
        <ele>273.3</ele>
        <time>2022-09-25T14:00:17Z</time>
      </trkpt>
      <trkpt lat="44.55314" lon="1.4478">
        <ele>271.9</ele>
        <time>2022-09-25T14:00:22Z</time>
      </trkpt>
      <trkpt lat="44.55314" lon="1.44772">
        <ele>270.9</ele>
        <time>2022-09-25T14:00:27Z</time>
      </trkpt>
      <trkpt lat="44.55315" lon="1.44765">
        <ele>270.1</ele>
        <time>2022-09-25T14:00:32Z</time>
      </trkpt>
      <trkpt lat="44.55315" lon="1.44758">
        <ele>268.8</ele>
        <time>2022-09-25T14:00:37Z</time>
      </trkpt>
      <trkpt lat="44.55316" lon="1.44751">
        <ele>267.5</ele>
        <time>2022-09-25T14:00:42Z</time>
      </trkpt>
      <trkpt lat="44.55316" lon="1.44745">
        <ele>266.7</ele>
        <time>2022-09-25T14:00:47Z</time>
      </trkpt>
      <trkpt lat="44.55317" lon="1.44738">
        <ele>265.4</ele>
        <time>2022-09-25T14:00:53Z</time>
      </trkpt>
      <trkpt lat="44.55318" lon="1.44731">
        <ele>263.8</ele>
        <time>2022-09-25T14:00:58Z</time>
      </trkpt>
      <trkpt lat="44.55319" lon="1.44724">
        <ele>262.8</ele>
        <time>2022-09-25T14:01:03Z</time>
      </trkpt>
      <trkpt lat="44.5532" lon="1.44717">
        <ele>262.3</ele>
        <time>2022-09-25T14:01:09Z</time>
      </trkpt>
      <trkpt lat="44.55322" lon="1.4471">
        <ele>261.9</ele>
        <time>2022-09-25T14:01:15Z</time>
      </trkpt>
      <trkpt lat="44.55325" lon="1.44704">
        <ele>262.1</ele>
        <time>2022-09-25T14:01:20Z</time>
      </trkpt>
      <trkpt lat="44.55326" lon="1.44698">
        <ele>261.5</ele>
        <time>2022-09-25T14:01:27Z</time>
      </trkpt>
      <trkpt lat="44.55327" lon="1.44691">
        <ele>259.7</ele>
        <time>2022-09-25T14:01:35Z</time>
      </trkpt>
      <trkpt lat="44.55329" lon="1.44685">
        <ele>258.5</ele>
        <time>2022-09-25T14:01:46Z</time>
      </trkpt>
      <trkpt lat="44.5533" lon="1.44678">
        <ele>256.8</ele>
        <time>2022-09-25T14:02:03Z</time>
      </trkpt>
      <trkpt lat="44.55331" lon="1.44672">
        <ele>255.8</ele>
        <time>2022-09-25T14:02:09Z</time>
      </trkpt>
      <trkpt lat="44.55331" lon="1.44665">
        <ele>255</ele>
        <time>2022-09-25T14:02:17Z</time>
      </trkpt>
      <trkpt lat="44.55333" lon="1.44659">
        <ele>254.4</ele>
        <time>2022-09-25T14:02:46Z</time>
      </trkpt>
      <trkpt lat="44.55335" lon="1.44653">
        <ele>252.9</ele>
        <time>2022-09-25T14:02:53Z</time>
      </trkpt>
      <trkpt lat="44.55337" lon="1.44647">
        <ele>251.1</ele>
        <time>2022-09-25T14:03:00Z</time>
      </trkpt>
      <trkpt lat="44.55338" lon="1.4464">
        <ele>250</ele>
        <time>2022-09-25T14:03:13Z</time>
      </trkpt>
      <trkpt lat="44.5534" lon="1.44635">
        <ele>249.3</ele>
        <time>2022-09-25T14:03:22Z</time>
      </trkpt>
      <trkpt lat="44.55343" lon="1.4463">
        <ele>248</ele>
        <time>2022-09-25T14:03:32Z</time>
      </trkpt>
      <trkpt lat="44.55344" lon="1.44624">
        <ele>247.2</ele>
        <time>2022-09-25T14:03:43Z</time>
      </trkpt>
      <trkpt lat="44.55347" lon="1.44618">
        <ele>246.2</ele>
        <time>2022-09-25T14:04:02Z</time>
      </trkpt>
      <trkpt lat="44.5535" lon="1.44613">
        <ele>245.3</ele>
        <time>2022-09-25T14:04:11Z</time>
      </trkpt>
      <trkpt lat="44.55354" lon="1.4461">
        <ele>244.4</ele>
        <time>2022-09-25T14:04:19Z</time>
      </trkpt>
      <trkpt lat="44.55357" lon="1.44605">
        <ele>243.7</ele>
        <time>2022-09-25T14:04:26Z</time>
      </trkpt>
      <trkpt lat="44.55362" lon="1.44603">
        <ele>242.6</ele>
        <time>2022-09-25T14:04:33Z</time>
      </trkpt>
      <trkpt lat="44.55367" lon="1.44602">
        <ele>241.4</ele>
        <time>2022-09-25T14:04:39Z</time>
      </trkpt>
      <trkpt lat="44.55372" lon="1.44601">
        <ele>240.5</ele>
        <time>2022-09-25T14:04:45Z</time>
      </trkpt>
      <trkpt lat="44.55377" lon="1.44602">
        <ele>239.7</ele>
        <time>2022-09-25T14:04:51Z</time>
      </trkpt>
      <trkpt lat="44.55382" lon="1.44602">
        <ele>239</ele>
        <time>2022-09-25T14:04:57Z</time>
      </trkpt>
      <trkpt lat="44.55387" lon="1.44602">
        <ele>238.7</ele>
        <time>2022-09-25T14:05:03Z</time>
      </trkpt>
      <trkpt lat="44.55392" lon="1.44601">
        <ele>238.5</ele>
        <time>2022-09-25T14:05:09Z</time>
      </trkpt>
      <trkpt lat="44.55397" lon="1.44603">
        <ele>237.5</ele>
        <time>2022-09-25T14:05:15Z</time>
      </trkpt>
      <trkpt lat="44.55402" lon="1.44605">
        <ele>235.6</ele>
        <time>2022-09-25T14:05:21Z</time>
      </trkpt>
      <trkpt lat="44.55407" lon="1.44606">
        <ele>234.8</ele>
        <time>2022-09-25T14:05:27Z</time>
      </trkpt>
      <trkpt lat="44.55411" lon="1.44605">
        <ele>234.4</ele>
        <time>2022-09-25T14:06:02Z</time>
      </trkpt>
      <trkpt lat="44.55415" lon="1.44608">
        <ele>235.7</ele>
        <time>2022-09-25T14:06:24Z</time>
      </trkpt>
      <trkpt lat="44.5542" lon="1.44607">
        <ele>235.4</ele>
        <time>2022-09-25T14:06:47Z</time>
      </trkpt>
      <trkpt lat="44.55424" lon="1.44603">
        <ele>233</ele>
        <time>2022-09-25T14:06:53Z</time>
      </trkpt>
      <trkpt lat="44.55429" lon="1.446">
        <ele>230.8</ele>
        <time>2022-09-25T14:06:59Z</time>
      </trkpt>
      <trkpt lat="44.55433" lon="1.44604">
        <ele>229.6</ele>
        <time>2022-09-25T14:07:05Z</time>
      </trkpt>
      <trkpt lat="44.55436" lon="1.4461">
        <ele>230.2</ele>
        <time>2022-09-25T14:07:12Z</time>
      </trkpt>
      <trkpt lat="44.55439" lon="1.44615">
        <ele>230.2</ele>
        <time>2022-09-25T14:07:18Z</time>
      </trkpt>
      <trkpt lat="44.55443" lon="1.4462">
        <ele>229.2</ele>
        <time>2022-09-25T14:07:25Z</time>
      </trkpt>
      <trkpt lat="44.55448" lon="1.44621">
        <ele>229.9</ele>
        <time>2022-09-25T14:07:31Z</time>
      </trkpt>
      <trkpt lat="44.55452" lon="1.4462">
        <ele>231.1</ele>
        <time>2022-09-25T14:07:38Z</time>
      </trkpt>
      <trkpt lat="44.55457" lon="1.4462">
        <ele>232.1</ele>
        <time>2022-09-25T14:07:47Z</time>
      </trkpt>
      <trkpt lat="44.55462" lon="1.44617">
        <ele>231.4</ele>
        <time>2022-09-25T14:08:02Z</time>
      </trkpt>
      <trkpt lat="44.55466" lon="1.44616">
        <ele>230.5</ele>
        <time>2022-09-25T14:10:30Z</time>
      </trkpt>
      <trkpt lat="44.55471" lon="1.4462">
        <ele>230.7</ele>
        <time>2022-09-25T14:10:36Z</time>
      </trkpt>
      <trkpt lat="44.55475" lon="1.44623">
        <ele>230.7</ele>
        <time>2022-09-25T14:10:42Z</time>
      </trkpt>
      <trkpt lat="44.55479" lon="1.44625">
        <ele>231.2</ele>
        <time>2022-09-25T14:10:49Z</time>
      </trkpt>
      <trkpt lat="44.55484" lon="1.44626">
        <ele>231.2</ele>
        <time>2022-09-25T14:10:58Z</time>
      </trkpt>
      <trkpt lat="44.55487" lon="1.4463">
        <ele>229.8</ele>
        <time>2022-09-25T14:11:06Z</time>
      </trkpt>
      <trkpt lat="44.5549" lon="1.44637">
        <ele>229.4</ele>
        <time>2022-09-25T14:11:12Z</time>
      </trkpt>
      <trkpt lat="44.55493" lon="1.44643">
        <ele>229.9</ele>
        <time>2022-09-25T14:11:18Z</time>
      </trkpt>
      <trkpt lat="44.55495" lon="1.44649">
        <ele>229.7</ele>
        <time>2022-09-25T14:11:23Z</time>
      </trkpt>
      <trkpt lat="44.55497" lon="1.44656">
        <ele>229.1</ele>
        <time>2022-09-25T14:11:28Z</time>
      </trkpt>
      <trkpt lat="44.55499" lon="1.44662">
        <ele>228.7</ele>
        <time>2022-09-25T14:11:33Z</time>
      </trkpt>
      <trkpt lat="44.555" lon="1.44668">
        <ele>229.2</ele>
        <time>2022-09-25T14:11:38Z</time>
      </trkpt>
      <trkpt lat="44.55502" lon="1.44674">
        <ele>228.7</ele>
        <time>2022-09-25T14:12:06Z</time>
      </trkpt>
      <trkpt lat="44.55504" lon="1.44668">
        <ele>226.9</ele>
        <time>2022-09-25T14:12:19Z</time>
      </trkpt>
      <trkpt lat="44.55503" lon="1.44661">
        <ele>226.8</ele>
        <time>2022-09-25T14:12:27Z</time>
      </trkpt>
      <trkpt lat="44.55503" lon="1.44655">
        <ele>226.8</ele>
        <time>2022-09-25T14:12:34Z</time>
      </trkpt>
      <trkpt lat="44.55503" lon="1.44648">
        <ele>226</ele>
        <time>2022-09-25T14:12:41Z</time>
      </trkpt>
      <trkpt lat="44.55505" lon="1.44641">
        <ele>224.5</ele>
        <time>2022-09-25T14:12:47Z</time>
      </trkpt>
      <trkpt lat="44.55507" lon="1.44636">
        <ele>224</ele>
        <time>2022-09-25T14:12:53Z</time>
      </trkpt>
      <trkpt lat="44.55512" lon="1.44632">
        <ele>223.5</ele>
        <time>2022-09-25T14:12:59Z</time>
      </trkpt>
      <trkpt lat="44.55516" lon="1.4463">
        <ele>222.1</ele>
        <time>2022-09-25T14:13:05Z</time>
      </trkpt>
      <trkpt lat="44.55521" lon="1.44627">
        <ele>220.9</ele>
        <time>2022-09-25T14:13:11Z</time>
      </trkpt>
      <trkpt lat="44.55525" lon="1.44625">
        <ele>220.4</ele>
        <time>2022-09-25T14:13:16Z</time>
      </trkpt>
      <trkpt lat="44.5553" lon="1.44622">
        <ele>219.7</ele>
        <time>2022-09-25T14:13:22Z</time>
      </trkpt>
      <trkpt lat="44.55535" lon="1.4462">
        <ele>219.3</ele>
        <time>2022-09-25T14:13:28Z</time>
      </trkpt>
      <trkpt lat="44.5554" lon="1.44618">
        <ele>219.2</ele>
        <time>2022-09-25T14:13:33Z</time>
      </trkpt>
      <trkpt lat="44.55545" lon="1.44618">
        <ele>218.8</ele>
        <time>2022-09-25T14:13:38Z</time>
      </trkpt>
      <trkpt lat="44.5555" lon="1.44618">
        <ele>218.4</ele>
        <time>2022-09-25T14:13:43Z</time>
      </trkpt>
      <trkpt lat="44.55555" lon="1.44619">
        <ele>218</ele>
        <time>2022-09-25T14:13:48Z</time>
      </trkpt>
      <trkpt lat="44.5556" lon="1.4462">
        <ele>217.8</ele>
        <time>2022-09-25T14:13:53Z</time>
      </trkpt>
      <trkpt lat="44.55565" lon="1.44622">
        <ele>217.5</ele>
        <time>2022-09-25T14:13:59Z</time>
      </trkpt>
      <trkpt lat="44.55569" lon="1.44623">
        <ele>217.2</ele>
        <time>2022-09-25T14:14:04Z</time>
      </trkpt>
      <trkpt lat="44.55574" lon="1.44624">
        <ele>217.1</ele>
        <time>2022-09-25T14:14:09Z</time>
      </trkpt>
      <trkpt lat="44.55579" lon="1.44626">
        <ele>217.4</ele>
        <time>2022-09-25T14:14:14Z</time>
      </trkpt>
      <trkpt lat="44.55584" lon="1.44627">
        <ele>217.4</ele>
        <time>2022-09-25T14:14:19Z</time>
      </trkpt>
      <trkpt lat="44.55588" lon="1.44629">
        <ele>217.6</ele>
        <time>2022-09-25T14:14:24Z</time>
      </trkpt>
      <trkpt lat="44.55594" lon="1.4463">
        <ele>217.8</ele>
        <time>2022-09-25T14:14:30Z</time>
      </trkpt>
      <trkpt lat="44.55598" lon="1.44628">
        <ele>217.6</ele>
        <time>2022-09-25T14:14:35Z</time>
      </trkpt>
      <trkpt lat="44.55602" lon="1.44624">
        <ele>218.4</ele>
        <time>2022-09-25T14:14:40Z</time>
      </trkpt>
      <trkpt lat="44.55606" lon="1.44619">
        <ele>218.3</ele>
        <time>2022-09-25T14:14:47Z</time>
      </trkpt>
      <trkpt lat="44.55608" lon="1.44613">
        <ele>217.8</ele>
        <time>2022-09-25T14:14:53Z</time>
      </trkpt>
      <trkpt lat="44.55608" lon="1.44606">
        <ele>217.6</ele>
        <time>2022-09-25T14:14:58Z</time>
      </trkpt>
      <trkpt lat="44.55608" lon="1.446">
        <ele>217.7</ele>
        <time>2022-09-25T14:15:03Z</time>
      </trkpt>
      <trkpt lat="44.55606" lon="1.44594">
        <ele>218.6</ele>
        <time>2022-09-25T14:15:08Z</time>
      </trkpt>
      <trkpt lat="44.55606" lon="1.44587">
        <ele>218.9</ele>
        <time>2022-09-25T14:15:14Z</time>
      </trkpt>
      <trkpt lat="44.55606" lon="1.4458">
        <ele>219</ele>
        <time>2022-09-25T14:15:20Z</time>
      </trkpt>
      <trkpt lat="44.55608" lon="1.44574">
        <ele>220.3</ele>
        <time>2022-09-25T14:15:30Z</time>
      </trkpt>
      <trkpt lat="44.55606" lon="1.44568">
        <ele>221</ele>
        <time>2022-09-25T14:16:35Z</time>
      </trkpt>
      <trkpt lat="44.55605" lon="1.44562">
        <ele>221.1</ele>
        <time>2022-09-25T14:16:41Z</time>
      </trkpt>
      <trkpt lat="44.55603" lon="1.44556">
        <ele>221.2</ele>
        <time>2022-09-25T14:16:47Z</time>
      </trkpt>
      <trkpt lat="44.55601" lon="1.4455">
        <ele>221.7</ele>
        <time>2022-09-25T14:16:53Z</time>
      </trkpt>
      <trkpt lat="44.55598" lon="1.44544">
        <ele>222.2</ele>
        <time>2022-09-25T14:16:59Z</time>
      </trkpt>
      <trkpt lat="44.55594" lon="1.44539">
        <ele>223</ele>
        <time>2022-09-25T14:17:05Z</time>
      </trkpt>
      <trkpt lat="44.55591" lon="1.44534">
        <ele>223.5</ele>
        <time>2022-09-25T14:17:11Z</time>
      </trkpt>
      <trkpt lat="44.55593" lon="1.44528">
        <ele>221.3</ele>
        <time>2022-09-25T14:17:18Z</time>
      </trkpt>
      <trkpt lat="44.55591" lon="1.44522">
        <ele>220.2</ele>
        <time>2022-09-25T14:17:23Z</time>
      </trkpt>
      <trkpt lat="44.55587" lon="1.44518">
        <ele>219.7</ele>
        <time>2022-09-25T14:17:28Z</time>
      </trkpt>
      <trkpt lat="44.55584" lon="1.44513">
        <ele>219.1</ele>
        <time>2022-09-25T14:17:33Z</time>
      </trkpt>
      <trkpt lat="44.5558" lon="1.44507">
        <ele>218.9</ele>
        <time>2022-09-25T14:17:38Z</time>
      </trkpt>
      <trkpt lat="44.55576" lon="1.44503">
        <ele>219.5</ele>
        <time>2022-09-25T14:17:43Z</time>
      </trkpt>
      <trkpt lat="44.55573" lon="1.44497">
        <ele>220.3</ele>
        <time>2022-09-25T14:17:48Z</time>
      </trkpt>
      <trkpt lat="44.5557" lon="1.44491">
        <ele>219.8</ele>
        <time>2022-09-25T14:17:53Z</time>
      </trkpt>
      <trkpt lat="44.55567" lon="1.44485">
        <ele>219.4</ele>
        <time>2022-09-25T14:17:58Z</time>
      </trkpt>
      <trkpt lat="44.55565" lon="1.4448">
        <ele>219.1</ele>
        <time>2022-09-25T14:18:03Z</time>
      </trkpt>
      <trkpt lat="44.55562" lon="1.44474">
        <ele>219</ele>
        <time>2022-09-25T14:18:08Z</time>
      </trkpt>
      <trkpt lat="44.55559" lon="1.44468">
        <ele>219.5</ele>
        <time>2022-09-25T14:18:13Z</time>
      </trkpt>
      <trkpt lat="44.55556" lon="1.44462">
        <ele>219.8</ele>
        <time>2022-09-25T14:18:18Z</time>
      </trkpt>
      <trkpt lat="44.55555" lon="1.44455">
        <ele>219.6</ele>
        <time>2022-09-25T14:18:23Z</time>
      </trkpt>
      <trkpt lat="44.55554" lon="1.44449">
        <ele>219.4</ele>
        <time>2022-09-25T14:18:28Z</time>
      </trkpt>
      <trkpt lat="44.55554" lon="1.44442">
        <ele>219.5</ele>
        <time>2022-09-25T14:18:33Z</time>
      </trkpt>
      <trkpt lat="44.55554" lon="1.44435">
        <ele>218.9</ele>
        <time>2022-09-25T14:18:38Z</time>
      </trkpt>
      <trkpt lat="44.55553" lon="1.44428">
        <ele>219.5</ele>
        <time>2022-09-25T14:18:44Z</time>
      </trkpt>
      <trkpt lat="44.5555" lon="1.44424">
        <ele>219.3</ele>
        <time>2022-09-25T14:18:52Z</time>
      </trkpt>
      <trkpt lat="44.55546" lon="1.44419">
        <ele>219.4</ele>
        <time>2022-09-25T14:19:03Z</time>
      </trkpt>
      <trkpt lat="44.55543" lon="1.44414">
        <ele>219.6</ele>
        <time>2022-09-25T14:19:11Z</time>
      </trkpt>
      <trkpt lat="44.55539" lon="1.44412">
        <ele>219.7</ele>
        <time>2022-09-25T14:19:30Z</time>
      </trkpt>
      <trkpt lat="44.55533" lon="1.44411">
        <ele>219.5</ele>
        <time>2022-09-25T14:19:36Z</time>
      </trkpt>
      <trkpt lat="44.55529" lon="1.4441">
        <ele>219.4</ele>
        <time>2022-09-25T14:19:41Z</time>
      </trkpt>
      <trkpt lat="44.55524" lon="1.44408">
        <ele>219.5</ele>
        <time>2022-09-25T14:19:47Z</time>
      </trkpt>
      <trkpt lat="44.55518" lon="1.44407">
        <ele>219.7</ele>
        <time>2022-09-25T14:19:53Z</time>
      </trkpt>
      <trkpt lat="44.55514" lon="1.44408">
        <ele>220.3</ele>
        <time>2022-09-25T14:19:59Z</time>
      </trkpt>
      <trkpt lat="44.55509" lon="1.4441">
        <ele>221</ele>
        <time>2022-09-25T14:20:05Z</time>
      </trkpt>
      <trkpt lat="44.55503" lon="1.4441">
        <ele>220.9</ele>
        <time>2022-09-25T14:20:11Z</time>
      </trkpt>
      <trkpt lat="44.55498" lon="1.44409">
        <ele>221.7</ele>
        <time>2022-09-25T14:20:17Z</time>
      </trkpt>
      <trkpt lat="44.55493" lon="1.44406">
        <ele>222.3</ele>
        <time>2022-09-25T14:20:23Z</time>
      </trkpt>
      <trkpt lat="44.55489" lon="1.44403">
        <ele>222.4</ele>
        <time>2022-09-25T14:20:28Z</time>
      </trkpt>
      <trkpt lat="44.55485" lon="1.44399">
        <ele>222.6</ele>
        <time>2022-09-25T14:20:33Z</time>
      </trkpt>
      <trkpt lat="44.55482" lon="1.44394">
        <ele>222.2</ele>
        <time>2022-09-25T14:20:38Z</time>
      </trkpt>
      <trkpt lat="44.55479" lon="1.44389">
        <ele>221.1</ele>
        <time>2022-09-25T14:20:43Z</time>
      </trkpt>
      <trkpt lat="44.55475" lon="1.44384">
        <ele>220.6</ele>
        <time>2022-09-25T14:20:48Z</time>
      </trkpt>
      <trkpt lat="44.55472" lon="1.4438">
        <ele>220.3</ele>
        <time>2022-09-25T14:20:53Z</time>
      </trkpt>
      <trkpt lat="44.55468" lon="1.44375">
        <ele>220.1</ele>
        <time>2022-09-25T14:20:59Z</time>
      </trkpt>
      <trkpt lat="44.55463" lon="1.44373">
        <ele>220.4</ele>
        <time>2022-09-25T14:21:05Z</time>
      </trkpt>
      <trkpt lat="44.55459" lon="1.4437">
        <ele>220.7</ele>
        <time>2022-09-25T14:21:11Z</time>
      </trkpt>
      <trkpt lat="44.55454" lon="1.44368">
        <ele>221</ele>
        <time>2022-09-25T14:21:17Z</time>
      </trkpt>
      <trkpt lat="44.5545" lon="1.44364">
        <ele>220.7</ele>
        <time>2022-09-25T14:21:23Z</time>
      </trkpt>
      <trkpt lat="44.55445" lon="1.4436">
        <ele>220.2</ele>
        <time>2022-09-25T14:21:29Z</time>
      </trkpt>
      <trkpt lat="44.5544" lon="1.44357">
        <ele>219.3</ele>
        <time>2022-09-25T14:21:35Z</time>
      </trkpt>
      <trkpt lat="44.55436" lon="1.44353">
        <ele>218.9</ele>
        <time>2022-09-25T14:21:41Z</time>
      </trkpt>
      <trkpt lat="44.55431" lon="1.4435">
        <ele>219.3</ele>
        <time>2022-09-25T14:21:47Z</time>
      </trkpt>
      <trkpt lat="44.55426" lon="1.44347">
        <ele>219.7</ele>
        <time>2022-09-25T14:21:53Z</time>
      </trkpt>
      <trkpt lat="44.55421" lon="1.44346">
        <ele>220.1</ele>
        <time>2022-09-25T14:21:59Z</time>
      </trkpt>
      <trkpt lat="44.55416" lon="1.44344">
        <ele>220.7</ele>
        <time>2022-09-25T14:22:06Z</time>
      </trkpt>
      <trkpt lat="44.55413" lon="1.44338">
        <ele>220</ele>
        <time>2022-09-25T14:22:12Z</time>
      </trkpt>
      <trkpt lat="44.55409" lon="1.44335">
        <ele>220.3</ele>
        <time>2022-09-25T14:22:17Z</time>
      </trkpt>
      <trkpt lat="44.55404" lon="1.44333">
        <ele>222</ele>
        <time>2022-09-25T14:22:22Z</time>
      </trkpt>
      <trkpt lat="44.55399" lon="1.44331">
        <ele>223.1</ele>
        <time>2022-09-25T14:22:28Z</time>
      </trkpt>
      <trkpt lat="44.55395" lon="1.44329">
        <ele>223.2</ele>
        <time>2022-09-25T14:22:34Z</time>
      </trkpt>
      <trkpt lat="44.5539" lon="1.44328">
        <ele>222.6</ele>
        <time>2022-09-25T14:22:41Z</time>
      </trkpt>
      <trkpt lat="44.55385" lon="1.4433">
        <ele>221.7</ele>
        <time>2022-09-25T14:22:48Z</time>
      </trkpt>
      <trkpt lat="44.5538" lon="1.4433">
        <ele>221</ele>
        <time>2022-09-25T14:22:54Z</time>
      </trkpt>
      <trkpt lat="44.55375" lon="1.44329">
        <ele>219.9</ele>
        <time>2022-09-25T14:22:59Z</time>
      </trkpt>
      <trkpt lat="44.55371" lon="1.4433">
        <ele>219.8</ele>
        <time>2022-09-25T14:23:04Z</time>
      </trkpt>
      <trkpt lat="44.55365" lon="1.44329">
        <ele>220</ele>
        <time>2022-09-25T14:23:10Z</time>
      </trkpt>
      <trkpt lat="44.55361" lon="1.44326">
        <ele>220.1</ele>
        <time>2022-09-25T14:23:15Z</time>
      </trkpt>
      <trkpt lat="44.55358" lon="1.44321">
        <ele>219.6</ele>
        <time>2022-09-25T14:23:20Z</time>
      </trkpt>
      <trkpt lat="44.55354" lon="1.44316">
        <ele>219.5</ele>
        <time>2022-09-25T14:23:25Z</time>
      </trkpt>
      <trkpt lat="44.5535" lon="1.44312">
        <ele>218.7</ele>
        <time>2022-09-25T14:23:30Z</time>
      </trkpt>
      <trkpt lat="44.55346" lon="1.44307">
        <ele>217.9</ele>
        <time>2022-09-25T14:23:35Z</time>
      </trkpt>
      <trkpt lat="44.55343" lon="1.44301">
        <ele>216.4</ele>
        <time>2022-09-25T14:23:40Z</time>
      </trkpt>
      <trkpt lat="44.5534" lon="1.44296">
        <ele>215.1</ele>
        <time>2022-09-25T14:23:45Z</time>
      </trkpt>
      <trkpt lat="44.55335" lon="1.44291">
        <ele>213.9</ele>
        <time>2022-09-25T14:23:50Z</time>
      </trkpt>
      <trkpt lat="44.55332" lon="1.44287">
        <ele>213.2</ele>
        <time>2022-09-25T14:23:55Z</time>
      </trkpt>
      <trkpt lat="44.55328" lon="1.44284">
        <ele>213.2</ele>
        <time>2022-09-25T14:24:00Z</time>
      </trkpt>
      <trkpt lat="44.55324" lon="1.4428">
        <ele>213.2</ele>
        <time>2022-09-25T14:24:05Z</time>
      </trkpt>
      <trkpt lat="44.55319" lon="1.44276">
        <ele>213.1</ele>
        <time>2022-09-25T14:24:10Z</time>
      </trkpt>
      <trkpt lat="44.55315" lon="1.44271">
        <ele>213.4</ele>
        <time>2022-09-25T14:24:15Z</time>
      </trkpt>
      <trkpt lat="44.55311" lon="1.44267">
        <ele>213.9</ele>
        <time>2022-09-25T14:24:20Z</time>
      </trkpt>
      <trkpt lat="44.55307" lon="1.44262">
        <ele>214.3</ele>
        <time>2022-09-25T14:24:25Z</time>
      </trkpt>
      <trkpt lat="44.55303" lon="1.44259">
        <ele>214.2</ele>
        <time>2022-09-25T14:24:29Z</time>
      </trkpt>
      <trkpt lat="44.55299" lon="1.44255">
        <ele>213.9</ele>
        <time>2022-09-25T14:24:34Z</time>
      </trkpt>
      <trkpt lat="44.55295" lon="1.4425">
        <ele>213.8</ele>
        <time>2022-09-25T14:24:39Z</time>
      </trkpt>
      <trkpt lat="44.55291" lon="1.44246">
        <ele>213.9</ele>
        <time>2022-09-25T14:24:44Z</time>
      </trkpt>
      <trkpt lat="44.55288" lon="1.44241">
        <ele>214.6</ele>
        <time>2022-09-25T14:24:49Z</time>
      </trkpt>
      <trkpt lat="44.55284" lon="1.44236">
        <ele>214.3</ele>
        <time>2022-09-25T14:24:54Z</time>
      </trkpt>
      <trkpt lat="44.5528" lon="1.44231">
        <ele>214</ele>
        <time>2022-09-25T14:24:59Z</time>
      </trkpt>
      <trkpt lat="44.55277" lon="1.44226">
        <ele>213.8</ele>
        <time>2022-09-25T14:25:04Z</time>
      </trkpt>
      <trkpt lat="44.55273" lon="1.4422">
        <ele>213.7</ele>
        <time>2022-09-25T14:25:09Z</time>
      </trkpt>
      <trkpt lat="44.5527" lon="1.44215">
        <ele>214.2</ele>
        <time>2022-09-25T14:25:14Z</time>
      </trkpt>
      <trkpt lat="44.55267" lon="1.44209">
        <ele>214.2</ele>
        <time>2022-09-25T14:25:19Z</time>
      </trkpt>
      <trkpt lat="44.55263" lon="1.44203">
        <ele>214.5</ele>
        <time>2022-09-25T14:25:24Z</time>
      </trkpt>
      <trkpt lat="44.55259" lon="1.44198">
        <ele>214.5</ele>
        <time>2022-09-25T14:25:29Z</time>
      </trkpt>
      <trkpt lat="44.55256" lon="1.44192">
        <ele>214.2</ele>
        <time>2022-09-25T14:25:34Z</time>
      </trkpt>
      <trkpt lat="44.55253" lon="1.44186">
        <ele>214</ele>
        <time>2022-09-25T14:25:39Z</time>
      </trkpt>
      <trkpt lat="44.5525" lon="1.44179">
        <ele>213.6</ele>
        <time>2022-09-25T14:25:44Z</time>
      </trkpt>
      <trkpt lat="44.55247" lon="1.44173">
        <ele>213.6</ele>
        <time>2022-09-25T14:25:49Z</time>
      </trkpt>
      <trkpt lat="44.55244" lon="1.44167">
        <ele>214</ele>
        <time>2022-09-25T14:25:54Z</time>
      </trkpt>
      <trkpt lat="44.55241" lon="1.44161">
        <ele>214.3</ele>
        <time>2022-09-25T14:25:59Z</time>
      </trkpt>
      <trkpt lat="44.55238" lon="1.44155">
        <ele>214.4</ele>
        <time>2022-09-25T14:26:04Z</time>
      </trkpt>
      <trkpt lat="44.55236" lon="1.44148">
        <ele>214.2</ele>
        <time>2022-09-25T14:26:09Z</time>
      </trkpt>
      <trkpt lat="44.55233" lon="1.44141">
        <ele>214.1</ele>
        <time>2022-09-25T14:26:14Z</time>
      </trkpt>
      <trkpt lat="44.55231" lon="1.44134">
        <ele>214</ele>
        <time>2022-09-25T14:26:19Z</time>
      </trkpt>
      <trkpt lat="44.55228" lon="1.44128">
        <ele>213.9</ele>
        <time>2022-09-25T14:26:24Z</time>
      </trkpt>
      <trkpt lat="44.55226" lon="1.44121">
        <ele>213.5</ele>
        <time>2022-09-25T14:26:29Z</time>
      </trkpt>
      <trkpt lat="44.55224" lon="1.44114">
        <ele>213.1</ele>
        <time>2022-09-25T14:26:34Z</time>
      </trkpt>
      <trkpt lat="44.55221" lon="1.44107">
        <ele>212.8</ele>
        <time>2022-09-25T14:26:39Z</time>
      </trkpt>
      <trkpt lat="44.55219" lon="1.441">
        <ele>212.9</ele>
        <time>2022-09-25T14:26:44Z</time>
      </trkpt>
      <trkpt lat="44.55217" lon="1.44095">
        <ele>213.3</ele>
        <time>2022-09-25T14:26:48Z</time>
      </trkpt>
      <trkpt lat="44.55215" lon="1.44088">
        <ele>213.6</ele>
        <time>2022-09-25T14:26:53Z</time>
      </trkpt>
      <trkpt lat="44.55214" lon="1.44081">
        <ele>213.6</ele>
        <time>2022-09-25T14:26:58Z</time>
      </trkpt>
      <trkpt lat="44.55212" lon="1.44075">
        <ele>213.5</ele>
        <time>2022-09-25T14:27:03Z</time>
      </trkpt>
      <trkpt lat="44.5521" lon="1.44068">
        <ele>213.3</ele>
        <time>2022-09-25T14:27:08Z</time>
      </trkpt>
      <trkpt lat="44.55208" lon="1.44061">
        <ele>213</ele>
        <time>2022-09-25T14:27:13Z</time>
      </trkpt>
      <trkpt lat="44.55206" lon="1.44054">
        <ele>212.9</ele>
        <time>2022-09-25T14:27:18Z</time>
      </trkpt>
      <trkpt lat="44.55204" lon="1.44047">
        <ele>212.5</ele>
        <time>2022-09-25T14:27:23Z</time>
      </trkpt>
      <trkpt lat="44.55201" lon="1.4404">
        <ele>212.2</ele>
        <time>2022-09-25T14:27:28Z</time>
      </trkpt>
      <trkpt lat="44.55199" lon="1.44034">
        <ele>212.3</ele>
        <time>2022-09-25T14:27:33Z</time>
      </trkpt>
      <trkpt lat="44.55198" lon="1.44027">
        <ele>212.7</ele>
        <time>2022-09-25T14:27:38Z</time>
      </trkpt>
      <trkpt lat="44.55196" lon="1.4402">
        <ele>213.1</ele>
        <time>2022-09-25T14:27:43Z</time>
      </trkpt>
      <trkpt lat="44.55194" lon="1.44014">
        <ele>213.1</ele>
        <time>2022-09-25T14:27:48Z</time>
      </trkpt>
      <trkpt lat="44.55192" lon="1.44007">
        <ele>213.3</ele>
        <time>2022-09-25T14:27:53Z</time>
      </trkpt>
      <trkpt lat="44.5519" lon="1.44001">
        <ele>213.6</ele>
        <time>2022-09-25T14:27:58Z</time>
      </trkpt>
      <trkpt lat="44.55187" lon="1.43995">
        <ele>214</ele>
        <time>2022-09-25T14:28:03Z</time>
      </trkpt>
      <trkpt lat="44.55184" lon="1.4399">
        <ele>214.3</ele>
        <time>2022-09-25T14:28:08Z</time>
      </trkpt>
      <trkpt lat="44.55181" lon="1.43984">
        <ele>214.6</ele>
        <time>2022-09-25T14:28:13Z</time>
      </trkpt>
      <trkpt lat="44.55177" lon="1.43979">
        <ele>215.3</ele>
        <time>2022-09-25T14:28:18Z</time>
      </trkpt>
      <trkpt lat="44.55174" lon="1.43973">
        <ele>215.4</ele>
        <time>2022-09-25T14:28:23Z</time>
      </trkpt>
      <trkpt lat="44.55171" lon="1.43968">
        <ele>215.3</ele>
        <time>2022-09-25T14:28:28Z</time>
      </trkpt>
      <trkpt lat="44.55168" lon="1.43962">
        <ele>215.1</ele>
        <time>2022-09-25T14:28:33Z</time>
      </trkpt>
      <trkpt lat="44.55165" lon="1.43956">
        <ele>215.1</ele>
        <time>2022-09-25T14:28:38Z</time>
      </trkpt>
      <trkpt lat="44.55162" lon="1.4395">
        <ele>215.1</ele>
        <time>2022-09-25T14:28:43Z</time>
      </trkpt>
      <trkpt lat="44.55158" lon="1.43945">
        <ele>215.8</ele>
        <time>2022-09-25T14:28:48Z</time>
      </trkpt>
      <trkpt lat="44.55155" lon="1.4394">
        <ele>216.3</ele>
        <time>2022-09-25T14:28:53Z</time>
      </trkpt>
      <trkpt lat="44.55152" lon="1.43935">
        <ele>216.6</ele>
        <time>2022-09-25T14:28:58Z</time>
      </trkpt>
      <trkpt lat="44.5515" lon="1.43928">
        <ele>215.9</ele>
        <time>2022-09-25T14:29:03Z</time>
      </trkpt>
      <trkpt lat="44.55147" lon="1.43922">
        <ele>215.3</ele>
        <time>2022-09-25T14:29:08Z</time>
      </trkpt>
      <trkpt lat="44.55143" lon="1.43916">
        <ele>215.1</ele>
        <time>2022-09-25T14:29:13Z</time>
      </trkpt>
      <trkpt lat="44.55139" lon="1.43912">
        <ele>214.6</ele>
        <time>2022-09-25T14:29:18Z</time>
      </trkpt>
      <trkpt lat="44.55136" lon="1.43907">
        <ele>213.8</ele>
        <time>2022-09-25T14:29:23Z</time>
      </trkpt>
      <trkpt lat="44.55132" lon="1.43902">
        <ele>213</ele>
        <time>2022-09-25T14:29:28Z</time>
      </trkpt>
      <trkpt lat="44.55128" lon="1.43897">
        <ele>212.5</ele>
        <time>2022-09-25T14:29:33Z</time>
      </trkpt>
      <trkpt lat="44.55125" lon="1.43893">
        <ele>212.2</ele>
        <time>2022-09-25T14:29:38Z</time>
      </trkpt>
      <trkpt lat="44.55121" lon="1.43888">
        <ele>211.6</ele>
        <time>2022-09-25T14:29:43Z</time>
      </trkpt>
      <trkpt lat="44.55116" lon="1.43884">
        <ele>211.3</ele>
        <time>2022-09-25T14:29:48Z</time>
      </trkpt>
      <trkpt lat="44.55111" lon="1.43881">
        <ele>211.2</ele>
        <time>2022-09-25T14:29:53Z</time>
      </trkpt>
      <trkpt lat="44.55107" lon="1.43877">
        <ele>210.8</ele>
        <time>2022-09-25T14:29:58Z</time>
      </trkpt>
      <trkpt lat="44.55102" lon="1.43874">
        <ele>210.6</ele>
        <time>2022-09-25T14:30:03Z</time>
      </trkpt>
      <trkpt lat="44.55098" lon="1.43871">
        <ele>210.2</ele>
        <time>2022-09-25T14:30:07Z</time>
      </trkpt>
      <trkpt lat="44.55093" lon="1.43868">
        <ele>210</ele>
        <time>2022-09-25T14:30:12Z</time>
      </trkpt>
      <trkpt lat="44.55089" lon="1.43865">
        <ele>210.2</ele>
        <time>2022-09-25T14:30:17Z</time>
      </trkpt>
      <trkpt lat="44.55084" lon="1.4386">
        <ele>210.2</ele>
        <time>2022-09-25T14:30:22Z</time>
      </trkpt>
      <trkpt lat="44.5508" lon="1.43856">
        <ele>210.2</ele>
        <time>2022-09-25T14:30:27Z</time>
      </trkpt>
      <trkpt lat="44.55075" lon="1.43853">
        <ele>209.8</ele>
        <time>2022-09-25T14:30:32Z</time>
      </trkpt>
      <trkpt lat="44.5507" lon="1.4385">
        <ele>209.5</ele>
        <time>2022-09-25T14:30:37Z</time>
      </trkpt>
      <trkpt lat="44.55066" lon="1.43846">
        <ele>209.4</ele>
        <time>2022-09-25T14:30:42Z</time>
      </trkpt>
      <trkpt lat="44.55062" lon="1.43841">
        <ele>209.6</ele>
        <time>2022-09-25T14:30:47Z</time>
      </trkpt>
      <trkpt lat="44.55058" lon="1.43836">
        <ele>209.8</ele>
        <time>2022-09-25T14:30:52Z</time>
      </trkpt>
      <trkpt lat="44.55055" lon="1.43831">
        <ele>210.1</ele>
        <time>2022-09-25T14:30:57Z</time>
      </trkpt>
      <trkpt lat="44.55051" lon="1.43826">
        <ele>209.9</ele>
        <time>2022-09-25T14:31:02Z</time>
      </trkpt>
      <trkpt lat="44.55047" lon="1.43821">
        <ele>210.5</ele>
        <time>2022-09-25T14:31:07Z</time>
      </trkpt>
      <trkpt lat="44.55043" lon="1.43818">
        <ele>210.9</ele>
        <time>2022-09-25T14:31:12Z</time>
      </trkpt>
      <trkpt lat="44.55038" lon="1.43816">
        <ele>211.5</ele>
        <time>2022-09-25T14:31:18Z</time>
      </trkpt>
      <trkpt lat="44.55033" lon="1.43815">
        <ele>212.1</ele>
        <time>2022-09-25T14:31:24Z</time>
      </trkpt>
      <trkpt lat="44.55028" lon="1.43814">
        <ele>211.5</ele>
        <time>2022-09-25T14:31:30Z</time>
      </trkpt>
      <trkpt lat="44.55023" lon="1.43815">
        <ele>210.4</ele>
        <time>2022-09-25T14:31:36Z</time>
      </trkpt>
      <trkpt lat="44.55018" lon="1.43816">
        <ele>210.5</ele>
        <time>2022-09-25T14:31:41Z</time>
      </trkpt>
      <trkpt lat="44.55013" lon="1.43816">
        <ele>210.4</ele>
        <time>2022-09-25T14:31:46Z</time>
      </trkpt>
      <trkpt lat="44.55008" lon="1.43816">
        <ele>210.2</ele>
        <time>2022-09-25T14:31:50Z</time>
      </trkpt>
      <trkpt lat="44.55003" lon="1.43817">
        <ele>209.8</ele>
        <time>2022-09-25T14:31:54Z</time>
      </trkpt>
      <trkpt lat="44.54998" lon="1.43818">
        <ele>209.8</ele>
        <time>2022-09-25T14:31:59Z</time>
      </trkpt>
      <trkpt lat="44.54994" lon="1.4382">
        <ele>209.7</ele>
        <time>2022-09-25T14:32:04Z</time>
      </trkpt>
      <trkpt lat="44.54989" lon="1.43821">
        <ele>209.8</ele>
        <time>2022-09-25T14:32:09Z</time>
      </trkpt>
      <trkpt lat="44.54984" lon="1.43821">
        <ele>209.9</ele>
        <time>2022-09-25T14:32:14Z</time>
      </trkpt>
      <trkpt lat="44.54979" lon="1.43821">
        <ele>209.7</ele>
        <time>2022-09-25T14:32:19Z</time>
      </trkpt>
      <trkpt lat="44.54974" lon="1.43822">
        <ele>209.1</ele>
        <time>2022-09-25T14:32:24Z</time>
      </trkpt>
      <trkpt lat="44.54969" lon="1.43822">
        <ele>208.3</ele>
        <time>2022-09-25T14:32:29Z</time>
      </trkpt>
      <trkpt lat="44.54964" lon="1.43822">
        <ele>207.9</ele>
        <time>2022-09-25T14:32:34Z</time>
      </trkpt>
      <trkpt lat="44.54958" lon="1.43821">
        <ele>207.4</ele>
        <time>2022-09-25T14:32:39Z</time>
      </trkpt>
      <trkpt lat="44.54953" lon="1.43821">
        <ele>207.1</ele>
        <time>2022-09-25T14:32:44Z</time>
      </trkpt>
      <trkpt lat="44.54948" lon="1.43821">
        <ele>206.9</ele>
        <time>2022-09-25T14:32:49Z</time>
      </trkpt>
      <trkpt lat="44.54944" lon="1.4382">
        <ele>206.9</ele>
        <time>2022-09-25T14:32:54Z</time>
      </trkpt>
      <trkpt lat="44.54939" lon="1.43818">
        <ele>206.9</ele>
        <time>2022-09-25T14:32:59Z</time>
      </trkpt>
      <trkpt lat="44.54934" lon="1.43815">
        <ele>206.5</ele>
        <time>2022-09-25T14:33:04Z</time>
      </trkpt>
      <trkpt lat="44.54929" lon="1.43812">
        <ele>206.1</ele>
        <time>2022-09-25T14:33:09Z</time>
      </trkpt>
      <trkpt lat="44.54925" lon="1.43808">
        <ele>205.7</ele>
        <time>2022-09-25T14:33:14Z</time>
      </trkpt>
      <trkpt lat="44.54921" lon="1.43803">
        <ele>205.2</ele>
        <time>2022-09-25T14:33:19Z</time>
      </trkpt>
      <trkpt lat="44.54917" lon="1.43798">
        <ele>204.1</ele>
        <time>2022-09-25T14:33:24Z</time>
      </trkpt>
      <trkpt lat="44.54913" lon="1.43793">
        <ele>204.1</ele>
        <time>2022-09-25T14:33:29Z</time>
      </trkpt>
      <trkpt lat="44.5491" lon="1.43787">
        <ele>204.5</ele>
        <time>2022-09-25T14:33:34Z</time>
      </trkpt>
      <trkpt lat="44.54908" lon="1.4378">
        <ele>204.5</ele>
        <time>2022-09-25T14:33:39Z</time>
      </trkpt>
      <trkpt lat="44.54909" lon="1.43774">
        <ele>204.3</ele>
        <time>2022-09-25T14:33:49Z</time>
      </trkpt>
      <trkpt lat="44.54911" lon="1.43768">
        <ele>203.3</ele>
        <time>2022-09-25T14:35:42Z</time>
      </trkpt>
      <trkpt lat="44.54912" lon="1.43761">
        <ele>203.5</ele>
        <time>2022-09-25T14:35:48Z</time>
      </trkpt>
      <trkpt lat="44.54913" lon="1.43754">
        <ele>203.8</ele>
        <time>2022-09-25T14:35:54Z</time>
      </trkpt>
      <trkpt lat="44.54914" lon="1.43747">
        <ele>205.3</ele>
        <time>2022-09-25T14:36:00Z</time>
      </trkpt>
      <trkpt lat="44.54914" lon="1.4374">
        <ele>206.4</ele>
        <time>2022-09-25T14:36:06Z</time>
      </trkpt>
      <trkpt lat="44.54914" lon="1.43732">
        <ele>207</ele>
        <time>2022-09-25T14:36:12Z</time>
      </trkpt>
      <trkpt lat="44.54914" lon="1.43726">
        <ele>207.9</ele>
        <time>2022-09-25T14:36:17Z</time>
      </trkpt>
      <trkpt lat="44.54913" lon="1.43719">
        <ele>208.2</ele>
        <time>2022-09-25T14:36:22Z</time>
      </trkpt>
      <trkpt lat="44.54912" lon="1.43713">
        <ele>208.5</ele>
        <time>2022-09-25T14:36:27Z</time>
      </trkpt>
      <trkpt lat="44.5491" lon="1.43706">
        <ele>208.8</ele>
        <time>2022-09-25T14:36:32Z</time>
      </trkpt>
      <trkpt lat="44.54908" lon="1.43699">
        <ele>208.7</ele>
        <time>2022-09-25T14:36:37Z</time>
      </trkpt>
      <trkpt lat="44.54906" lon="1.43693">
        <ele>208.4</ele>
        <time>2022-09-25T14:36:42Z</time>
      </trkpt>
      <trkpt lat="44.54904" lon="1.43687">
        <ele>208.5</ele>
        <time>2022-09-25T14:36:47Z</time>
      </trkpt>
      <trkpt lat="44.54901" lon="1.43681">
        <ele>208.8</ele>
        <time>2022-09-25T14:36:52Z</time>
      </trkpt>
      <trkpt lat="44.54899" lon="1.43675">
        <ele>209.1</ele>
        <time>2022-09-25T14:36:57Z</time>
      </trkpt>
      <trkpt lat="44.54897" lon="1.43668">
        <ele>209.1</ele>
        <time>2022-09-25T14:37:02Z</time>
      </trkpt>
      <trkpt lat="44.54895" lon="1.43662">
        <ele>209.2</ele>
        <time>2022-09-25T14:37:07Z</time>
      </trkpt>
      <trkpt lat="44.54892" lon="1.43655">
        <ele>209</ele>
        <time>2022-09-25T14:37:12Z</time>
      </trkpt>
      <trkpt lat="44.5489" lon="1.43649">
        <ele>208.8</ele>
        <time>2022-09-25T14:37:17Z</time>
      </trkpt>
      <trkpt lat="44.54887" lon="1.43644">
        <ele>208.8</ele>
        <time>2022-09-25T14:37:22Z</time>
      </trkpt>
      <trkpt lat="44.54884" lon="1.43637">
        <ele>208.5</ele>
        <time>2022-09-25T14:37:27Z</time>
      </trkpt>
      <trkpt lat="44.54881" lon="1.43631">
        <ele>209</ele>
        <time>2022-09-25T14:37:32Z</time>
      </trkpt>
      <trkpt lat="44.54879" lon="1.43625">
        <ele>209.4</ele>
        <time>2022-09-25T14:37:37Z</time>
      </trkpt>
      <trkpt lat="44.54876" lon="1.4362">
        <ele>209.4</ele>
        <time>2022-09-25T14:37:42Z</time>
      </trkpt>
      <trkpt lat="44.54874" lon="1.43614">
        <ele>209.2</ele>
        <time>2022-09-25T14:37:47Z</time>
      </trkpt>
      <trkpt lat="44.54871" lon="1.43609">
        <ele>209.1</ele>
        <time>2022-09-25T14:37:52Z</time>
      </trkpt>
      <trkpt lat="44.54868" lon="1.43603">
        <ele>208.8</ele>
        <time>2022-09-25T14:37:57Z</time>
      </trkpt>
      <trkpt lat="44.54865" lon="1.43597">
        <ele>209.4</ele>
        <time>2022-09-25T14:38:02Z</time>
      </trkpt>
      <trkpt lat="44.54861" lon="1.43591">
        <ele>209.7</ele>
        <time>2022-09-25T14:38:07Z</time>
      </trkpt>
      <trkpt lat="44.54858" lon="1.43586">
        <ele>209.7</ele>
        <time>2022-09-25T14:38:12Z</time>
      </trkpt>
      <trkpt lat="44.54854" lon="1.4358">
        <ele>209.2</ele>
        <time>2022-09-25T14:38:17Z</time>
      </trkpt>
      <trkpt lat="44.5485" lon="1.43576">
        <ele>209.1</ele>
        <time>2022-09-25T14:38:22Z</time>
      </trkpt>
      <trkpt lat="44.54845" lon="1.43574">
        <ele>210.2</ele>
        <time>2022-09-25T14:38:27Z</time>
      </trkpt>
      <trkpt lat="44.54841" lon="1.4357">
        <ele>210.1</ele>
        <time>2022-09-25T14:38:32Z</time>
      </trkpt>
      <trkpt lat="44.54838" lon="1.43565">
        <ele>210</ele>
        <time>2022-09-25T14:38:37Z</time>
      </trkpt>
      <trkpt lat="44.54834" lon="1.43561">
        <ele>210.1</ele>
        <time>2022-09-25T14:38:42Z</time>
      </trkpt>
      <trkpt lat="44.54831" lon="1.43555">
        <ele>210</ele>
        <time>2022-09-25T14:38:47Z</time>
      </trkpt>
      <trkpt lat="44.54829" lon="1.43548">
        <ele>210.2</ele>
        <time>2022-09-25T14:38:52Z</time>
      </trkpt>
      <trkpt lat="44.54827" lon="1.43542">
        <ele>209.6</ele>
        <time>2022-09-25T14:38:56Z</time>
      </trkpt>
      <trkpt lat="44.54825" lon="1.43535">
        <ele>208.5</ele>
        <time>2022-09-25T14:39:01Z</time>
      </trkpt>
      <trkpt lat="44.54823" lon="1.43529">
        <ele>208.4</ele>
        <time>2022-09-25T14:39:06Z</time>
      </trkpt>
      <trkpt lat="44.54821" lon="1.43523">
        <ele>208.8</ele>
        <time>2022-09-25T14:39:11Z</time>
      </trkpt>
      <trkpt lat="44.54819" lon="1.43517">
        <ele>208.7</ele>
        <time>2022-09-25T14:39:16Z</time>
      </trkpt>
      <trkpt lat="44.54816" lon="1.43511">
        <ele>208.6</ele>
        <time>2022-09-25T14:39:21Z</time>
      </trkpt>
      <trkpt lat="44.54812" lon="1.43506">
        <ele>208.3</ele>
        <time>2022-09-25T14:39:26Z</time>
      </trkpt>
      <trkpt lat="44.54809" lon="1.435">
        <ele>209</ele>
        <time>2022-09-25T14:39:31Z</time>
      </trkpt>
      <trkpt lat="44.54807" lon="1.43495">
        <ele>208.9</ele>
        <time>2022-09-25T14:39:35Z</time>
      </trkpt>
      <trkpt lat="44.54804" lon="1.43489">
        <ele>208.1</ele>
        <time>2022-09-25T14:39:40Z</time>
      </trkpt>
      <trkpt lat="44.54801" lon="1.43483">
        <ele>207.2</ele>
        <time>2022-09-25T14:39:46Z</time>
      </trkpt>
      <trkpt lat="44.54797" lon="1.43479">
        <ele>207.2</ele>
        <time>2022-09-25T14:39:51Z</time>
      </trkpt>
      <trkpt lat="44.54794" lon="1.43473">
        <ele>206.8</ele>
        <time>2022-09-25T14:39:56Z</time>
      </trkpt>
      <trkpt lat="44.5479" lon="1.4347">
        <ele>207</ele>
        <time>2022-09-25T14:40:01Z</time>
      </trkpt>
      <trkpt lat="44.54786" lon="1.43464">
        <ele>206.1</ele>
        <time>2022-09-25T14:40:06Z</time>
      </trkpt>
      <trkpt lat="44.54783" lon="1.43459">
        <ele>205.4</ele>
        <time>2022-09-25T14:40:11Z</time>
      </trkpt>
      <trkpt lat="44.54779" lon="1.43455">
        <ele>205.5</ele>
        <time>2022-09-25T14:40:16Z</time>
      </trkpt>
      <trkpt lat="44.54774" lon="1.43451">
        <ele>205.6</ele>
        <time>2022-09-25T14:40:21Z</time>
      </trkpt>
      <trkpt lat="44.5477" lon="1.43448">
        <ele>205.5</ele>
        <time>2022-09-25T14:40:26Z</time>
      </trkpt>
      <trkpt lat="44.54765" lon="1.43446">
        <ele>205.3</ele>
        <time>2022-09-25T14:40:31Z</time>
      </trkpt>
      <trkpt lat="44.54761" lon="1.43443">
        <ele>205.3</ele>
        <time>2022-09-25T14:40:36Z</time>
      </trkpt>
      <trkpt lat="44.54756" lon="1.43441">
        <ele>205.4</ele>
        <time>2022-09-25T14:40:41Z</time>
      </trkpt>
      <trkpt lat="44.54751" lon="1.43438">
        <ele>205.2</ele>
        <time>2022-09-25T14:40:46Z</time>
      </trkpt>
      <trkpt lat="44.54747" lon="1.43436">
        <ele>205.2</ele>
        <time>2022-09-25T14:40:51Z</time>
      </trkpt>
      <trkpt lat="44.54742" lon="1.43433">
        <ele>205.7</ele>
        <time>2022-09-25T14:40:56Z</time>
      </trkpt>
      <trkpt lat="44.54738" lon="1.43429">
        <ele>205.9</ele>
        <time>2022-09-25T14:41:01Z</time>
      </trkpt>
      <trkpt lat="44.54734" lon="1.43425">
        <ele>205.7</ele>
        <time>2022-09-25T14:41:06Z</time>
      </trkpt>
      <trkpt lat="44.5473" lon="1.43421">
        <ele>205.9</ele>
        <time>2022-09-25T14:41:11Z</time>
      </trkpt>
      <trkpt lat="44.54726" lon="1.43416">
        <ele>205.3</ele>
        <time>2022-09-25T14:41:16Z</time>
      </trkpt>
      <trkpt lat="44.54722" lon="1.43411">
        <ele>204.9</ele>
        <time>2022-09-25T14:41:21Z</time>
      </trkpt>
      <trkpt lat="44.54719" lon="1.43406">
        <ele>204.3</ele>
        <time>2022-09-25T14:41:26Z</time>
      </trkpt>
      <trkpt lat="44.54715" lon="1.43401">
        <ele>203.6</ele>
        <time>2022-09-25T14:41:31Z</time>
      </trkpt>
      <trkpt lat="44.5471" lon="1.43398">
        <ele>203.8</ele>
        <time>2022-09-25T14:41:36Z</time>
      </trkpt>
      <trkpt lat="44.54706" lon="1.43394">
        <ele>203.8</ele>
        <time>2022-09-25T14:41:41Z</time>
      </trkpt>
      <trkpt lat="44.54702" lon="1.4339">
        <ele>203.8</ele>
        <time>2022-09-25T14:41:45Z</time>
      </trkpt>
      <trkpt lat="44.54698" lon="1.43385">
        <ele>204</ele>
        <time>2022-09-25T14:41:50Z</time>
      </trkpt>
      <trkpt lat="44.54694" lon="1.43379">
        <ele>204</ele>
        <time>2022-09-25T14:41:55Z</time>
      </trkpt>
      <trkpt lat="44.54691" lon="1.43374">
        <ele>203.7</ele>
        <time>2022-09-25T14:42:00Z</time>
      </trkpt>
      <trkpt lat="44.54687" lon="1.4337">
        <ele>203.7</ele>
        <time>2022-09-25T14:42:05Z</time>
      </trkpt>
      <trkpt lat="44.54684" lon="1.43365">
        <ele>203.2</ele>
        <time>2022-09-25T14:42:10Z</time>
      </trkpt>
      <trkpt lat="44.5468" lon="1.43359">
        <ele>202.5</ele>
        <time>2022-09-25T14:42:15Z</time>
      </trkpt>
      <trkpt lat="44.54677" lon="1.43355">
        <ele>203.3</ele>
        <time>2022-09-25T14:42:20Z</time>
      </trkpt>
      <trkpt lat="44.54674" lon="1.4335">
        <ele>203.6</ele>
        <time>2022-09-25T14:42:25Z</time>
      </trkpt>
      <trkpt lat="44.5467" lon="1.43345">
        <ele>204.5</ele>
        <time>2022-09-25T14:42:30Z</time>
      </trkpt>
      <trkpt lat="44.54666" lon="1.43341">
        <ele>205</ele>
        <time>2022-09-25T14:42:35Z</time>
      </trkpt>
      <trkpt lat="44.54662" lon="1.43337">
        <ele>204.7</ele>
        <time>2022-09-25T14:42:40Z</time>
      </trkpt>
      <trkpt lat="44.54657" lon="1.43333">
        <ele>205.5</ele>
        <time>2022-09-25T14:42:45Z</time>
      </trkpt>
      <trkpt lat="44.54653" lon="1.43329">
        <ele>205.9</ele>
        <time>2022-09-25T14:42:50Z</time>
      </trkpt>
      <trkpt lat="44.54649" lon="1.43324">
        <ele>205.9</ele>
        <time>2022-09-25T14:42:55Z</time>
      </trkpt>
      <trkpt lat="44.54647" lon="1.43317">
        <ele>205.5</ele>
        <time>2022-09-25T14:43:00Z</time>
      </trkpt>
      <trkpt lat="44.54643" lon="1.43311">
        <ele>205.1</ele>
        <time>2022-09-25T14:43:05Z</time>
      </trkpt>
      <trkpt lat="44.5464" lon="1.43306">
        <ele>204.6</ele>
        <time>2022-09-25T14:43:10Z</time>
      </trkpt>
      <trkpt lat="44.54637" lon="1.43299">
        <ele>204.6</ele>
        <time>2022-09-25T14:43:15Z</time>
      </trkpt>
      <trkpt lat="44.54635" lon="1.43292">
        <ele>204.9</ele>
        <time>2022-09-25T14:43:20Z</time>
      </trkpt>
      <trkpt lat="44.54633" lon="1.43285">
        <ele>205.3</ele>
        <time>2022-09-25T14:43:25Z</time>
      </trkpt>
      <trkpt lat="44.54631" lon="1.43279">
        <ele>204.7</ele>
        <time>2022-09-25T14:43:30Z</time>
      </trkpt>
      <trkpt lat="44.54628" lon="1.43273">
        <ele>204.2</ele>
        <time>2022-09-25T14:43:35Z</time>
      </trkpt>
      <trkpt lat="44.54625" lon="1.43268">
        <ele>204.7</ele>
        <time>2022-09-25T14:43:40Z</time>
      </trkpt>
      <trkpt lat="44.54621" lon="1.43263">
        <ele>205.7</ele>
        <time>2022-09-25T14:43:46Z</time>
      </trkpt>
      <trkpt lat="44.54617" lon="1.43258">
        <ele>205.2</ele>
        <time>2022-09-25T14:43:52Z</time>
      </trkpt>
      <trkpt lat="44.54615" lon="1.43252">
        <ele>204.8</ele>
        <time>2022-09-25T14:43:57Z</time>
      </trkpt>
      <trkpt lat="44.54614" lon="1.43245">
        <ele>205.5</ele>
        <time>2022-09-25T14:44:02Z</time>
      </trkpt>
      <trkpt lat="44.54615" lon="1.43238">
        <ele>206.2</ele>
        <time>2022-09-25T14:44:08Z</time>
      </trkpt>
      <trkpt lat="44.54615" lon="1.43231">
        <ele>206.6</ele>
        <time>2022-09-25T14:44:14Z</time>
      </trkpt>
      <trkpt lat="44.54614" lon="1.43225">
        <ele>207.9</ele>
        <time>2022-09-25T14:44:23Z</time>
      </trkpt>
      <trkpt lat="44.54609" lon="1.43228">
        <ele>203.8</ele>
        <time>2022-09-25T14:46:11Z</time>
      </trkpt>
      <trkpt lat="44.54605" lon="1.43231">
        <ele>204.2</ele>
        <time>2022-09-25T14:46:16Z</time>
      </trkpt>
      <trkpt lat="44.54599" lon="1.43231">
        <ele>204.9</ele>
        <time>2022-09-25T14:46:21Z</time>
      </trkpt>
      <trkpt lat="44.54595" lon="1.43229">
        <ele>205.1</ele>
        <time>2022-09-25T14:46:26Z</time>
      </trkpt>
      <trkpt lat="44.5459" lon="1.43226">
        <ele>204.8</ele>
        <time>2022-09-25T14:46:31Z</time>
      </trkpt>
      <trkpt lat="44.54586" lon="1.43224">
        <ele>204.8</ele>
        <time>2022-09-25T14:46:36Z</time>
      </trkpt>
      <trkpt lat="44.54582" lon="1.43222">
        <ele>204.9</ele>
        <time>2022-09-25T14:46:41Z</time>
      </trkpt>
      <trkpt lat="44.54577" lon="1.43219">
        <ele>204.8</ele>
        <time>2022-09-25T14:46:47Z</time>
      </trkpt>
      <trkpt lat="44.54572" lon="1.43218">
        <ele>204.7</ele>
        <time>2022-09-25T14:46:52Z</time>
      </trkpt>
      <trkpt lat="44.54567" lon="1.43215">
        <ele>204.3</ele>
        <time>2022-09-25T14:46:58Z</time>
      </trkpt>
      <trkpt lat="44.54563" lon="1.43213">
        <ele>203.9</ele>
        <time>2022-09-25T14:47:03Z</time>
      </trkpt>
      <trkpt lat="44.54558" lon="1.43211">
        <ele>203.3</ele>
        <time>2022-09-25T14:47:09Z</time>
      </trkpt>
      <trkpt lat="44.54554" lon="1.43208">
        <ele>202.6</ele>
        <time>2022-09-25T14:47:14Z</time>
      </trkpt>
      <trkpt lat="44.54549" lon="1.43205">
        <ele>202.2</ele>
        <time>2022-09-25T14:47:19Z</time>
      </trkpt>
      <trkpt lat="44.54545" lon="1.43203">
        <ele>202</ele>
        <time>2022-09-25T14:47:24Z</time>
      </trkpt>
      <trkpt lat="44.5454" lon="1.432">
        <ele>201.6</ele>
        <time>2022-09-25T14:47:29Z</time>
      </trkpt>
      <trkpt lat="44.54535" lon="1.43198">
        <ele>201.9</ele>
        <time>2022-09-25T14:47:34Z</time>
      </trkpt>
      <trkpt lat="44.5453" lon="1.43196">
        <ele>201.7</ele>
        <time>2022-09-25T14:47:39Z</time>
      </trkpt>
      <trkpt lat="44.54526" lon="1.43192">
        <ele>201.1</ele>
        <time>2022-09-25T14:47:44Z</time>
      </trkpt>
      <trkpt lat="44.54522" lon="1.43189">
        <ele>200.3</ele>
        <time>2022-09-25T14:47:49Z</time>
      </trkpt>
      <trkpt lat="44.54517" lon="1.43187">
        <ele>200.5</ele>
        <time>2022-09-25T14:47:54Z</time>
      </trkpt>
      <trkpt lat="44.54512" lon="1.43184">
        <ele>201.1</ele>
        <time>2022-09-25T14:47:59Z</time>
      </trkpt>
      <trkpt lat="44.54507" lon="1.43182">
        <ele>202.2</ele>
        <time>2022-09-25T14:48:04Z</time>
      </trkpt>
      <trkpt lat="44.54503" lon="1.43179">
        <ele>202.7</ele>
        <time>2022-09-25T14:48:09Z</time>
      </trkpt>
      <trkpt lat="44.54498" lon="1.43176">
        <ele>203.3</ele>
        <time>2022-09-25T14:48:14Z</time>
      </trkpt>
      <trkpt lat="44.54494" lon="1.43173">
        <ele>204</ele>
        <time>2022-09-25T14:48:19Z</time>
      </trkpt>
      <trkpt lat="44.5449" lon="1.43169">
        <ele>204.3</ele>
        <time>2022-09-25T14:48:24Z</time>
      </trkpt>
      <trkpt lat="44.54486" lon="1.43166">
        <ele>203.9</ele>
        <time>2022-09-25T14:48:29Z</time>
      </trkpt>
      <trkpt lat="44.54482" lon="1.43162">
        <ele>204</ele>
        <time>2022-09-25T14:48:34Z</time>
      </trkpt>
      <trkpt lat="44.54477" lon="1.43159">
        <ele>203.8</ele>
        <time>2022-09-25T14:48:39Z</time>
      </trkpt>
      <trkpt lat="44.54472" lon="1.43157">
        <ele>203.5</ele>
        <time>2022-09-25T14:48:45Z</time>
      </trkpt>
      <trkpt lat="44.54467" lon="1.43156">
        <ele>203</ele>
        <time>2022-09-25T14:48:51Z</time>
      </trkpt>
      <trkpt lat="44.54462" lon="1.43154">
        <ele>203</ele>
        <time>2022-09-25T14:48:56Z</time>
      </trkpt>
      <trkpt lat="44.54458" lon="1.43153">
        <ele>203</ele>
        <time>2022-09-25T14:49:01Z</time>
      </trkpt>
      <trkpt lat="44.54453" lon="1.4315">
        <ele>202.2</ele>
        <time>2022-09-25T14:49:06Z</time>
      </trkpt>
      <trkpt lat="44.54448" lon="1.43146">
        <ele>201.8</ele>
        <time>2022-09-25T14:49:11Z</time>
      </trkpt>
      <trkpt lat="44.54444" lon="1.43143">
        <ele>201.5</ele>
        <time>2022-09-25T14:49:15Z</time>
      </trkpt>
      <trkpt lat="44.5444" lon="1.4314">
        <ele>201.6</ele>
        <time>2022-09-25T14:49:19Z</time>
      </trkpt>
      <trkpt lat="44.54436" lon="1.43136">
        <ele>201.6</ele>
        <time>2022-09-25T14:49:23Z</time>
      </trkpt>
      <trkpt lat="44.54433" lon="1.43131">
        <ele>200.8</ele>
        <time>2022-09-25T14:49:28Z</time>
      </trkpt>
      <trkpt lat="44.54429" lon="1.43126">
        <ele>200.2</ele>
        <time>2022-09-25T14:49:33Z</time>
      </trkpt>
      <trkpt lat="44.54425" lon="1.43122">
        <ele>199.6</ele>
        <time>2022-09-25T14:49:38Z</time>
      </trkpt>
      <trkpt lat="44.54422" lon="1.43118">
        <ele>199.6</ele>
        <time>2022-09-25T14:49:43Z</time>
      </trkpt>
      <trkpt lat="44.54417" lon="1.43114">
        <ele>200.2</ele>
        <time>2022-09-25T14:49:48Z</time>
      </trkpt>
      <trkpt lat="44.54414" lon="1.4311">
        <ele>200</ele>
        <time>2022-09-25T14:49:52Z</time>
      </trkpt>
      <trkpt lat="44.54409" lon="1.43106">
        <ele>200.1</ele>
        <time>2022-09-25T14:49:57Z</time>
      </trkpt>
      <trkpt lat="44.54405" lon="1.43101">
        <ele>200.5</ele>
        <time>2022-09-25T14:50:02Z</time>
      </trkpt>
      <trkpt lat="44.54401" lon="1.43097">
        <ele>201.3</ele>
        <time>2022-09-25T14:50:07Z</time>
      </trkpt>
      <trkpt lat="44.54397" lon="1.43094">
        <ele>202</ele>
        <time>2022-09-25T14:50:12Z</time>
      </trkpt>
      <trkpt lat="44.54392" lon="1.4309">
        <ele>202.1</ele>
        <time>2022-09-25T14:50:17Z</time>
      </trkpt>
      <trkpt lat="44.54388" lon="1.43085">
        <ele>201.5</ele>
        <time>2022-09-25T14:50:22Z</time>
      </trkpt>
      <trkpt lat="44.54384" lon="1.43081">
        <ele>201.5</ele>
        <time>2022-09-25T14:50:27Z</time>
      </trkpt>
      <trkpt lat="44.5438" lon="1.43077">
        <ele>201.3</ele>
        <time>2022-09-25T14:50:32Z</time>
      </trkpt>
      <trkpt lat="44.54376" lon="1.43073">
        <ele>201.1</ele>
        <time>2022-09-25T14:50:37Z</time>
      </trkpt>
      <trkpt lat="44.54373" lon="1.43068">
        <ele>201.5</ele>
        <time>2022-09-25T14:50:42Z</time>
      </trkpt>
      <trkpt lat="44.5437" lon="1.43062">
        <ele>201.5</ele>
        <time>2022-09-25T14:50:47Z</time>
      </trkpt>
      <trkpt lat="44.54367" lon="1.43056">
        <ele>201.1</ele>
        <time>2022-09-25T14:50:52Z</time>
      </trkpt>
      <trkpt lat="44.54363" lon="1.43052">
        <ele>201.3</ele>
        <time>2022-09-25T14:50:57Z</time>
      </trkpt>
      <trkpt lat="44.5436" lon="1.43047">
        <ele>201.3</ele>
        <time>2022-09-25T14:51:02Z</time>
      </trkpt>
      <trkpt lat="44.54357" lon="1.43042">
        <ele>201.2</ele>
        <time>2022-09-25T14:51:07Z</time>
      </trkpt>
      <trkpt lat="44.54354" lon="1.43037">
        <ele>201.3</ele>
        <time>2022-09-25T14:51:12Z</time>
      </trkpt>
      <trkpt lat="44.5435" lon="1.43032">
        <ele>201.2</ele>
        <time>2022-09-25T14:51:18Z</time>
      </trkpt>
      <trkpt lat="44.54347" lon="1.43027">
        <ele>201</ele>
        <time>2022-09-25T14:51:23Z</time>
      </trkpt>
      <trkpt lat="44.54344" lon="1.43022">
        <ele>200.3</ele>
        <time>2022-09-25T14:51:28Z</time>
      </trkpt>
      <trkpt lat="44.54341" lon="1.43016">
        <ele>199.5</ele>
        <time>2022-09-25T14:51:33Z</time>
      </trkpt>
      <trkpt lat="44.54338" lon="1.43011">
        <ele>198.6</ele>
        <time>2022-09-25T14:51:38Z</time>
      </trkpt>
      <trkpt lat="44.54335" lon="1.43005">
        <ele>197.9</ele>
        <time>2022-09-25T14:51:43Z</time>
      </trkpt>
      <trkpt lat="44.54331" lon="1.43">
        <ele>197.8</ele>
        <time>2022-09-25T14:51:48Z</time>
      </trkpt>
      <trkpt lat="44.54328" lon="1.42995">
        <ele>198.7</ele>
        <time>2022-09-25T14:51:53Z</time>
      </trkpt>
      <trkpt lat="44.54324" lon="1.4299">
        <ele>199.7</ele>
        <time>2022-09-25T14:51:58Z</time>
      </trkpt>
      <trkpt lat="44.54321" lon="1.42985">
        <ele>200.1</ele>
        <time>2022-09-25T14:52:03Z</time>
      </trkpt>
      <trkpt lat="44.54318" lon="1.42979">
        <ele>200.6</ele>
        <time>2022-09-25T14:52:09Z</time>
      </trkpt>
      <trkpt lat="44.54319" lon="1.42972">
        <ele>199.6</ele>
        <time>2022-09-25T14:52:14Z</time>
      </trkpt>
      <trkpt lat="44.54318" lon="1.42965">
        <ele>198.2</ele>
        <time>2022-09-25T14:52:20Z</time>
      </trkpt>
      <trkpt lat="44.54315" lon="1.42961">
        <ele>198.3</ele>
        <time>2022-09-25T14:52:26Z</time>
      </trkpt>
      <trkpt lat="44.54311" lon="1.42958">
        <ele>198.9</ele>
        <time>2022-09-25T14:52:32Z</time>
      </trkpt>
      <trkpt lat="44.54306" lon="1.42955">
        <ele>199.6</ele>
        <time>2022-09-25T14:52:37Z</time>
      </trkpt>
      <trkpt lat="44.54302" lon="1.42951">
        <ele>199.1</ele>
        <time>2022-09-25T14:52:42Z</time>
      </trkpt>
      <trkpt lat="44.54297" lon="1.42947">
        <ele>199.2</ele>
        <time>2022-09-25T14:52:47Z</time>
      </trkpt>
      <trkpt lat="44.54293" lon="1.42943">
        <ele>199.2</ele>
        <time>2022-09-25T14:52:52Z</time>
      </trkpt>
      <trkpt lat="44.54289" lon="1.42937">
        <ele>199.9</ele>
        <time>2022-09-25T14:52:57Z</time>
      </trkpt>
      <trkpt lat="44.54286" lon="1.42932">
        <ele>199.6</ele>
        <time>2022-09-25T14:53:02Z</time>
      </trkpt>
      <trkpt lat="44.54283" lon="1.42927">
        <ele>199.4</ele>
        <time>2022-09-25T14:53:07Z</time>
      </trkpt>
      <trkpt lat="44.54279" lon="1.42922">
        <ele>198.7</ele>
        <time>2022-09-25T14:53:12Z</time>
      </trkpt>
      <trkpt lat="44.54275" lon="1.42917">
        <ele>197.8</ele>
        <time>2022-09-25T14:53:17Z</time>
      </trkpt>
      <trkpt lat="44.54272" lon="1.42912">
        <ele>196.9</ele>
        <time>2022-09-25T14:53:22Z</time>
      </trkpt>
      <trkpt lat="44.54268" lon="1.42907">
        <ele>196.5</ele>
        <time>2022-09-25T14:53:27Z</time>
      </trkpt>
      <trkpt lat="44.54264" lon="1.42902">
        <ele>196.5</ele>
        <time>2022-09-25T14:53:32Z</time>
      </trkpt>
      <trkpt lat="44.54261" lon="1.42897">
        <ele>195.6</ele>
        <time>2022-09-25T14:53:37Z</time>
      </trkpt>
      <trkpt lat="44.54258" lon="1.42892">
        <ele>195.4</ele>
        <time>2022-09-25T14:53:42Z</time>
      </trkpt>
      <trkpt lat="44.54254" lon="1.42887">
        <ele>195.3</ele>
        <time>2022-09-25T14:53:47Z</time>
      </trkpt>
      <trkpt lat="44.5425" lon="1.42883">
        <ele>196.3</ele>
        <time>2022-09-25T14:53:52Z</time>
      </trkpt>
      <trkpt lat="44.54246" lon="1.42879">
        <ele>197.1</ele>
        <time>2022-09-25T14:53:57Z</time>
      </trkpt>
      <trkpt lat="44.54243" lon="1.42874">
        <ele>197.4</ele>
        <time>2022-09-25T14:54:02Z</time>
      </trkpt>
      <trkpt lat="44.54241" lon="1.42869">
        <ele>196.9</ele>
        <time>2022-09-25T14:54:07Z</time>
      </trkpt>
      <trkpt lat="44.54237" lon="1.42864">
        <ele>197</ele>
        <time>2022-09-25T14:54:12Z</time>
      </trkpt>
      <trkpt lat="44.54234" lon="1.42859">
        <ele>196.4</ele>
        <time>2022-09-25T14:54:17Z</time>
      </trkpt>
      <trkpt lat="44.54231" lon="1.42854">
        <ele>195.9</ele>
        <time>2022-09-25T14:54:22Z</time>
      </trkpt>
      <trkpt lat="44.54228" lon="1.42849">
        <ele>195.8</ele>
        <time>2022-09-25T14:54:27Z</time>
      </trkpt>
      <trkpt lat="44.54226" lon="1.42844">
        <ele>195.8</ele>
        <time>2022-09-25T14:54:32Z</time>
      </trkpt>
      <trkpt lat="44.54223" lon="1.42839">
        <ele>196</ele>
        <time>2022-09-25T14:54:37Z</time>
      </trkpt>
      <trkpt lat="44.54219" lon="1.42833">
        <ele>196</ele>
        <time>2022-09-25T14:54:42Z</time>
      </trkpt>
      <trkpt lat="44.54216" lon="1.42827">
        <ele>195.6</ele>
        <time>2022-09-25T14:54:47Z</time>
      </trkpt>
      <trkpt lat="44.54213" lon="1.42823">
        <ele>195.9</ele>
        <time>2022-09-25T14:54:52Z</time>
      </trkpt>
      <trkpt lat="44.54211" lon="1.42816">
        <ele>194.9</ele>
        <time>2022-09-25T14:54:57Z</time>
      </trkpt>
      <trkpt lat="44.5421" lon="1.4281">
        <ele>193.6</ele>
        <time>2022-09-25T14:55:02Z</time>
      </trkpt>
      <trkpt lat="44.54208" lon="1.42803">
        <ele>192.6</ele>
        <time>2022-09-25T14:55:08Z</time>
      </trkpt>
      <trkpt lat="44.54206" lon="1.42797">
        <ele>192.8</ele>
        <time>2022-09-25T14:55:13Z</time>
      </trkpt>
      <trkpt lat="44.54204" lon="1.42792">
        <ele>193.2</ele>
        <time>2022-09-25T14:55:18Z</time>
      </trkpt>
      <trkpt lat="44.54202" lon="1.42785">
        <ele>193</ele>
        <time>2022-09-25T14:55:24Z</time>
      </trkpt>
      <trkpt lat="44.542" lon="1.42778">
        <ele>193.1</ele>
        <time>2022-09-25T14:55:30Z</time>
      </trkpt>
      <trkpt lat="44.54198" lon="1.42772">
        <ele>193.4</ele>
        <time>2022-09-25T14:55:36Z</time>
      </trkpt>
      <trkpt lat="44.54196" lon="1.42766">
        <ele>194.1</ele>
        <time>2022-09-25T14:55:43Z</time>
      </trkpt>
      <trkpt lat="44.54194" lon="1.42759">
        <ele>194.3</ele>
        <time>2022-09-25T14:55:50Z</time>
      </trkpt>
      <trkpt lat="44.54192" lon="1.42753">
        <ele>194.5</ele>
        <time>2022-09-25T14:55:57Z</time>
      </trkpt>
      <trkpt lat="44.54193" lon="1.42746">
        <ele>194.7</ele>
        <time>2022-09-25T14:56:25Z</time>
      </trkpt>
      <trkpt lat="44.54192" lon="1.42739">
        <ele>191.3</ele>
        <time>2022-09-25T14:59:51Z</time>
      </trkpt>
      <trkpt lat="44.54189" lon="1.42734">
        <ele>190.8</ele>
        <time>2022-09-25T14:59:58Z</time>
      </trkpt>
      <trkpt lat="44.54187" lon="1.42728">
        <ele>191.1</ele>
        <time>2022-09-25T15:00:05Z</time>
      </trkpt>
      <trkpt lat="44.54185" lon="1.42722">
        <ele>191</ele>
        <time>2022-09-25T15:00:11Z</time>
      </trkpt>
      <trkpt lat="44.54183" lon="1.42715">
        <ele>191.2</ele>
        <time>2022-09-25T15:00:18Z</time>
      </trkpt>
      <trkpt lat="44.5418" lon="1.42709">
        <ele>191</ele>
        <time>2022-09-25T15:00:24Z</time>
      </trkpt>
      <trkpt lat="44.54177" lon="1.42702">
        <ele>191.3</ele>
        <time>2022-09-25T15:00:29Z</time>
      </trkpt>
      <trkpt lat="44.54175" lon="1.42696">
        <ele>191.5</ele>
        <time>2022-09-25T15:00:34Z</time>
      </trkpt>
      <trkpt lat="44.54171" lon="1.4269">
        <ele>191.9</ele>
        <time>2022-09-25T15:00:39Z</time>
      </trkpt>
      <trkpt lat="44.54169" lon="1.42684">
        <ele>192.5</ele>
        <time>2022-09-25T15:00:44Z</time>
      </trkpt>
      <trkpt lat="44.54167" lon="1.42678">
        <ele>192.9</ele>
        <time>2022-09-25T15:00:49Z</time>
      </trkpt>
      <trkpt lat="44.54164" lon="1.42672">
        <ele>192.8</ele>
        <time>2022-09-25T15:00:54Z</time>
      </trkpt>
      <trkpt lat="44.54161" lon="1.42667">
        <ele>192.4</ele>
        <time>2022-09-25T15:00:59Z</time>
      </trkpt>
      <trkpt lat="44.54158" lon="1.42661">
        <ele>192.4</ele>
        <time>2022-09-25T15:01:04Z</time>
      </trkpt>
      <trkpt lat="44.54156" lon="1.42656">
        <ele>192.4</ele>
        <time>2022-09-25T15:01:09Z</time>
      </trkpt>
      <trkpt lat="44.54152" lon="1.4265">
        <ele>192.6</ele>
        <time>2022-09-25T15:01:15Z</time>
      </trkpt>
      <trkpt lat="44.54149" lon="1.42645">
        <ele>193.1</ele>
        <time>2022-09-25T15:01:20Z</time>
      </trkpt>
      <trkpt lat="44.54145" lon="1.42639">
        <ele>193.3</ele>
        <time>2022-09-25T15:01:25Z</time>
      </trkpt>
      <trkpt lat="44.54142" lon="1.42634">
        <ele>194.6</ele>
        <time>2022-09-25T15:01:30Z</time>
      </trkpt>
      <trkpt lat="44.54139" lon="1.42627">
        <ele>194.9</ele>
        <time>2022-09-25T15:01:35Z</time>
      </trkpt>
      <trkpt lat="44.54136" lon="1.42621">
        <ele>194.7</ele>
        <time>2022-09-25T15:01:40Z</time>
      </trkpt>
      <trkpt lat="44.54134" lon="1.42615">
        <ele>194.8</ele>
        <time>2022-09-25T15:01:45Z</time>
      </trkpt>
      <trkpt lat="44.54132" lon="1.42609">
        <ele>194.4</ele>
        <time>2022-09-25T15:01:50Z</time>
      </trkpt>
      <trkpt lat="44.5413" lon="1.42602">
        <ele>194</ele>
        <time>2022-09-25T15:01:55Z</time>
      </trkpt>
      <trkpt lat="44.54129" lon="1.42596">
        <ele>194.1</ele>
        <time>2022-09-25T15:02:00Z</time>
      </trkpt>
      <trkpt lat="44.54127" lon="1.4259">
        <ele>193.8</ele>
        <time>2022-09-25T15:02:05Z</time>
      </trkpt>
      <trkpt lat="44.54125" lon="1.42583">
        <ele>193.4</ele>
        <time>2022-09-25T15:02:10Z</time>
      </trkpt>
      <trkpt lat="44.54123" lon="1.42577">
        <ele>194</ele>
        <time>2022-09-25T15:02:15Z</time>
      </trkpt>
      <trkpt lat="44.54121" lon="1.42571">
        <ele>194.9</ele>
        <time>2022-09-25T15:02:20Z</time>
      </trkpt>
      <trkpt lat="44.54118" lon="1.42565">
        <ele>195.7</ele>
        <time>2022-09-25T15:02:25Z</time>
      </trkpt>
      <trkpt lat="44.54116" lon="1.42559">
        <ele>196.4</ele>
        <time>2022-09-25T15:02:30Z</time>
      </trkpt>
      <trkpt lat="44.54114" lon="1.42553">
        <ele>196.8</ele>
        <time>2022-09-25T15:02:35Z</time>
      </trkpt>
      <trkpt lat="44.54111" lon="1.42547">
        <ele>196.5</ele>
        <time>2022-09-25T15:02:40Z</time>
      </trkpt>
      <trkpt lat="44.54108" lon="1.42542">
        <ele>195.8</ele>
        <time>2022-09-25T15:02:45Z</time>
      </trkpt>
      <trkpt lat="44.54105" lon="1.42536">
        <ele>195.3</ele>
        <time>2022-09-25T15:02:51Z</time>
      </trkpt>
      <trkpt lat="44.54102" lon="1.42531">
        <ele>195.3</ele>
        <time>2022-09-25T15:02:56Z</time>
      </trkpt>
      <trkpt lat="44.54099" lon="1.42525">
        <ele>195.3</ele>
        <time>2022-09-25T15:03:01Z</time>
      </trkpt>
      <trkpt lat="44.54095" lon="1.4252">
        <ele>195.2</ele>
        <time>2022-09-25T15:03:06Z</time>
      </trkpt>
      <trkpt lat="44.54092" lon="1.42515">
        <ele>195.2</ele>
        <time>2022-09-25T15:03:11Z</time>
      </trkpt>
      <trkpt lat="44.5409" lon="1.42508">
        <ele>194.7</ele>
        <time>2022-09-25T15:03:16Z</time>
      </trkpt>
      <trkpt lat="44.54088" lon="1.42501">
        <ele>193.9</ele>
        <time>2022-09-25T15:03:21Z</time>
      </trkpt>
      <trkpt lat="44.54086" lon="1.42495">
        <ele>194.4</ele>
        <time>2022-09-25T15:03:27Z</time>
      </trkpt>
      <trkpt lat="44.54083" lon="1.42489">
        <ele>194</ele>
        <time>2022-09-25T15:03:32Z</time>
      </trkpt>
      <trkpt lat="44.54081" lon="1.42483">
        <ele>192.5</ele>
        <time>2022-09-25T15:03:37Z</time>
      </trkpt>
      <trkpt lat="44.54079" lon="1.42476">
        <ele>192</ele>
        <time>2022-09-25T15:03:43Z</time>
      </trkpt>
      <trkpt lat="44.54077" lon="1.4247">
        <ele>191.9</ele>
        <time>2022-09-25T15:03:49Z</time>
      </trkpt>
      <trkpt lat="44.54075" lon="1.42463">
        <ele>191.7</ele>
        <time>2022-09-25T15:03:54Z</time>
      </trkpt>
      <trkpt lat="44.54074" lon="1.42457">
        <ele>191.9</ele>
        <time>2022-09-25T15:03:58Z</time>
      </trkpt>
      <trkpt lat="44.54072" lon="1.42451">
        <ele>192.3</ele>
        <time>2022-09-25T15:04:03Z</time>
      </trkpt>
      <trkpt lat="44.5407" lon="1.42446">
        <ele>192.4</ele>
        <time>2022-09-25T15:04:08Z</time>
      </trkpt>
      <trkpt lat="44.54067" lon="1.42441">
        <ele>192.8</ele>
        <time>2022-09-25T15:04:13Z</time>
      </trkpt>
      <trkpt lat="44.54065" lon="1.42435">
        <ele>193.1</ele>
        <time>2022-09-25T15:04:18Z</time>
      </trkpt>
      <trkpt lat="44.54063" lon="1.42429">
        <ele>192.7</ele>
        <time>2022-09-25T15:04:23Z</time>
      </trkpt>
      <trkpt lat="44.54061" lon="1.42422">
        <ele>191.2</ele>
        <time>2022-09-25T15:04:28Z</time>
      </trkpt>
      <trkpt lat="44.54058" lon="1.42417">
        <ele>191</ele>
        <time>2022-09-25T15:04:33Z</time>
      </trkpt>
      <trkpt lat="44.54056" lon="1.42411">
        <ele>190.7</ele>
        <time>2022-09-25T15:04:38Z</time>
      </trkpt>
      <trkpt lat="44.54054" lon="1.42405">
        <ele>190.5</ele>
        <time>2022-09-25T15:04:43Z</time>
      </trkpt>
      <trkpt lat="44.54052" lon="1.42398">
        <ele>190.4</ele>
        <time>2022-09-25T15:04:48Z</time>
      </trkpt>
      <trkpt lat="44.54048" lon="1.42392">
        <ele>190.2</ele>
        <time>2022-09-25T15:04:53Z</time>
      </trkpt>
      <trkpt lat="44.54045" lon="1.42387">
        <ele>190.2</ele>
        <time>2022-09-25T15:04:58Z</time>
      </trkpt>
      <trkpt lat="44.54043" lon="1.42381">
        <ele>189.7</ele>
        <time>2022-09-25T15:05:03Z</time>
      </trkpt>
      <trkpt lat="44.54041" lon="1.42388">
        <ele>187.5</ele>
        <time>2022-09-25T15:05:48Z</time>
      </trkpt>
      <trkpt lat="44.54042" lon="1.42394">
        <ele>186.5</ele>
        <time>2022-09-25T15:05:54Z</time>
      </trkpt>
      <trkpt lat="44.54041" lon="1.42401">
        <ele>184.9</ele>
        <time>2022-09-25T15:06:00Z</time>
      </trkpt>
      <trkpt lat="44.54038" lon="1.42407">
        <ele>184.6</ele>
        <time>2022-09-25T15:06:06Z</time>
      </trkpt>
      <trkpt lat="44.54035" lon="1.42412">
        <ele>185.1</ele>
        <time>2022-09-25T15:06:11Z</time>
      </trkpt>
      <trkpt lat="44.54031" lon="1.42416">
        <ele>184.3</ele>
        <time>2022-09-25T15:06:16Z</time>
      </trkpt>
      <trkpt lat="44.54026" lon="1.42419">
        <ele>183.4</ele>
        <time>2022-09-25T15:06:21Z</time>
      </trkpt>
      <trkpt lat="44.54023" lon="1.42423">
        <ele>182.5</ele>
        <time>2022-09-25T15:06:26Z</time>
      </trkpt>
      <trkpt lat="44.54019" lon="1.42427">
        <ele>182</ele>
        <time>2022-09-25T15:06:31Z</time>
      </trkpt>
      <trkpt lat="44.54015" lon="1.42432">
        <ele>181.9</ele>
        <time>2022-09-25T15:06:36Z</time>
      </trkpt>
      <trkpt lat="44.54012" lon="1.42437">
        <ele>181.7</ele>
        <time>2022-09-25T15:06:42Z</time>
      </trkpt>
      <trkpt lat="44.54009" lon="1.42444">
        <ele>181.7</ele>
        <time>2022-09-25T15:06:48Z</time>
      </trkpt>
      <trkpt lat="44.54007" lon="1.4245">
        <ele>182.4</ele>
        <time>2022-09-25T15:06:53Z</time>
      </trkpt>
      <trkpt lat="44.54007" lon="1.42457">
        <ele>182.7</ele>
        <time>2022-09-25T15:06:58Z</time>
      </trkpt>
      <trkpt lat="44.54006" lon="1.42464">
        <ele>181.9</ele>
        <time>2022-09-25T15:07:04Z</time>
      </trkpt>
      <trkpt lat="44.54005" lon="1.42471">
        <ele>181.5</ele>
        <time>2022-09-25T15:07:09Z</time>
      </trkpt>
      <trkpt lat="44.54002" lon="1.42476">
        <ele>183.3</ele>
        <time>2022-09-25T15:07:45Z</time>
      </trkpt>
      <trkpt lat="44.54005" lon="1.42481">
        <ele>185.4</ele>
        <time>2022-09-25T15:09:35Z</time>
      </trkpt>
      <trkpt lat="44.54006" lon="1.42488">
        <ele>184.9</ele>
        <time>2022-09-25T15:09:53Z</time>
      </trkpt>
      <trkpt lat="44.54004" lon="1.42495">
        <ele>184.7</ele>
        <time>2022-09-25T15:09:58Z</time>
      </trkpt>
      <trkpt lat="44.54002" lon="1.42501">
        <ele>183.7</ele>
        <time>2022-09-25T15:10:03Z</time>
      </trkpt>
      <trkpt lat="44.53999" lon="1.42508">
        <ele>183.1</ele>
        <time>2022-09-25T15:10:08Z</time>
      </trkpt>
      <trkpt lat="44.53997" lon="1.42514">
        <ele>182.6</ele>
        <time>2022-09-25T15:10:13Z</time>
      </trkpt>
      <trkpt lat="44.53996" lon="1.42521">
        <ele>182.1</ele>
        <time>2022-09-25T15:10:19Z</time>
      </trkpt>
      <trkpt lat="44.53996" lon="1.42528">
        <ele>182.7</ele>
        <time>2022-09-25T15:10:25Z</time>
      </trkpt>
      <trkpt lat="44.53997" lon="1.42534">
        <ele>180.9</ele>
        <time>2022-09-25T15:10:30Z</time>
      </trkpt>
      <trkpt lat="44.53994" lon="1.4254">
        <ele>180.3</ele>
        <time>2022-09-25T15:10:34Z</time>
      </trkpt>
      <trkpt lat="44.5399" lon="1.42545">
        <ele>179.4</ele>
        <time>2022-09-25T15:10:38Z</time>
      </trkpt>
      <trkpt lat="44.53986" lon="1.42548">
        <ele>178.9</ele>
        <time>2022-09-25T15:10:42Z</time>
      </trkpt>
      <trkpt lat="44.53982" lon="1.42553">
        <ele>179.6</ele>
        <time>2022-09-25T15:10:46Z</time>
      </trkpt>
      <trkpt lat="44.53979" lon="1.42557">
        <ele>180.4</ele>
        <time>2022-09-25T15:10:50Z</time>
      </trkpt>
      <trkpt lat="44.53976" lon="1.42563">
        <ele>180.3</ele>
        <time>2022-09-25T15:10:54Z</time>
      </trkpt>
      <trkpt lat="44.53973" lon="1.42569">
        <ele>180.4</ele>
        <time>2022-09-25T15:10:58Z</time>
      </trkpt>
      <trkpt lat="44.5397" lon="1.42576">
        <ele>180.6</ele>
        <time>2022-09-25T15:11:03Z</time>
      </trkpt>
      <trkpt lat="44.53968" lon="1.42583">
        <ele>181.4</ele>
        <time>2022-09-25T15:11:08Z</time>
      </trkpt>
      <trkpt lat="44.53966" lon="1.4259">
        <ele>181.8</ele>
        <time>2022-09-25T15:11:13Z</time>
      </trkpt>
      <trkpt lat="44.53965" lon="1.42597">
        <ele>181.9</ele>
        <time>2022-09-25T15:11:18Z</time>
      </trkpt>
      <trkpt lat="44.53965" lon="1.42604">
        <ele>182.5</ele>
        <time>2022-09-25T15:11:23Z</time>
      </trkpt>
      <trkpt lat="44.53964" lon="1.42611">
        <ele>182.6</ele>
        <time>2022-09-25T15:11:28Z</time>
      </trkpt>
      <trkpt lat="44.53964" lon="1.42618">
        <ele>182.8</ele>
        <time>2022-09-25T15:11:33Z</time>
      </trkpt>
      <trkpt lat="44.53963" lon="1.42626">
        <ele>182.7</ele>
        <time>2022-09-25T15:11:38Z</time>
      </trkpt>
      <trkpt lat="44.53962" lon="1.42633">
        <ele>183.1</ele>
        <time>2022-09-25T15:11:43Z</time>
      </trkpt>
      <trkpt lat="44.53961" lon="1.42641">
        <ele>183.9</ele>
        <time>2022-09-25T15:11:48Z</time>
      </trkpt>
      <trkpt lat="44.5396" lon="1.42647">
        <ele>184.3</ele>
        <time>2022-09-25T15:11:53Z</time>
      </trkpt>
      <trkpt lat="44.53959" lon="1.42654">
        <ele>184.3</ele>
        <time>2022-09-25T15:11:58Z</time>
      </trkpt>
      <trkpt lat="44.53958" lon="1.42662">
        <ele>184.3</ele>
        <time>2022-09-25T15:12:03Z</time>
      </trkpt>
      <trkpt lat="44.53957" lon="1.42668">
        <ele>184.3</ele>
        <time>2022-09-25T15:12:07Z</time>
      </trkpt>
      <trkpt lat="44.53955" lon="1.42675">
        <ele>184.7</ele>
        <time>2022-09-25T15:12:12Z</time>
      </trkpt>
      <trkpt lat="44.53954" lon="1.42683">
        <ele>185.4</ele>
        <time>2022-09-25T15:12:17Z</time>
      </trkpt>
      <trkpt lat="44.53953" lon="1.4269">
        <ele>186.1</ele>
        <time>2022-09-25T15:12:22Z</time>
      </trkpt>
      <trkpt lat="44.53951" lon="1.42696">
        <ele>185.9</ele>
        <time>2022-09-25T15:12:26Z</time>
      </trkpt>
      <trkpt lat="44.5395" lon="1.42702">
        <ele>186.3</ele>
        <time>2022-09-25T15:12:31Z</time>
      </trkpt>
      <trkpt lat="44.53948" lon="1.42709">
        <ele>186.8</ele>
        <time>2022-09-25T15:12:36Z</time>
      </trkpt>
      <trkpt lat="44.53946" lon="1.42715">
        <ele>187.4</ele>
        <time>2022-09-25T15:12:41Z</time>
      </trkpt>
      <trkpt lat="44.53944" lon="1.42721">
        <ele>187.8</ele>
        <time>2022-09-25T15:12:46Z</time>
      </trkpt>
      <trkpt lat="44.53941" lon="1.42727">
        <ele>187.8</ele>
        <time>2022-09-25T15:12:51Z</time>
      </trkpt>
      <trkpt lat="44.53939" lon="1.42734">
        <ele>187.9</ele>
        <time>2022-09-25T15:12:57Z</time>
      </trkpt>
      <trkpt lat="44.53938" lon="1.4274">
        <ele>188.2</ele>
        <time>2022-09-25T15:15:19Z</time>
      </trkpt>
      <trkpt lat="44.53938" lon="1.42747">
        <ele>188.7</ele>
        <time>2022-09-25T15:15:26Z</time>
      </trkpt>
      <trkpt lat="44.5394" lon="1.42753">
        <ele>188.8</ele>
        <time>2022-09-25T15:15:32Z</time>
      </trkpt>
      <trkpt lat="44.53941" lon="1.42761">
        <ele>187.9</ele>
        <time>2022-09-25T15:15:37Z</time>
      </trkpt>
      <trkpt lat="44.53939" lon="1.42768">
        <ele>187.3</ele>
        <time>2022-09-25T15:15:42Z</time>
      </trkpt>
      <trkpt lat="44.53936" lon="1.42774">
        <ele>187.9</ele>
        <time>2022-09-25T15:15:46Z</time>
      </trkpt>
      <trkpt lat="44.53932" lon="1.42779">
        <ele>188.6</ele>
        <time>2022-09-25T15:15:50Z</time>
      </trkpt>
      <trkpt lat="44.53929" lon="1.42784">
        <ele>190.8</ele>
        <time>2022-09-25T15:15:55Z</time>
      </trkpt>
      <trkpt lat="44.53926" lon="1.42789">
        <ele>192.5</ele>
        <time>2022-09-25T15:16:02Z</time>
      </trkpt>
      <trkpt lat="44.53922" lon="1.42794">
        <ele>193.2</ele>
        <time>2022-09-25T15:16:08Z</time>
      </trkpt>
      <trkpt lat="44.53921" lon="1.42801">
        <ele>193.4</ele>
        <time>2022-09-25T15:16:14Z</time>
      </trkpt>
      <trkpt lat="44.5392" lon="1.42808">
        <ele>193.2</ele>
        <time>2022-09-25T15:16:19Z</time>
      </trkpt>
      <trkpt lat="44.53917" lon="1.42813">
        <ele>193.2</ele>
        <time>2022-09-25T15:16:23Z</time>
      </trkpt>
      <trkpt lat="44.53914" lon="1.42818">
        <ele>192.8</ele>
        <time>2022-09-25T15:16:28Z</time>
      </trkpt>
      <trkpt lat="44.53911" lon="1.42824">
        <ele>192.9</ele>
        <time>2022-09-25T15:16:33Z</time>
      </trkpt>
      <trkpt lat="44.53909" lon="1.4283">
        <ele>193.1</ele>
        <time>2022-09-25T15:16:38Z</time>
      </trkpt>
      <trkpt lat="44.53906" lon="1.42835">
        <ele>192.3</ele>
        <time>2022-09-25T15:16:43Z</time>
      </trkpt>
      <trkpt lat="44.53902" lon="1.4284">
        <ele>192.2</ele>
        <time>2022-09-25T15:16:48Z</time>
      </trkpt>
      <trkpt lat="44.539" lon="1.42846">
        <ele>192.3</ele>
        <time>2022-09-25T15:16:53Z</time>
      </trkpt>
      <trkpt lat="44.53898" lon="1.42853">
        <ele>192.8</ele>
        <time>2022-09-25T15:16:59Z</time>
      </trkpt>
      <trkpt lat="44.53897" lon="1.42859">
        <ele>192.8</ele>
        <time>2022-09-25T15:17:04Z</time>
      </trkpt>
      <trkpt lat="44.53895" lon="1.42865">
        <ele>192.6</ele>
        <time>2022-09-25T15:17:09Z</time>
      </trkpt>
      <trkpt lat="44.53893" lon="1.42872">
        <ele>192.2</ele>
        <time>2022-09-25T15:17:15Z</time>
      </trkpt>
      <trkpt lat="44.53891" lon="1.42878">
        <ele>192</ele>
        <time>2022-09-25T15:17:20Z</time>
      </trkpt>
      <trkpt lat="44.53889" lon="1.42885">
        <ele>191.6</ele>
        <time>2022-09-25T15:17:25Z</time>
      </trkpt>
      <trkpt lat="44.53888" lon="1.42892">
        <ele>191.2</ele>
        <time>2022-09-25T15:17:30Z</time>
      </trkpt>
      <trkpt lat="44.53887" lon="1.42899">
        <ele>191.4</ele>
        <time>2022-09-25T15:17:35Z</time>
      </trkpt>
      <trkpt lat="44.53886" lon="1.42906">
        <ele>192</ele>
        <time>2022-09-25T15:17:40Z</time>
      </trkpt>
      <trkpt lat="44.53885" lon="1.42913">
        <ele>192.2</ele>
        <time>2022-09-25T15:17:46Z</time>
      </trkpt>
      <trkpt lat="44.53885" lon="1.42919">
        <ele>193.2</ele>
        <time>2022-09-25T15:17:52Z</time>
      </trkpt>
      <trkpt lat="44.53885" lon="1.42926">
        <ele>193.7</ele>
        <time>2022-09-25T15:17:57Z</time>
      </trkpt>
      <trkpt lat="44.53884" lon="1.42933">
        <ele>194.5</ele>
        <time>2022-09-25T15:18:03Z</time>
      </trkpt>
      <trkpt lat="44.53881" lon="1.42939">
        <ele>195.3</ele>
        <time>2022-09-25T15:18:09Z</time>
      </trkpt>
      <trkpt lat="44.53878" lon="1.42944">
        <ele>195.2</ele>
        <time>2022-09-25T15:18:14Z</time>
      </trkpt>
      <trkpt lat="44.53875" lon="1.42949">
        <ele>194.6</ele>
        <time>2022-09-25T15:18:19Z</time>
      </trkpt>
      <trkpt lat="44.53872" lon="1.42955">
        <ele>194.9</ele>
        <time>2022-09-25T15:18:24Z</time>
      </trkpt>
      <trkpt lat="44.53868" lon="1.4296">
        <ele>195</ele>
        <time>2022-09-25T15:18:29Z</time>
      </trkpt>
      <trkpt lat="44.53865" lon="1.42966">
        <ele>194.6</ele>
        <time>2022-09-25T15:18:34Z</time>
      </trkpt>
      <trkpt lat="44.53862" lon="1.42972">
        <ele>194.8</ele>
        <time>2022-09-25T15:18:39Z</time>
      </trkpt>
      <trkpt lat="44.53859" lon="1.42978">
        <ele>194.6</ele>
        <time>2022-09-25T15:18:44Z</time>
      </trkpt>
      <trkpt lat="44.53859" lon="1.42985">
        <ele>194.4</ele>
        <time>2022-09-25T15:18:48Z</time>
      </trkpt>
      <trkpt lat="44.53857" lon="1.42991">
        <ele>194</ele>
        <time>2022-09-25T15:18:53Z</time>
      </trkpt>
      <trkpt lat="44.53856" lon="1.42998">
        <ele>193.9</ele>
        <time>2022-09-25T15:18:58Z</time>
      </trkpt>
      <trkpt lat="44.53855" lon="1.43004">
        <ele>194.3</ele>
        <time>2022-09-25T15:19:02Z</time>
      </trkpt>
      <trkpt lat="44.53853" lon="1.43011">
        <ele>194.7</ele>
        <time>2022-09-25T15:19:07Z</time>
      </trkpt>
      <trkpt lat="44.53851" lon="1.43018">
        <ele>195</ele>
        <time>2022-09-25T15:19:12Z</time>
      </trkpt>
      <trkpt lat="44.53849" lon="1.43024">
        <ele>195.2</ele>
        <time>2022-09-25T15:19:17Z</time>
      </trkpt>
      <trkpt lat="44.53847" lon="1.43031">
        <ele>194.9</ele>
        <time>2022-09-25T15:19:22Z</time>
      </trkpt>
      <trkpt lat="44.53845" lon="1.43038">
        <ele>195.4</ele>
        <time>2022-09-25T15:19:27Z</time>
      </trkpt>
      <trkpt lat="44.53843" lon="1.43044">
        <ele>195.5</ele>
        <time>2022-09-25T15:19:32Z</time>
      </trkpt>
      <trkpt lat="44.53841" lon="1.43051">
        <ele>195.2</ele>
        <time>2022-09-25T15:19:37Z</time>
      </trkpt>
      <trkpt lat="44.53839" lon="1.43058">
        <ele>194.8</ele>
        <time>2022-09-25T15:19:42Z</time>
      </trkpt>
      <trkpt lat="44.53837" lon="1.43064">
        <ele>194.5</ele>
        <time>2022-09-25T15:19:47Z</time>
      </trkpt>
      <trkpt lat="44.53835" lon="1.4307">
        <ele>194.2</ele>
        <time>2022-09-25T15:19:52Z</time>
      </trkpt>
      <trkpt lat="44.53833" lon="1.43077">
        <ele>194.4</ele>
        <time>2022-09-25T15:19:57Z</time>
      </trkpt>
      <trkpt lat="44.53832" lon="1.43084">
        <ele>194.4</ele>
        <time>2022-09-25T15:20:02Z</time>
      </trkpt>
      <trkpt lat="44.53831" lon="1.4309">
        <ele>194.4</ele>
        <time>2022-09-25T15:20:07Z</time>
      </trkpt>
      <trkpt lat="44.53829" lon="1.43097">
        <ele>194.1</ele>
        <time>2022-09-25T15:20:12Z</time>
      </trkpt>
      <trkpt lat="44.53827" lon="1.43104">
        <ele>194.5</ele>
        <time>2022-09-25T15:20:17Z</time>
      </trkpt>
      <trkpt lat="44.53825" lon="1.43111">
        <ele>195.7</ele>
        <time>2022-09-25T15:20:22Z</time>
      </trkpt>
      <trkpt lat="44.53826" lon="1.43117">
        <ele>196</ele>
        <time>2022-09-25T15:20:27Z</time>
      </trkpt>
      <trkpt lat="44.53825" lon="1.43124">
        <ele>196</ele>
        <time>2022-09-25T15:20:33Z</time>
      </trkpt>
      <trkpt lat="44.53826" lon="1.43131">
        <ele>196.2</ele>
        <time>2022-09-25T15:20:39Z</time>
      </trkpt>
      <trkpt lat="44.53826" lon="1.43138">
        <ele>196.7</ele>
        <time>2022-09-25T15:20:45Z</time>
      </trkpt>
      <trkpt lat="44.53824" lon="1.43145">
        <ele>196.9</ele>
        <time>2022-09-25T15:20:50Z</time>
      </trkpt>
      <trkpt lat="44.53824" lon="1.43152">
        <ele>197.3</ele>
        <time>2022-09-25T15:20:55Z</time>
      </trkpt>
      <trkpt lat="44.53824" lon="1.43159">
        <ele>197.7</ele>
        <time>2022-09-25T15:21:00Z</time>
      </trkpt>
      <trkpt lat="44.53823" lon="1.43166">
        <ele>197.5</ele>
        <time>2022-09-25T15:21:06Z</time>
      </trkpt>
      <trkpt lat="44.53822" lon="1.43173">
        <ele>197.5</ele>
        <time>2022-09-25T15:21:11Z</time>
      </trkpt>
      <trkpt lat="44.53821" lon="1.4318">
        <ele>197.3</ele>
        <time>2022-09-25T15:21:16Z</time>
      </trkpt>
      <trkpt lat="44.5382" lon="1.43187">
        <ele>197.5</ele>
        <time>2022-09-25T15:21:21Z</time>
      </trkpt>
      <trkpt lat="44.5382" lon="1.43193">
        <ele>197.8</ele>
        <time>2022-09-25T15:21:26Z</time>
      </trkpt>
      <trkpt lat="44.53819" lon="1.432">
        <ele>197.9</ele>
        <time>2022-09-25T15:21:32Z</time>
      </trkpt>
      <trkpt lat="44.53818" lon="1.43207">
        <ele>198.1</ele>
        <time>2022-09-25T15:21:37Z</time>
      </trkpt>
      <trkpt lat="44.53816" lon="1.43213">
        <ele>198.5</ele>
        <time>2022-09-25T15:21:42Z</time>
      </trkpt>
      <trkpt lat="44.53814" lon="1.43219">
        <ele>198.7</ele>
        <time>2022-09-25T15:21:47Z</time>
      </trkpt>
      <trkpt lat="44.53812" lon="1.43225">
        <ele>198.9</ele>
        <time>2022-09-25T15:21:52Z</time>
      </trkpt>
      <trkpt lat="44.53811" lon="1.43232">
        <ele>198.8</ele>
        <time>2022-09-25T15:21:57Z</time>
      </trkpt>
      <trkpt lat="44.5381" lon="1.43238">
        <ele>199.4</ele>
        <time>2022-09-25T15:22:02Z</time>
      </trkpt>
      <trkpt lat="44.53809" lon="1.43245">
        <ele>199.7</ele>
        <time>2022-09-25T15:22:07Z</time>
      </trkpt>
      <trkpt lat="44.53808" lon="1.43252">
        <ele>199.7</ele>
        <time>2022-09-25T15:22:13Z</time>
      </trkpt>
      <trkpt lat="44.53807" lon="1.43259">
        <ele>199.7</ele>
        <time>2022-09-25T15:22:19Z</time>
      </trkpt>
      <trkpt lat="44.53806" lon="1.43266">
        <ele>199.4</ele>
        <time>2022-09-25T15:22:24Z</time>
      </trkpt>
      <trkpt lat="44.53805" lon="1.43272">
        <ele>198.6</ele>
        <time>2022-09-25T15:22:29Z</time>
      </trkpt>
      <trkpt lat="44.53804" lon="1.43279">
        <ele>198.8</ele>
        <time>2022-09-25T15:22:34Z</time>
      </trkpt>
      <trkpt lat="44.53803" lon="1.43285">
        <ele>198.4</ele>
        <time>2022-09-25T15:22:39Z</time>
      </trkpt>
      <trkpt lat="44.53801" lon="1.43292">
        <ele>197.8</ele>
        <time>2022-09-25T15:22:45Z</time>
      </trkpt>
      <trkpt lat="44.538" lon="1.43299">
        <ele>198.4</ele>
        <time>2022-09-25T15:22:51Z</time>
      </trkpt>
      <trkpt lat="44.53799" lon="1.43306">
        <ele>199.1</ele>
        <time>2022-09-25T15:22:56Z</time>
      </trkpt>
      <trkpt lat="44.53798" lon="1.43313">
        <ele>198.6</ele>
        <time>2022-09-25T15:23:02Z</time>
      </trkpt>
      <trkpt lat="44.53798" lon="1.4332">
        <ele>198.3</ele>
        <time>2022-09-25T15:23:07Z</time>
      </trkpt>
      <trkpt lat="44.53798" lon="1.43326">
        <ele>198.1</ele>
        <time>2022-09-25T15:23:12Z</time>
      </trkpt>
      <trkpt lat="44.53796" lon="1.43334">
        <ele>198.5</ele>
        <time>2022-09-25T15:23:17Z</time>
      </trkpt>
      <trkpt lat="44.53796" lon="1.43341">
        <ele>198.7</ele>
        <time>2022-09-25T15:23:22Z</time>
      </trkpt>
      <trkpt lat="44.53794" lon="1.43348">
        <ele>198.4</ele>
        <time>2022-09-25T15:23:27Z</time>
      </trkpt>
      <trkpt lat="44.53793" lon="1.43354">
        <ele>198.1</ele>
        <time>2022-09-25T15:23:32Z</time>
      </trkpt>
      <trkpt lat="44.53791" lon="1.43361">
        <ele>198.5</ele>
        <time>2022-09-25T15:23:37Z</time>
      </trkpt>
      <trkpt lat="44.53789" lon="1.43368">
        <ele>198.7</ele>
        <time>2022-09-25T15:23:42Z</time>
      </trkpt>
      <trkpt lat="44.53789" lon="1.43374">
        <ele>199</ele>
        <time>2022-09-25T15:23:47Z</time>
      </trkpt>
      <trkpt lat="44.53789" lon="1.43381">
        <ele>199.1</ele>
        <time>2022-09-25T15:23:52Z</time>
      </trkpt>
      <trkpt lat="44.5379" lon="1.43387">
        <ele>199</ele>
        <time>2022-09-25T15:23:57Z</time>
      </trkpt>
      <trkpt lat="44.53789" lon="1.43394">
        <ele>199.3</ele>
        <time>2022-09-25T15:24:02Z</time>
      </trkpt>
      <trkpt lat="44.53789" lon="1.43401">
        <ele>199.6</ele>
        <time>2022-09-25T15:24:07Z</time>
      </trkpt>
      <trkpt lat="44.53789" lon="1.43408">
        <ele>200.1</ele>
        <time>2022-09-25T15:24:12Z</time>
      </trkpt>
      <trkpt lat="44.53789" lon="1.43414">
        <ele>200.6</ele>
        <time>2022-09-25T15:24:17Z</time>
      </trkpt>
      <trkpt lat="44.53788" lon="1.43421">
        <ele>200</ele>
        <time>2022-09-25T15:24:22Z</time>
      </trkpt>
      <trkpt lat="44.53787" lon="1.43428">
        <ele>200.8</ele>
        <time>2022-09-25T15:24:28Z</time>
      </trkpt>
      <trkpt lat="44.53786" lon="1.43435">
        <ele>202.3</ele>
        <time>2022-09-25T15:24:34Z</time>
      </trkpt>
      <trkpt lat="44.53787" lon="1.43442">
        <ele>203.5</ele>
        <time>2022-09-25T15:24:39Z</time>
      </trkpt>
      <trkpt lat="44.53787" lon="1.43448">
        <ele>203.1</ele>
        <time>2022-09-25T15:24:44Z</time>
      </trkpt>
      <trkpt lat="44.53786" lon="1.43455">
        <ele>202.9</ele>
        <time>2022-09-25T15:24:49Z</time>
      </trkpt>
      <trkpt lat="44.53785" lon="1.43462">
        <ele>202.8</ele>
        <time>2022-09-25T15:24:54Z</time>
      </trkpt>
      <trkpt lat="44.53784" lon="1.43469">
        <ele>203.8</ele>
        <time>2022-09-25T15:24:59Z</time>
      </trkpt>
      <trkpt lat="44.53782" lon="1.43476">
        <ele>203.5</ele>
        <time>2022-09-25T15:25:04Z</time>
      </trkpt>
      <trkpt lat="44.53781" lon="1.43483">
        <ele>203.3</ele>
        <time>2022-09-25T15:25:09Z</time>
      </trkpt>
      <trkpt lat="44.53781" lon="1.43489">
        <ele>201.9</ele>
        <time>2022-09-25T15:25:14Z</time>
      </trkpt>
      <trkpt lat="44.53781" lon="1.43496">
        <ele>201.4</ele>
        <time>2022-09-25T15:25:19Z</time>
      </trkpt>
      <trkpt lat="44.53782" lon="1.43502">
        <ele>201.4</ele>
        <time>2022-09-25T15:25:24Z</time>
      </trkpt>
      <trkpt lat="44.53783" lon="1.43509">
        <ele>201.5</ele>
        <time>2022-09-25T15:25:29Z</time>
      </trkpt>
      <trkpt lat="44.53782" lon="1.43516">
        <ele>202.3</ele>
        <time>2022-09-25T15:25:34Z</time>
      </trkpt>
      <trkpt lat="44.53781" lon="1.43523">
        <ele>202.8</ele>
        <time>2022-09-25T15:25:39Z</time>
      </trkpt>
      <trkpt lat="44.53782" lon="1.43529">
        <ele>202.4</ele>
        <time>2022-09-25T15:25:44Z</time>
      </trkpt>
      <trkpt lat="44.53783" lon="1.43535">
        <ele>202.4</ele>
        <time>2022-09-25T15:25:49Z</time>
      </trkpt>
      <trkpt lat="44.53782" lon="1.43542">
        <ele>203.1</ele>
        <time>2022-09-25T15:25:54Z</time>
      </trkpt>
      <trkpt lat="44.53782" lon="1.43549">
        <ele>204.5</ele>
        <time>2022-09-25T15:26:00Z</time>
      </trkpt>
      <trkpt lat="44.53782" lon="1.43555">
        <ele>205.4</ele>
        <time>2022-09-25T15:26:05Z</time>
      </trkpt>
      <trkpt lat="44.53781" lon="1.43562">
        <ele>206.2</ele>
        <time>2022-09-25T15:26:10Z</time>
      </trkpt>
      <trkpt lat="44.53779" lon="1.43569">
        <ele>205.9</ele>
        <time>2022-09-25T15:26:15Z</time>
      </trkpt>
      <trkpt lat="44.53778" lon="1.43575">
        <ele>206</ele>
        <time>2022-09-25T15:26:20Z</time>
      </trkpt>
      <trkpt lat="44.53777" lon="1.43582">
        <ele>205.8</ele>
        <time>2022-09-25T15:26:25Z</time>
      </trkpt>
      <trkpt lat="44.53775" lon="1.43588">
        <ele>205.9</ele>
        <time>2022-09-25T15:26:30Z</time>
      </trkpt>
      <trkpt lat="44.53776" lon="1.43595">
        <ele>204.8</ele>
        <time>2022-09-25T15:26:36Z</time>
      </trkpt>
      <trkpt lat="44.53778" lon="1.43602">
        <ele>204</ele>
        <time>2022-09-25T15:26:42Z</time>
      </trkpt>
      <trkpt lat="44.5378" lon="1.43607">
        <ele>203.2</ele>
        <time>2022-09-25T15:26:47Z</time>
      </trkpt>
      <trkpt lat="44.5378" lon="1.43614">
        <ele>202.7</ele>
        <time>2022-09-25T15:26:52Z</time>
      </trkpt>
      <trkpt lat="44.5378" lon="1.43621">
        <ele>202.6</ele>
        <time>2022-09-25T15:26:57Z</time>
      </trkpt>
      <trkpt lat="44.53779" lon="1.43627">
        <ele>202.8</ele>
        <time>2022-09-25T15:27:02Z</time>
      </trkpt>
      <trkpt lat="44.53779" lon="1.43634">
        <ele>203.4</ele>
        <time>2022-09-25T15:27:07Z</time>
      </trkpt>
      <trkpt lat="44.53779" lon="1.43642">
        <ele>203.1</ele>
        <time>2022-09-25T15:27:13Z</time>
      </trkpt>
      <trkpt lat="44.5378" lon="1.43649">
        <ele>203.6</ele>
        <time>2022-09-25T15:27:19Z</time>
      </trkpt>
      <trkpt lat="44.5378" lon="1.43656">
        <ele>203.9</ele>
        <time>2022-09-25T15:27:24Z</time>
      </trkpt>
      <trkpt lat="44.5378" lon="1.43663">
        <ele>205.2</ele>
        <time>2022-09-25T15:27:29Z</time>
      </trkpt>
      <trkpt lat="44.5378" lon="1.43669">
        <ele>205.8</ele>
        <time>2022-09-25T15:27:34Z</time>
      </trkpt>
      <trkpt lat="44.53779" lon="1.43677">
        <ele>206.8</ele>
        <time>2022-09-25T15:27:39Z</time>
      </trkpt>
      <trkpt lat="44.53777" lon="1.43684">
        <ele>206.3</ele>
        <time>2022-09-25T15:27:44Z</time>
      </trkpt>
      <trkpt lat="44.53776" lon="1.4369">
        <ele>205.5</ele>
        <time>2022-09-25T15:27:49Z</time>
      </trkpt>
      <trkpt lat="44.53775" lon="1.43697">
        <ele>205.9</ele>
        <time>2022-09-25T15:27:54Z</time>
      </trkpt>
      <trkpt lat="44.53775" lon="1.43705">
        <ele>206.4</ele>
        <time>2022-09-25T15:27:59Z</time>
      </trkpt>
      <trkpt lat="44.53774" lon="1.43711">
        <ele>206</ele>
        <time>2022-09-25T15:28:04Z</time>
      </trkpt>
      <trkpt lat="44.53773" lon="1.43718">
        <ele>205.8</ele>
        <time>2022-09-25T15:28:09Z</time>
      </trkpt>
      <trkpt lat="44.53772" lon="1.43725">
        <ele>205.8</ele>
        <time>2022-09-25T15:28:14Z</time>
      </trkpt>
      <trkpt lat="44.53774" lon="1.43732">
        <ele>206.6</ele>
        <time>2022-09-25T15:28:19Z</time>
      </trkpt>
      <trkpt lat="44.53776" lon="1.43737">
        <ele>207.3</ele>
        <time>2022-09-25T15:28:24Z</time>
      </trkpt>
      <trkpt lat="44.53777" lon="1.43744">
        <ele>207.1</ele>
        <time>2022-09-25T15:28:30Z</time>
      </trkpt>
      <trkpt lat="44.53777" lon="1.43751">
        <ele>206.7</ele>
        <time>2022-09-25T15:28:36Z</time>
      </trkpt>
      <trkpt lat="44.53778" lon="1.43758">
        <ele>206.5</ele>
        <time>2022-09-25T15:28:42Z</time>
      </trkpt>
      <trkpt lat="44.53779" lon="1.43764">
        <ele>205.9</ele>
        <time>2022-09-25T15:28:48Z</time>
      </trkpt>
      <trkpt lat="44.5378" lon="1.43771">
        <ele>205.3</ele>
        <time>2022-09-25T15:28:54Z</time>
      </trkpt>
      <trkpt lat="44.53781" lon="1.43777">
        <ele>205.1</ele>
        <time>2022-09-25T15:29:00Z</time>
      </trkpt>
      <trkpt lat="44.53783" lon="1.43784">
        <ele>204.7</ele>
        <time>2022-09-25T15:29:06Z</time>
      </trkpt>
      <trkpt lat="44.53785" lon="1.4379">
        <ele>204.8</ele>
        <time>2022-09-25T15:29:12Z</time>
      </trkpt>
      <trkpt lat="44.53787" lon="1.43797">
        <ele>205.7</ele>
        <time>2022-09-25T15:29:18Z</time>
      </trkpt>
      <trkpt lat="44.53787" lon="1.43804">
        <ele>206.5</ele>
        <time>2022-09-25T15:29:23Z</time>
      </trkpt>
      <trkpt lat="44.53786" lon="1.43811">
        <ele>208</ele>
        <time>2022-09-25T15:29:28Z</time>
      </trkpt>
      <trkpt lat="44.53785" lon="1.43818">
        <ele>209.2</ele>
        <time>2022-09-25T15:29:33Z</time>
      </trkpt>
      <trkpt lat="44.53786" lon="1.43824">
        <ele>209.6</ele>
        <time>2022-09-25T15:29:38Z</time>
      </trkpt>
      <trkpt lat="44.53787" lon="1.43832">
        <ele>209.9</ele>
        <time>2022-09-25T15:29:44Z</time>
      </trkpt>
      <trkpt lat="44.53786" lon="1.43839">
        <ele>208.5</ele>
        <time>2022-09-25T15:29:51Z</time>
      </trkpt>
      <trkpt lat="44.53786" lon="1.43846">
        <ele>208.1</ele>
        <time>2022-09-25T15:29:57Z</time>
      </trkpt>
      <trkpt lat="44.53787" lon="1.43854">
        <ele>207.5</ele>
        <time>2022-09-25T15:30:03Z</time>
      </trkpt>
      <trkpt lat="44.53786" lon="1.43861">
        <ele>208</ele>
        <time>2022-09-25T15:30:08Z</time>
      </trkpt>
      <trkpt lat="44.53786" lon="1.43868">
        <ele>207.8</ele>
        <time>2022-09-25T15:30:13Z</time>
      </trkpt>
      <trkpt lat="44.53785" lon="1.43875">
        <ele>208</ele>
        <time>2022-09-25T15:30:18Z</time>
      </trkpt>
      <trkpt lat="44.53785" lon="1.43882">
        <ele>208.1</ele>
        <time>2022-09-25T15:30:23Z</time>
      </trkpt>
      <trkpt lat="44.53786" lon="1.43888">
        <ele>208.2</ele>
        <time>2022-09-25T15:30:28Z</time>
      </trkpt>
      <trkpt lat="44.53785" lon="1.43895">
        <ele>208.4</ele>
        <time>2022-09-25T15:30:33Z</time>
      </trkpt>
      <trkpt lat="44.53785" lon="1.43901">
        <ele>208.2</ele>
        <time>2022-09-25T15:30:38Z</time>
      </trkpt>
      <trkpt lat="44.53785" lon="1.43908">
        <ele>208.5</ele>
        <time>2022-09-25T15:30:43Z</time>
      </trkpt>
      <trkpt lat="44.53786" lon="1.43915">
        <ele>209.1</ele>
        <time>2022-09-25T15:30:48Z</time>
      </trkpt>
      <trkpt lat="44.53786" lon="1.43922">
        <ele>208.3</ele>
        <time>2022-09-25T15:30:54Z</time>
      </trkpt>
      <trkpt lat="44.53785" lon="1.43929">
        <ele>208</ele>
        <time>2022-09-25T15:31:00Z</time>
      </trkpt>
      <trkpt lat="44.53785" lon="1.43936">
        <ele>208.3</ele>
        <time>2022-09-25T15:31:06Z</time>
      </trkpt>
      <trkpt lat="44.53785" lon="1.43942">
        <ele>208.6</ele>
        <time>2022-09-25T15:31:12Z</time>
      </trkpt>
      <trkpt lat="44.53784" lon="1.43949">
        <ele>209.2</ele>
        <time>2022-09-25T15:31:17Z</time>
      </trkpt>
      <trkpt lat="44.53784" lon="1.43956">
        <ele>209.1</ele>
        <time>2022-09-25T15:31:23Z</time>
      </trkpt>
      <trkpt lat="44.53784" lon="1.43963">
        <ele>208.5</ele>
        <time>2022-09-25T15:31:29Z</time>
      </trkpt>
      <trkpt lat="44.53783" lon="1.4397">
        <ele>208.5</ele>
        <time>2022-09-25T15:31:35Z</time>
      </trkpt>
      <trkpt lat="44.53783" lon="1.43977">
        <ele>209</ele>
        <time>2022-09-25T15:31:40Z</time>
      </trkpt>
      <trkpt lat="44.53783" lon="1.43984">
        <ele>209.5</ele>
        <time>2022-09-25T15:31:45Z</time>
      </trkpt>
      <trkpt lat="44.53783" lon="1.4399">
        <ele>210.1</ele>
        <time>2022-09-25T15:31:50Z</time>
      </trkpt>
      <trkpt lat="44.53784" lon="1.43997">
        <ele>210.5</ele>
        <time>2022-09-25T15:31:55Z</time>
      </trkpt>
      <trkpt lat="44.53783" lon="1.44004">
        <ele>210.9</ele>
        <time>2022-09-25T15:32:00Z</time>
      </trkpt>
      <trkpt lat="44.53782" lon="1.44011">
        <ele>211.4</ele>
        <time>2022-09-25T15:32:05Z</time>
      </trkpt>
      <trkpt lat="44.53782" lon="1.44017">
        <ele>211.3</ele>
        <time>2022-09-25T15:32:10Z</time>
      </trkpt>
      <trkpt lat="44.53781" lon="1.44024">
        <ele>211.7</ele>
        <time>2022-09-25T15:32:15Z</time>
      </trkpt>
      <trkpt lat="44.53781" lon="1.44031">
        <ele>212</ele>
        <time>2022-09-25T15:32:20Z</time>
      </trkpt>
      <trkpt lat="44.53781" lon="1.44037">
        <ele>212</ele>
        <time>2022-09-25T15:32:25Z</time>
      </trkpt>
      <trkpt lat="44.53782" lon="1.44045">
        <ele>211.5</ele>
        <time>2022-09-25T15:32:30Z</time>
      </trkpt>
      <trkpt lat="44.53782" lon="1.44052">
        <ele>211.5</ele>
        <time>2022-09-25T15:32:35Z</time>
      </trkpt>
      <trkpt lat="44.53782" lon="1.44059">
        <ele>212</ele>
        <time>2022-09-25T15:32:40Z</time>
      </trkpt>
      <trkpt lat="44.53781" lon="1.44067">
        <ele>211.9</ele>
        <time>2022-09-25T15:32:45Z</time>
      </trkpt>
      <trkpt lat="44.53781" lon="1.44073">
        <ele>211.8</ele>
        <time>2022-09-25T15:32:50Z</time>
      </trkpt>
      <trkpt lat="44.53781" lon="1.4408">
        <ele>211</ele>
        <time>2022-09-25T15:32:55Z</time>
      </trkpt>
      <trkpt lat="44.53781" lon="1.44087">
        <ele>211.3</ele>
        <time>2022-09-25T15:33:00Z</time>
      </trkpt>
      <trkpt lat="44.53781" lon="1.44095">
        <ele>210.8</ele>
        <time>2022-09-25T15:33:06Z</time>
      </trkpt>
      <trkpt lat="44.53781" lon="1.44102">
        <ele>210.9</ele>
        <time>2022-09-25T15:33:11Z</time>
      </trkpt>
      <trkpt lat="44.53781" lon="1.44109">
        <ele>211.7</ele>
        <time>2022-09-25T15:33:16Z</time>
      </trkpt>
      <trkpt lat="44.53782" lon="1.44115">
        <ele>212.8</ele>
        <time>2022-09-25T15:33:21Z</time>
      </trkpt>
      <trkpt lat="44.53783" lon="1.44122">
        <ele>213.5</ele>
        <time>2022-09-25T15:33:27Z</time>
      </trkpt>
      <trkpt lat="44.53783" lon="1.4413">
        <ele>215.1</ele>
        <time>2022-09-25T15:33:34Z</time>
      </trkpt>
      <trkpt lat="44.53783" lon="1.44136">
        <ele>215.1</ele>
        <time>2022-09-25T15:33:39Z</time>
      </trkpt>
      <trkpt lat="44.53783" lon="1.44143">
        <ele>213.8</ele>
        <time>2022-09-25T15:33:44Z</time>
      </trkpt>
      <trkpt lat="44.53785" lon="1.44149">
        <ele>213.7</ele>
        <time>2022-09-25T15:33:50Z</time>
      </trkpt>
      <trkpt lat="44.53787" lon="1.44155">
        <ele>213</ele>
        <time>2022-09-25T15:33:56Z</time>
      </trkpt>
      <trkpt lat="44.53788" lon="1.44163">
        <ele>212.4</ele>
        <time>2022-09-25T15:34:01Z</time>
      </trkpt>
      <trkpt lat="44.53788" lon="1.44169">
        <ele>213.1</ele>
        <time>2022-09-25T15:34:08Z</time>
      </trkpt>
      <trkpt lat="44.53788" lon="1.44176">
        <ele>213</ele>
        <time>2022-09-25T15:34:16Z</time>
      </trkpt>
      <trkpt lat="44.53788" lon="1.44182">
        <ele>214.2</ele>
        <time>2022-09-25T15:34:22Z</time>
      </trkpt>
      <trkpt lat="44.53789" lon="1.4419">
        <ele>215</ele>
        <time>2022-09-25T15:34:28Z</time>
      </trkpt>
      <trkpt lat="44.53791" lon="1.44196">
        <ele>215.7</ele>
        <time>2022-09-25T15:34:34Z</time>
      </trkpt>
      <trkpt lat="44.53793" lon="1.44202">
        <ele>215.7</ele>
        <time>2022-09-25T15:34:40Z</time>
      </trkpt>
      <trkpt lat="44.53794" lon="1.44208">
        <ele>216.6</ele>
        <time>2022-09-25T15:34:46Z</time>
      </trkpt>
      <trkpt lat="44.53795" lon="1.44215">
        <ele>219.6</ele>
        <time>2022-09-25T15:34:52Z</time>
      </trkpt>
      <trkpt lat="44.53796" lon="1.44222">
        <ele>221.4</ele>
        <time>2022-09-25T15:34:58Z</time>
      </trkpt>
      <trkpt lat="44.53796" lon="1.44229">
        <ele>220.9</ele>
        <time>2022-09-25T15:35:03Z</time>
      </trkpt>
      <trkpt lat="44.53796" lon="1.44236">
        <ele>219.2</ele>
        <time>2022-09-25T15:35:08Z</time>
      </trkpt>
      <trkpt lat="44.53796" lon="1.44243">
        <ele>217.5</ele>
        <time>2022-09-25T15:35:13Z</time>
      </trkpt>
      <trkpt lat="44.53796" lon="1.4425">
        <ele>215.9</ele>
        <time>2022-09-25T15:35:18Z</time>
      </trkpt>
      <trkpt lat="44.53796" lon="1.44257">
        <ele>215.7</ele>
        <time>2022-09-25T15:35:23Z</time>
      </trkpt>
      <trkpt lat="44.53795" lon="1.44264">
        <ele>215.2</ele>
        <time>2022-09-25T15:35:28Z</time>
      </trkpt>
      <trkpt lat="44.53794" lon="1.44271">
        <ele>214.6</ele>
        <time>2022-09-25T15:35:33Z</time>
      </trkpt>
      <trkpt lat="44.53794" lon="1.44277">
        <ele>214.1</ele>
        <time>2022-09-25T15:35:38Z</time>
      </trkpt>
      <trkpt lat="44.53794" lon="1.44284">
        <ele>213.1</ele>
        <time>2022-09-25T15:35:45Z</time>
      </trkpt>
      <trkpt lat="44.53794" lon="1.44291">
        <ele>213.5</ele>
        <time>2022-09-25T15:35:51Z</time>
      </trkpt>
      <trkpt lat="44.53793" lon="1.44297">
        <ele>214.3</ele>
        <time>2022-09-25T15:35:57Z</time>
      </trkpt>
      <trkpt lat="44.53793" lon="1.44304">
        <ele>215.1</ele>
        <time>2022-09-25T15:36:03Z</time>
      </trkpt>
      <trkpt lat="44.53793" lon="1.44311">
        <ele>215.9</ele>
        <time>2022-09-25T15:36:09Z</time>
      </trkpt>
      <trkpt lat="44.53793" lon="1.44318">
        <ele>215.7</ele>
        <time>2022-09-25T15:36:15Z</time>
      </trkpt>
      <trkpt lat="44.53792" lon="1.44325">
        <ele>216.2</ele>
        <time>2022-09-25T15:36:20Z</time>
      </trkpt>
      <trkpt lat="44.53792" lon="1.44331">
        <ele>216.9</ele>
        <time>2022-09-25T15:36:25Z</time>
      </trkpt>
      <trkpt lat="44.53791" lon="1.44338">
        <ele>217.3</ele>
        <time>2022-09-25T15:36:31Z</time>
      </trkpt>
      <trkpt lat="44.53791" lon="1.44344">
        <ele>216.9</ele>
        <time>2022-09-25T15:36:36Z</time>
      </trkpt>
      <trkpt lat="44.53789" lon="1.44351">
        <ele>216.9</ele>
        <time>2022-09-25T15:36:41Z</time>
      </trkpt>
      <trkpt lat="44.53788" lon="1.44358">
        <ele>216</ele>
        <time>2022-09-25T15:36:46Z</time>
      </trkpt>
      <trkpt lat="44.53787" lon="1.44364">
        <ele>215.6</ele>
        <time>2022-09-25T15:36:51Z</time>
      </trkpt>
      <trkpt lat="44.53785" lon="1.44371">
        <ele>215.4</ele>
        <time>2022-09-25T15:36:57Z</time>
      </trkpt>
      <trkpt lat="44.53785" lon="1.44379">
        <ele>214.3</ele>
        <time>2022-09-25T15:37:03Z</time>
      </trkpt>
      <trkpt lat="44.53784" lon="1.44385">
        <ele>212.8</ele>
        <time>2022-09-25T15:37:08Z</time>
      </trkpt>
      <trkpt lat="44.53782" lon="1.44391">
        <ele>211.2</ele>
        <time>2022-09-25T15:37:14Z</time>
      </trkpt>
      <trkpt lat="44.53781" lon="1.44398">
        <ele>210.4</ele>
        <time>2022-09-25T15:37:20Z</time>
      </trkpt>
      <trkpt lat="44.53779" lon="1.44404">
        <ele>210</ele>
        <time>2022-09-25T15:37:26Z</time>
      </trkpt>
      <trkpt lat="44.53777" lon="1.4441">
        <ele>208.8</ele>
        <time>2022-09-25T15:37:33Z</time>
      </trkpt>
      <trkpt lat="44.53772" lon="1.44415">
        <ele>209.1</ele>
        <time>2022-09-25T15:37:39Z</time>
      </trkpt>
      <trkpt lat="44.53768" lon="1.44418">
        <ele>208.5</ele>
        <time>2022-09-25T15:37:45Z</time>
      </trkpt>
      <trkpt lat="44.53763" lon="1.4442">
        <ele>208.3</ele>
        <time>2022-09-25T15:37:51Z</time>
      </trkpt>
      <trkpt lat="44.53758" lon="1.44421">
        <ele>208.3</ele>
        <time>2022-09-25T15:37:57Z</time>
      </trkpt>
      <trkpt lat="44.53754" lon="1.44423">
        <ele>208</ele>
        <time>2022-09-25T15:38:04Z</time>
      </trkpt>
      <trkpt lat="44.53749" lon="1.44425">
        <ele>208.1</ele>
        <time>2022-09-25T15:38:10Z</time>
      </trkpt>
      <trkpt lat="44.53745" lon="1.44429">
        <ele>207.5</ele>
        <time>2022-09-25T15:38:16Z</time>
      </trkpt>
      <trkpt lat="44.53742" lon="1.44433">
        <ele>207</ele>
        <time>2022-09-25T15:38:22Z</time>
      </trkpt>
      <trkpt lat="44.53737" lon="1.44435">
        <ele>206.7</ele>
        <time>2022-09-25T15:38:28Z</time>
      </trkpt>
      <trkpt lat="44.53732" lon="1.44436">
        <ele>206.9</ele>
        <time>2022-09-25T15:38:33Z</time>
      </trkpt>
      <trkpt lat="44.53728" lon="1.44436">
        <ele>207</ele>
        <time>2022-09-25T15:38:38Z</time>
      </trkpt>
      <trkpt lat="44.53722" lon="1.44435">
        <ele>206.9</ele>
        <time>2022-09-25T15:38:44Z</time>
      </trkpt>
      <trkpt lat="44.53717" lon="1.44435">
        <ele>207.1</ele>
        <time>2022-09-25T15:38:50Z</time>
      </trkpt>
      <trkpt lat="44.53712" lon="1.44434">
        <ele>206.9</ele>
        <time>2022-09-25T15:38:56Z</time>
      </trkpt>
      <trkpt lat="44.53708" lon="1.44432">
        <ele>206.5</ele>
        <time>2022-09-25T15:39:01Z</time>
      </trkpt>
      <trkpt lat="44.53703" lon="1.4443">
        <ele>206.8</ele>
        <time>2022-09-25T15:39:07Z</time>
      </trkpt>
      <trkpt lat="44.53698" lon="1.4443">
        <ele>208.1</ele>
        <time>2022-09-25T15:39:12Z</time>
      </trkpt>
      <trkpt lat="44.53694" lon="1.44428">
        <ele>208.8</ele>
        <time>2022-09-25T15:39:17Z</time>
      </trkpt>
      <trkpt lat="44.53689" lon="1.44426">
        <ele>208.6</ele>
        <time>2022-09-25T15:39:23Z</time>
      </trkpt>
      <trkpt lat="44.53684" lon="1.44425">
        <ele>208.2</ele>
        <time>2022-09-25T15:39:28Z</time>
      </trkpt>
      <trkpt lat="44.53679" lon="1.44425">
        <ele>209.1</ele>
        <time>2022-09-25T15:39:33Z</time>
      </trkpt>
      <trkpt lat="44.53674" lon="1.44425">
        <ele>209.7</ele>
        <time>2022-09-25T15:39:39Z</time>
      </trkpt>
      <trkpt lat="44.5367" lon="1.44424">
        <ele>209.8</ele>
        <time>2022-09-25T15:39:44Z</time>
      </trkpt>
      <trkpt lat="44.53665" lon="1.44425">
        <ele>210</ele>
        <time>2022-09-25T15:39:50Z</time>
      </trkpt>
      <trkpt lat="44.53661" lon="1.44425">
        <ele>210.3</ele>
        <time>2022-09-25T15:39:56Z</time>
      </trkpt>
      <trkpt lat="44.53656" lon="1.44423">
        <ele>209.8</ele>
        <time>2022-09-25T15:40:02Z</time>
      </trkpt>
      <trkpt lat="44.53652" lon="1.44418">
        <ele>210.5</ele>
        <time>2022-09-25T15:40:08Z</time>
      </trkpt>
      <trkpt lat="44.53649" lon="1.44414">
        <ele>210.7</ele>
        <time>2022-09-25T15:40:13Z</time>
      </trkpt>
      <trkpt lat="44.53646" lon="1.44409">
        <ele>211.4</ele>
        <time>2022-09-25T15:40:19Z</time>
      </trkpt>
      <trkpt lat="44.53642" lon="1.44406">
        <ele>212.1</ele>
        <time>2022-09-25T15:41:13Z</time>
      </trkpt>
      <trkpt lat="44.53637" lon="1.44403">
        <ele>212.6</ele>
        <time>2022-09-25T15:41:19Z</time>
      </trkpt>
      <trkpt lat="44.53633" lon="1.444">
        <ele>212.2</ele>
        <time>2022-09-25T15:41:26Z</time>
      </trkpt>
      <trkpt lat="44.5363" lon="1.44396">
        <ele>211.3</ele>
        <time>2022-09-25T15:41:36Z</time>
      </trkpt>
      <trkpt lat="44.53626" lon="1.44392">
        <ele>211.8</ele>
        <time>2022-09-25T15:41:43Z</time>
      </trkpt>
      <trkpt lat="44.53624" lon="1.44386">
        <ele>212.1</ele>
        <time>2022-09-25T15:41:49Z</time>
      </trkpt>
      <trkpt lat="44.53624" lon="1.4438">
        <ele>212.6</ele>
        <time>2022-09-25T15:41:54Z</time>
      </trkpt>
      <trkpt lat="44.53622" lon="1.44373">
        <ele>213.3</ele>
        <time>2022-09-25T15:42:00Z</time>
      </trkpt>
      <trkpt lat="44.53619" lon="1.44368">
        <ele>213.4</ele>
        <time>2022-09-25T15:42:05Z</time>
      </trkpt>
      <trkpt lat="44.53615" lon="1.44362">
        <ele>213.5</ele>
        <time>2022-09-25T15:42:11Z</time>
      </trkpt>
      <trkpt lat="44.53613" lon="1.44356">
        <ele>214.2</ele>
        <time>2022-09-25T15:42:17Z</time>
      </trkpt>
      <trkpt lat="44.53614" lon="1.4435">
        <ele>214.9</ele>
        <time>2022-09-25T15:42:22Z</time>
      </trkpt>
      <trkpt lat="44.53616" lon="1.44344">
        <ele>215.4</ele>
        <time>2022-09-25T15:42:27Z</time>
      </trkpt>
      <trkpt lat="44.53619" lon="1.44339">
        <ele>215.2</ele>
        <time>2022-09-25T15:42:32Z</time>
      </trkpt>
      <trkpt lat="44.53621" lon="1.44334">
        <ele>214.9</ele>
        <time>2022-09-25T15:42:38Z</time>
      </trkpt>
      <trkpt lat="44.53624" lon="1.44328">
        <ele>214.7</ele>
        <time>2022-09-25T15:42:43Z</time>
      </trkpt>
      <trkpt lat="44.53626" lon="1.44322">
        <ele>214.8</ele>
        <time>2022-09-25T15:42:49Z</time>
      </trkpt>
      <trkpt lat="44.53623" lon="1.44316">
        <ele>216</ele>
        <time>2022-09-25T15:42:57Z</time>
      </trkpt>
      <trkpt lat="44.53618" lon="1.44315">
        <ele>216.8</ele>
        <time>2022-09-25T15:43:03Z</time>
      </trkpt>
      <trkpt lat="44.53613" lon="1.44313">
        <ele>217.1</ele>
        <time>2022-09-25T15:43:09Z</time>
      </trkpt>
      <trkpt lat="44.53608" lon="1.44311">
        <ele>217.5</ele>
        <time>2022-09-25T15:43:15Z</time>
      </trkpt>
      <trkpt lat="44.53603" lon="1.44309">
        <ele>217.8</ele>
        <time>2022-09-25T15:43:21Z</time>
      </trkpt>
      <trkpt lat="44.53598" lon="1.44306">
        <ele>218.6</ele>
        <time>2022-09-25T15:43:27Z</time>
      </trkpt>
      <trkpt lat="44.53594" lon="1.44304">
        <ele>219.1</ele>
        <time>2022-09-25T15:43:32Z</time>
      </trkpt>
      <trkpt lat="44.53589" lon="1.44303">
        <ele>219.5</ele>
        <time>2022-09-25T15:43:37Z</time>
      </trkpt>
      <trkpt lat="44.53583" lon="1.44301">
        <ele>220.2</ele>
        <time>2022-09-25T15:43:43Z</time>
      </trkpt>
      <trkpt lat="44.53579" lon="1.443">
        <ele>220.6</ele>
        <time>2022-09-25T15:43:48Z</time>
      </trkpt>
    </trkseg>
  </trk>
</gpx>